     2              OBSERVATION DATA    GPS                 RINEX VERSION / TYPE
teqc 1997Sep28 Duncan Agnew 19980804 18:54:13UTC            PGM / RUN BY / DATE
                                                            COMMENT
Original Marker Name: SOLEDAD LA JOLLA                      COMMENT
Campaign Name: SIO2 to Soledad 1990                         COMMENT
4-Character Station Name: SOLJ                              COMMENT
6-Character Antenna Code: TRMSST                            COMMENT
Vertical Measurement Point: BGP                             COMMENT
Vertical Offset to Rinex Ref. Point: 0.0597                 COMMENT
Radial Measurement Point: NGP                               COMMENT
Radial Offset to Rinex Ref. Point: 0.2334                   COMMENT
Antenna Height from Field Measurement: 1.1570 m             COMMENT
After survey tribrach was found off level. When             COMMENT
leveled, center was about 1 to 2 mm W of center.            COMMENT
Original XYZ: -2456373.5314 -4768827.6006 3439149.7530      COMMENT
New XYZ position is based on association with SCEC monument COMMENT
E1C8P4L7+0011. Position of that monument is believed to be  COMMENT
valid to within 1 m horizontally; vertical accuracy         COMMENT
should be no worse than 3-times this value.                 COMMENT
                                                            COMMENT
Revised Rinex header created by UCSD GPS archive for        COMMENT
GSAC on 10-Apr-1999 (1999:100) 03:47:11 GMT                 COMMENT
For assistance contact dagnew@ucsd.edu or hjohnson@ucsd.edu COMMENT
                                                            COMMENT
UNSTAMPED PLUG (SOLEDAD 1887)                               MARKER NAME
Sanchez SCRIPPS INSTITUTION OF OCEANOGRAPHY                 OBSERVER / AGENCY
495 TRIMBLE 4000 SST NP 4.11 / SP 4.10                      REC # / TYPE / VERS
32 TR 4000SST L1/L2 GEO                                     ANT # / TYPE
 -2456384.0000 -4768853.0000  3439167.0000                  APPROX POSITION XYZ
        1.0735        0.0000        0.0000                  ANTENNA: DELTA H/E/N
     1     1     0                                          WAVELENGTH FACT L1/2
     3    C1    L1    L2                                    # / TYPES OF OBSERV
     0                                                      INTERVAL
  1990     7    24    18    36    0.000000                  TIME OF FIRST OBS
  1990     7    24    23    42   30.000000                  TIME OF LAST OBS
     0                                                      # OF SATELLITES
                                                            END OF HEADER
 90  7 24 18 36  0.0000000  0  6G 6G 2G 9G18G11G13
  20637937.7504         -0.85356        -0.04072
  23465237.4064         -0.74755
  21685958.6334         -0.02756
  22668943.2274         -0.12956
  23726831.4064         -0.45555
  21530208.2034         -0.21957
 90  7 24 18 36 30.0000000  0  6G 6G 2G 9G18G11G13
  20633812.2814     -21684.88246    -16896.68462
  23475780.5084      55362.47445        -0.04771
  21669463.0164     -86674.16546        -0.06971
  22666761.3444     -11471.95946        -0.42371
  23742976.7194      84832.38446        -0.11871
  21513431.9144     -88156.66247        -0.04871
 90  7 24 18 37  0.0000000  0  6G 6G 2G 9G18G11G13
  20629777.8284     -42886.46446    -33417.39962
  23486330.9534     110832.65745     43223.33061
  21653022.0944    -173091.47247    -67338.15661
  22664684.8674     -22381.94346     -8501.72661
  23759158.2424     169849.77046     66247.10261
  21496748.1024    -175830.36947    -68317.12461
 90  7 24 18 37 30.0000000  0  6G 6G 2G 9G18G11G13
  20625817.9144     -63701.45446    -49636.86162
  23496888.0234     166302.78845     86446.67961
  21636605.5394    -259347.13146   -134550.26461
  22662696.7974     -32822.46346    -16637.23361
  23775352.2114     254950.99546    132559.65861
  21480139.9924    -263116.53447   -136332.22761
 90  7 24 18 38  0.0000000  0  6G 6G 2G 9G18G11G13
  20621933.1484     -84107.41646    -65537.61862
  23507447.1414     221795.22845    129687.39761
  21620230.7664    -345417.90947   -201618.33261
  22660807.3134     -42762.56646    -24382.78661
  23791561.6414     340153.73346    198951.34761
  21463606.3914    -349993.59347   -204028.55261
 90  7 24 18 38 30.0000000  0  6G 6G 2G 9G18G11G13
  20618123.6724    -104122.30746    -81133.63861
  23518009.5784     277294.53445    172933.47061
  21603878.8984    -431320.81646   -268555.57761
  22659004.9774     -52221.35446    -31753.28661
  23807793.7814     425435.76846    265404.78361
  21447150.6564    -436479.54347   -271420.11461
 90  7 24 18 39  0.0000000  0  6G 6G 2G 9G18G11G13
  20614387.8674    -123756.41346    -96432.93461
  23528568.6334     332785.73345    216173.23461
  21587562.7344    -517065.19847   -335369.29961
  22657294.9304     -61210.83246    -38758.08361
  23824033.8834     510782.48646    331908.68161
  21430762.1334    -522585.10847   -338515.28061
 90  7 24 18 39 30.0000000  0  6G 6G 2G 9G18G11G13
  20610725.9614    -143003.95246   -111431.01261
  23539130.6174     388275.15145    259411.58561
  21571279.6564    -602644.74347
  22655677.1644     -69726.37246    -45393.59461
  23840285.3984     596194.80746    398463.63561
  21414448.9694    -608304.49847
 90  7 24 18 40  0.0000000  0  6G 6G 2G 9G18G11G13
  20607133.9384    -161872.93346   -126134.11062
  23549683.2974     443754.20645    302641.88861
  21555023.9384    -688066.34446
  22654146.2114     -77784.78446    -51672.88361
  23856553.3834     681660.39946    465060.12261
  21398210.0864    -693646.06547
 90  7 24 18 40 30.0000000  0  6G 6G 2G 9G18G11G13
  20603615.0474    -180368.89446   -140546.54261
  23560239.4844     499208.59245    345852.92161
  21538798.7424    -773334.92947   -535059.78361
  22652695.8204     -85396.40146    -57604.02461
  23872819.7664     767169.12245    531690.19661
  21382043.8364    -778615.52347   -538019.23161
 90  7 24 18 41  0.0000000  0  6G 6G 2G 9G18G11G13
  20600167.6884    -198487.14846   -154664.66461
  23570789.3594     554644.13645    389049.29561
  21522600.0314    -858444.67547   -601379.01361
  22651333.1884     -92556.91746    -63183.66561
  23889104.3754     852721.43746    598354.31261
  21365945.5634    -863208.28247   -603935.58661
 90  7 24 18 41 30.0000000  0  6G 6G 2G 9G18G11G13
  20596793.1484    -216226.52946   -168487.54961
  23581336.5784     610066.67545    432235.53761
  21506437.4534    -943393.70747   -667572.99361
  22650052.1564     -99269.60546    -68414.36261
  23905394.0084     938314.21446    665049.90861
  21349917.5314    -947423.76147   -669557.95361
 90  7 24 18 42  0.0000000  0  6G 6G 2G 9G18G11G13
  20593489.0234    -233586.33046   -182014.66561
  23591881.7274     665469.09645    475406.09961
  21490301.3134   -1028180.26646   -733640.37661
  22648857.6174    -105536.95946    -73298.02861
  23921688.4614    1023943.26746    731773.76561
  21333965.0554   -1031261.54847   -734886.01461
 90  7 24 18 42 30.0000000  0  6G 6G 2G 9G18G11G13
  20590257.3754    -250573.43346   -195251.37961
  23602418.0164     720842.93945    518554.35661
  21474195.5704   -1112810.28847   -799585.79361
  22647744.6644    -111372.40045    -77845.11861
  23937985.9844    1109597.37146    798517.15061
  21318082.8054   -1114728.63947   -799925.23061
 90  7 24 18 43  0.0000000  0  6G 6G 2G 9G18G11G13
  20587096.3204    -267177.24746   -208189.40461
  23612952.7734     776202.79745    561691.77661
  21458122.6724   -1197272.02146   -865400.05161
  22646725.3914    -116766.60945    -82048.41761
  23954288.0314    1195283.03245    865285.12261
  21302272.3984   -1197814.53647   -864667.38661
 90  7 24 18 43 30.0000000  0  6G 6G 2G 9G18G11G13
  20584014.5234    -283372.31646   -220808.93561
  23623485.2034     831570.72945    604835.48361
  21442088.2584   -1281539.16847   -931062.70561
  22645789.9614    -121691.25946    -85885.81861
  23970602.5004    1281021.27845    932094.07461
  21286539.4064   -1280494.67947   -929093.37761
 90  7 24 18 44  0.0000000  0  6G 6G 2G 9G18G11G13
  20581010.3914    -299170.58146   -233119.26961
  23634026.4774     886937.08145    647977.91961
  21426087.5784   -1365622.73247   -996582.29861
  22644938.9304    -126156.12346    -89364.94861
  23986929.0554    1366796.24745    998931.63061
  21270880.4384   -1362780.74447   -993212.29561
 90  7 24 18 44 30.0000000  0  6G 6G 2G 9G18G11G13
  20578077.0394    -314575.66946   -245123.23561
  23644558.9454     942304.58345    691121.25261
  21410125.0634   -1449525.13847  -1061960.73061
  22644176.7664    -130161.69446    -92486.18161
  24003255.6334    1452599.60745   1065791.32261
  21255294.4454   -1444676.74847  -1057027.28061
 90  7 24 18 45  0.0000000  0  6G 6G 2G 9G18G11G13
  20575223.4384    -329586.81746   -256820.24061
  23655094.5634     997674.38745    734266.40461
  21394189.3444   -1533244.92447  -1127196.86061
  22643504.5394    -133705.11146    -95247.31461
  24019588.7814    1538427.87945   1132670.43661
  21239786.2584   -1526182.22747  -1120537.95861
 90  7 24 18 45 30.0000000  0  6G 6G 2G 9G18G11G13
  20572438.9534    -344195.57746   -268203.68661
  23665631.7814    1053051.20445    777416.98161
  21378297.5394   -1616772.26347  -1192283.03961
  22642915.7894    -136790.31246    -97651.38861
  24035931.4774    1624285.26246   1199572.24261
  21224350.8674   -1607289.20047  -1183738.10761
 90  7 24 18 46  0.0000000  0  6G 6G 2G 9G18G11G13
  20569738.2974    -358401.66946   -279273.35861
  23676175.5314    1108433.25145    820571.63861
  21362437.8134   -1700105.80147  -1257218.19261
  22642410.7974    -139433.65946    -99711.16761
  24052269.8834    1710167.75545   1266493.56161
  21208993.3674   -1687997.46547  -1246627.57361
 90  7 24 18 46 30.0000000  0  6G 6G 2G 9G18G11G13
  20567111.2974    -372203.60146   -290028.10261
  23686710.9844    1163813.34345    863724.77461
  21346616.4534   -1783242.92747  -1322000.30361
  22641993.6644    -141640.02646   -101430.44961
  24068615.7814    1796072.66545   1333432.39161
  21193710.7274   -1768305.96347  -1309205.53561
 90  7 24 18 47  0.0000000  0  6G 6G 2G 9G18G11G13
  20564565.3594    -385593.50546   -300461.80161
  23697252.2114    1219197.40345    906881.01961
  21330836.9224   -1866174.75247  -1386622.44461
  22641651.5554    -143409.78046   -102809.50661
  24084969.5004    1882003.71745   1400391.56761
  21178506.1174   -1848207.05447  -1371466.04861
 90  7 24 18 47 30.0000000  0  6G 6G 2G 9G18G11G13
  20562092.9224    -398570.88746   -310574.05061
  23707794.3914    1274583.60645    950038.89661
  21315091.9844   -1948899.38747  -1451083.12861
  22641402.7194    -144743.05746   -103848.43361
  24101326.0944    1967957.53345   1467368.51061
  21163378.1414   -1927700.53347  -1433408.93461
 90  7 24 18 48  0.0000000  0  6G 6G 2G 9G18G11G13
  20559707.0234    -411112.17246   -320346.46462
  23718334.3204    1329994.29345    993215.89561
  21299396.2974   -2031392.08747  -1515363.06861
  22641234.9534    -145606.10246   -104520.95461
  24117691.4064    2053953.36145   1534378.20761
  21148332.4924   -2006763.50147  -1495016.33761
 90  7 24 18 48 30.0000000  0  6G 6G 2G 9G18G11G13
  20557401.9694    -423223.62646   -329783.96562
  23728871.9064    1385421.56344   1036405.76661
  21283743.2504   -2113658.31347  -1579466.55361
  22641160.7504    -145995.06046
  24134062.3444    2139980.77245   1601412.50061
  21133366.6334   -2085402.06147  -1556293.05861
 90  7 24 18 49  0.0000000  0  6G 6G 2G 9G18G11G13
  20555180.2344    -434908.06746   -338888.72962
  23739432.2734    1440858.63545   1079603.33761
  21268129.5864   -2195699.57747  -1643394.73761
  22641180.1954    -145915.72246
  24150438.1884    2226032.87945   1668466.03561
  21118485.2274   -2163619.73647  -1617241.80261
 90  7 24 18 49 30.0000000  0  6G 6G 2G 9G18G11G13
  20553037.7114    -446160.39846   -347656.78261
  23749982.7584    1496303.32245   1122806.75161
  21252561.0164   -2277509.26847  -1707142.47361
  22641280.7734    -145364.03446
  24166814.1564    2312110.89245   1735539.72761
  21103680.0634   -2241411.89647  -1677858.97861
 90  7 24 18 50  0.0000000  0  6G 6G 2G 9G18G11G13
  20550975.9534    -456993.19846   -356097.92062
  23760528.6174    1551738.06445   1166002.47361
  21237037.0164   -2359098.99647  -1770718.81561
  22641474.9844    -144360.10246        -0.17471
  24183199.2114    2398198.01545   1802620.53961
  21088953.7344   -2318791.42847  -1738154.63461
 90  7 24 18 50 30.0000000  0  6G 6G 2G 9G18G11G13
  20548997.1804    -467391.10646   -364200.18261
  23771084.3914    1607177.41845   1209201.80961
  21221556.4694   -2440451.91047  -1834110.64161
  22641753.1094    -142900.54045      1137.10461
  24199585.7344    2484305.80045   1869717.41361
  21074312.6884   -2395742.66547  -1798116.54061
 90  7 24 18 51  0.0000000  0  6G 6G 2G 9G18G11G13
  20547104.2114    -477344.24747   -371955.87762
  23781636.5864    1662629.93145   1252411.39161
  21206120.4844   -2521556.82747  -1897309.19261
  22642114.1254    -140983.40546      2630.95961
  24215974.4384    2570440.18245   1936835.06061
  21059752.2814   -2472256.46647  -1857737.60561
 90  7 24 18 51 29.9990000  0  6G 6G 2G 9G18G11G13
  20545291.3394    -486853.86346   -379365.97262
  23792191.8944    1718096.29745   1295631.78361
  21190736.0584   -2602411.22047  -1960312.54961
  22642567.3234    -138612.18946      4478.66561
  24232367.2764    2656592.81045   2003966.90961
  21045274.4564   -2548332.33847  -1917017.40861
 90  7 24 18 51 59.9990000  0  6G 6G 2G 9G18G11G13
  20543566.8004    -495920.88546   -386431.19162
  23802748.7534    1773584.22345   1338868.94561
  21175396.5264   -2683019.67747  -2023124.25961
  22643107.1904    -135787.83546      6679.43261
  24248765.3004    2742764.97545   2071113.97161
  21030877.5654   -2623975.92647  -1975960.37061
 90  7 24 18 52 29.9990000  0  6G 6G 2G 9G18G11G13
  20541925.7694    -504554.62346   -393158.78661
  23813313.5814    1829085.25145   1382116.31261
  21160099.1124   -2763387.85447  -2085748.75561
  22643726.9954    -132521.41745      9224.66861
  24265166.6364    2828940.40445   2138263.55561
  21016567.4334   -2699193.97047  -2034571.75861
 90  7 24 18 52 59.9990000  0  6G 6G 2G 9G18G11G13
  20540366.2224    -512749.18946   -399544.16561
  23823878.3154    1884608.11745   1425380.70661
  21144856.8394   -2843508.29447  -2148180.19361
  22644433.2534    -128809.67446     12116.89261
  24281559.2694    2915121.03945   2205417.25261
  21002333.3784   -2773981.81747  -2092847.90661
 90  7 24 18 53 29.9990000  0  6G 6G 2G 9G18G11G13
  20538891.5654    -520504.55146   -405587.30762
  23834445.4874    1940155.17545   1468663.93161
  21129654.6514   -2923379.72547  -2210417.59761
  22645223.3314    -124657.73346     15352.12361
  24297966.2534    3001303.18645   2272572.12361
  20988184.0974   -2848339.79747  -2150789.09861
 90  7 24 18 53 59.9990000  0  6G 6G 2G 9G18G11G13
  20537498.3554    -527817.09046   -411285.38961
  23845024.0424    1995729.43745   1511968.33861
  21114505.7924   -3002996.83547  -2272456.84361
  22646098.2924    -120064.73246     18931.02461
  24314366.3704    3087486.67045   2339728.01261
  20974116.3624   -2922264.44947  -2208392.64061
 90  7 24 18 54 29.9990000  0  6G 6G 2G 9G18G11G13
  20536192.4254    -534675.66746   -416629.73762
  23855606.9804    2051338.78445   1555300.15861
  21099406.4014   -3082347.18747  -2334288.21661
  22647054.9094    -115023.95846     22858.84661
  24330768.2144    3173678.68145   2406890.53761
  20960133.5114   -2995744.96047  -2265650.09261
 90  7 24 18 54 59.9990000  0  6G 6G 2G 9G18G11G13
  20534975.4334    -541076.56546   -421617.44162
  23866191.2764    2106983.37345   1598659.35561
  21084359.3234   -3161425.53547  -2395907.63661
  22648102.0344    -109529.25446     27140.38961
  24347171.7924    3259879.43845   2474059.91361
  20946235.8784   -3068778.24247  -2322559.05961
 90  7 24 18 55 29.9990000  0  6G 6G 2G 9G18G11G13
  20533843.5504    -547014.49046   -426244.38261
  23876789.1754    2162662.03945   1642045.16161
  21069363.0034   -3240225.22447  -2457309.92261
  22649234.3474    -103573.17046     31781.47761
  24363580.4254    3346090.33245   2541237.18061
  20932423.2764   -3141359.15347  -2379115.52261
 90  7 24 18 55 59.9990000  0  6G 6G 2G 9G18G11G13
  20532805.1514    -552482.53146   -430505.20261
  23887383.6204    2218374.17445   1685457.00861
  21054422.9174   -3318738.22547  -2518488.82161
  22650459.2224     -97148.23846     36787.86961
  24379981.9724    3432314.53845   2608424.84561
  20918698.9404   -3213481.05347  -2435314.31761
 90  7 24 18 56 29.9990000  0  6G 6G 2G 9G18G11G13
  20531854.3394    -557481.44846   -434400.46761
  23897999.2144    2274116.38445   1728892.27961
  21039534.5264   -3396963.13047  -2579443.22261
  22651769.3784     -90252.76045     42160.94561
  24396396.0894    3518547.86245   2675619.58561
  20905064.7144   -3285144.77947  -2491156.10761
 90  7 24 18 56 59.9990000  0  5G 6G 2G 9G18G13
  20530993.0344    -562001.62046   -437922.67662
  23908615.7844    2329899.76145   1772359.62961
  21024706.9644   -3474889.01147  -2640164.62662
  22653173.2224     -82884.15645     47902.69461
  20891515.5894   -3356341.29447  -2546633.83461
 90  7 24 18 57 29.9990000  0  5G 6G 2G 9G18G13
  20530224.2534    -566038.90546   -441068.61162
  23919234.9254    2385725.22645   1815859.78761
  21009935.1904   -3552510.46947  -2700648.80661
  22654664.8704     -75044.10345     54011.78861
  20878055.7614   -3427067.00247  -2601744.68361
 90  7 24 18 57 59.9990000  0  5G 6G 2G 9G18G13
  20529547.5894    -569601.62246   -443844.77561
  23929866.5424    2441585.52445   1859387.05961
  20995222.5734   -3629833.95047  -2760900.81661
  22656243.4254     -66745.48945     60478.18661
  20864685.3314   -3497330.44447  -2656495.35061
 90  7 24 18 58 29.9990000  0  4G 6G 9G18G13
  20528960.2454    -572684.55146   -446247.06361
  20980564.1594   -3706852.74047  -2820915.39661
  22657907.7374     -57991.08246     67299.76061
  20851405.6674   -3567126.91947  -2710882.13361
 90  7 24 18 58 59.9990000  0  4G 6G 9G18G13
  20528467.7304    -575271.22046   -448262.66461
  20965969.8474   -3783548.70247  -2880678.43761
  22659664.8084     -48774.41746     74481.52961
  20838213.0504   -3636440.33847  -2764892.52261
 90  7 24 18 59 29.9990000  0  4G 6G 9G18G13
  20528068.1124    -577378.94746   -449905.06061
  20951434.9644   -3859937.57747  -2940202.18061
  22661501.6594     -39113.62146     82009.36561
  20825112.6594   -3705288.57047  -2818540.42461
 90  7 24 18 59 59.9990000  0  4G 6G 9G18G13
  20527758.4724    -579011.58846   -451177.25962
  20936957.5894   -3936021.34547  -2999488.16262
  22663420.7844     -29014.83946     89878.48661
  20812097.9644   -3773675.73647  -2871829.04761
 90  7 24 19  0 29.9990000  0  4G 6G 9G18G13
  20527544.3864    -580136.64746   -452053.93862
  20922542.1594   -4011765.89247  -3058509.83462
  22665437.5114     -18443.66446     98115.72661
  20799178.8624   -3841569.29247  -2924733.04161
 90  7 24 19  0 59.9990000  0  4G 6G 9G18G13
  20527404.6674    -580866.31446   -452622.53162
  20908172.1754   -4087282.39847  -3117353.80462
  22667516.6284      -7509.10645    106636.09861
  20786332.2454   -3909082.72747  -2977340.84861
 90  7 24 19  1 29.9990000  0  4G 6G 9G18G13
  20527356.2614    -581129.34546
  20893860.3394   -4162496.87347  -3175962.42462
  22669678.2614       3864.54545    115498.61961
  20773571.4094   -3976144.03147  -3029596.32961
 90  7 24 19  1 59.9990000  0  4G 6G 9G18G13
  20527397.6124    -580909.40846
  20879608.3314   -4237392.24547  -3234322.39362
  22671933.4334      15691.88745    124714.65961
  20760897.6904   -4042738.22447  -3081487.83361
 90  7 24 19  2 29.9990000  0  4G 6G 9G18G13
  20527530.1904    -580206.03646
  20865416.0344   -4311965.49547  -3292431.35362
  22674267.0034      27967.09645    134279.70661
  20748317.7764   -4108864.75747  -3133014.92261
 90  7 24 19  2 59.9990000  0  4G 6G 9G18G13
  20527757.7924    -579012.72346        -0.23272
  20851288.4484   -4386208.95747  -3350283.35362
  22676686.0894      40681.46045    144186.96861
  20735819.9804   -4174518.23447  -3184173.40961
 90  7 24 19  3 29.9990000  0  4G 6G 9G18G13
  20528077.0344    -577324.60846      1315.16962
  20837226.0194   -4460115.25647  -3407872.61662
  22679190.3474      53834.68646    154436.19861
  20723418.3624   -4239693.49647  -3234959.25261
 90  7 24 19  3 59.9990000  0  4G 6G 9G18G13
  20528497.4954    -575126.41546      3028.03862
  20823227.4874   -4533668.06547  -3465186.44662
  22681779.2064      67439.96746    165037.67061
  20711111.4564   -4304376.04947  -3285361.16161
 90  7 24 19  4 29.9990000  0  4G 6G 9G18G13
  20529010.3624    -572424.67146      5133.28161
  20809296.7224   -4606871.86847  -3522228.31761
  22684451.6984      81484.24846    175981.22761
  20698894.2764   -4368572.31847  -3335384.15861
 90  7 24 19  4 59.9990000  0  4G 6G 9G18G13
  20529620.1124    -569220.82746      7629.77162
  20795433.1514   -4679725.94247  -3578997.66462
  22687208.5264      95971.81346    187270.19561
  20686771.4094   -4432284.02247  -3385029.56661
 90  7 24 19  5 29.9990000  0  5G 6G12G 9G18G13
  20530325.0894    -565516.12146     10516.54462
  23876915.8004         -0.67754
  20781635.2454   -4752230.07347  -3635494.34262
  22690050.1674     110906.12446    198907.27061
  20674739.0814   -4495514.25847  -3434299.80361
 90  7 24 19  5 59.9990000  0  5G 6G12G 9G18G13
  20531123.5814    -561313.09846     13791.61662
  23855643.3474    -111802.57144
  20767904.5114   -4824384.82047  -3691718.77462
  22692974.2374     126278.28145    210885.50661
  20662797.7374   -4558264.76747  -3483196.23461
 90  7 24 19  6 29.9990000  0  5G 6G12G 9G18G13
  20532022.5974    -556599.29546     17464.69261
  23834365.2534    -223628.87245        -0.43471
  20754243.4404   -4896175.82947  -3747659.77061
  22695986.6514     142094.01845    223209.39961
  20650947.7064   -4620523.36347  -3531709.35061
 90  7 24 19  6 59.9990000  0  5G 6G12G 9G18G13
  20533020.2764    -551355.90747     21550.43662
  23813086.6204    -335459.49045    -87141.05261
  20740657.4094   -4967582.51347  -3803301.28762
  22699081.9564     158371.93945    235893.43461
  20639195.5344   -4682272.29747  -3579825.33161
 90  7 24 19  7 29.9990000  0  5G 6G12G 9G18G13
  20534118.8554    -545586.19046     26046.30162
  23791803.2144    -447296.30645   -174286.52061
  20727140.4174   -5038605.70847  -3858643.98962
  22702268.3624     175102.53745    248930.20861
  20627544.7764   -4743514.60847  -3627546.54261
 90  7 24 19  7 59.9990000  0  5G 6G12G 9G18G13
  20535323.1834    -539256.88246     30978.21562
  23770525.7694    -559105.02145   -261410.09461
  20713706.8944   -5109210.73647  -3913660.84462
  22705544.3704     192316.51845    262343.63561
  20615992.5584   -4804217.84547  -3674847.69461
 90  7 24 19  8 29.9990000  0  5G 6G12G 9G18G13
  20536627.4724    -532398.17746     36322.64462
  23749249.2304    -670914.12245   -348533.90861
  20700343.6984   -5179425.55247  -3968373.63762
  22708903.5974     209982.21646    276109.05361
  20604539.2304   -4864412.27347  -3721752.37562
 90  7 24 19  8 59.9990000  0  5G 6G12G 9G18G13
  20538035.1284    -524991.93146     42093.72762
  23727975.7534    -782704.58045   -435643.24561
  20687060.7304   -5249230.06147  -4022766.71662
  22712354.1904     228116.84246    290239.88861
  20593183.7764   -4924080.63447  -3768247.13661
 90  7 24 19  9 29.9990000  0  5G 6G12G 9G18G13
  20539554.6984    -517015.06046     48309.45462
  23706715.7764    -894451.75145   -522718.84861
  20673858.5114   -5318599.14447  -4076820.48762
  22715899.5344     246742.39546    304753.27161
  20581933.8084   -4983199.81047  -3814313.96361
 90  7 24 19  9 59.9990000  0  5G 6G12G 9G18G13
  20541164.9874    -508547.83146     54907.26661
  23685435.8154   -1006234.74545   -609822.32261
  20660726.6364   -5387611.18947  -4130596.06161
  22719523.5654     265773.74946    319582.84761
  20570772.1754   -5041850.68847  -3860015.88561
 90  7 24 19 10 29.9990000  0  5G 6G12G 9G18G13
  20542870.6674    -499581.48346     61894.01262
  23664163.4404   -1118042.73945   -696945.32261
  20647668.0734   -5456255.38147  -4184084.97562
  22723223.9404     285219.90246    334735.63961
  20559700.2454   -5100024.98747  -3905346.43462
 90  7 24 19 10 59.9990000  0  5G 6G12G 9G18G13
  20544675.7844    -490106.67146     69276.95862
  23642879.9254   -1229865.42945   -784079.77961
  20634677.3084   -5524520.21247  -4237278.29162
  22727002.3314     305091.44245    350219.91061
  20548721.7224   -5157713.84147  -3950298.72162
 90  7 24 19 11 29.9990000  0  5G 6G12G 9G18G13
  20546574.3474    -480130.51546     77050.56962
  23621600.8554   -1341708.14045   -871229.82861
  20621755.8944   -5592410.80747  -4290180.00062
  22730862.8474     325375.27345    366025.45361
  20537838.1674   -5214924.67247  -3994878.51662
 90  7 24 19 11 59.9990000  0  5G 6G12G 9G18G13
  20548567.0814    -469658.15046     85210.82562
  23600313.0194   -1453574.53145   -958398.32261
  20608909.4724   -5659930.23747  -4342792.48862
  22734796.4644     346059.55345    382143.02561
  20527040.4334   -5271663.02047  -4039090.13762
 90  7 24 19 12 29.9990000  0  5G 6G12G 9G18G13
  20550662.7454    -458649.40446     93789.54462
  23579026.3394   -1565422.69645  -1045552.10461
  20596138.8004   -5727036.25247  -4395082.34062
  22738819.6514     367186.05545    398605.67261
  20516340.2304   -5327888.93547  -4082901.97062
 90  7 24 19 12 59.9990000  0  5G 6G12G 9G18G13
  20552842.5264    -447190.37546    102718.13862
  23557732.1594   -1677336.87545  -1132758.35861
  20583431.2764   -5793812.62147  -4447116.32262
  22742908.7454     388658.30745    415336.71061
  20505722.6834   -5383689.01047  -4126382.98861
 90  7 24 19 13 29.9990000  0  5G 6G12G 9G18G13
  20555126.7844    -435189.49546    112069.43762
  23536438.8154   -1789223.98545  -1219942.97961
  20570803.1054   -5860165.77147  -4498820.03661
  22747074.2374     410559.38945    432402.38261
  20495203.6124   -5438971.97447  -4169460.54761
 90  7 24 19 13 59.9990000  0  5G 6G12G 9G18G13
  20557512.0264    -422653.39446    121837.80161
  23515152.7224   -1901089.32345  -1307110.64661
  20558255.4804   -5926100.42547  -4550197.64761
  22751325.2534     432886.84745    449800.30961
  20484781.4014   -5493745.44147  -4212141.11461
 90  7 24 19 14 29.9990000  0  5G 6G12G 9G18G13
  20559999.1124    -409586.62046    132019.67761
  23493866.0034   -2012935.31545  -1394263.27561
  20545788.5504   -5991618.59947  -4601250.72561
  22755651.4804     455637.49546    467528.03461
  20474451.6754   -5548013.93747  -4254428.19261
 90  7 24 19 14 59.9990000  0  5G 6G12G 9G18G13
  20562582.6444    -396007.12846    142601.06761
  23472584.8084   -2124778.44845  -1481413.64361
  20533397.2924   -6056736.41347  -4651991.82961
  22760057.5504     478789.48446    485568.49261
  20464218.0894   -5601795.80747  -4296336.07261
 90  7 24 19 15 29.9990000  0  5G 6G12G 9G18G13
  20565269.0894    -381894.34146    153598.01262
  23451308.2374   -2236596.37145  -1568544.34661
  20521085.3004   -6121430.69647  -4702402.90561
  22764545.3474     502368.39746    503941.61161
  20454079.3624   -5655071.24547  -4337849.33061
 90  7 24 19 15 59.9990000  0  5G 6G12G 9G18G13
  20568049.5974    -367272.95246    164991.27762
  23430027.5114   -2348411.57445  -1655672.94661
  20508851.2374   -6185723.98647  -4752501.52361
  22769106.5344     526348.37746    522627.26161
  20444031.3864   -5707865.09647  -4378987.32261
 90  7 24 19 16 29.9990000  0  5G 6G12G 9G18G13
  20570932.2844    -352126.95146    176793.32362
  23408750.8314   -2460206.72045  -1742785.90961
  20496694.8234   -6249598.21447  -4802273.59561
  22773744.8554     550733.43546    541628.53661
  20434082.7614   -5760161.61647  -4419737.77961
 90  7 24 19 16 59.9990000  0  5G 6G12G 9G18G13
  20573911.4094    -336476.01146    188988.83162
  23387482.6754   -2571999.47245  -1829897.01261
  20484619.0894   -6313070.67347  -4851732.60261
  22778457.7694     575495.95846    560923.96761
  20424218.9954   -5811980.66647  -4460116.19261
 90  7 24 19 17 29.9990000  0  5G 6G12G 9G18G13
  20576986.7224    -320306.45546    201588.45262
  23366211.6124   -2683774.02545  -1916993.92161
  20472617.5344   -6376125.37747  -4900866.08762
  22783248.1364     600643.00846    580518.96961
  20414452.9254   -5863309.05447  -4500112.26761
 90  7 24 19 17 59.9990000  0  5G 6G12G 9G18G13
  20580159.8864    -303630.77446    214582.46262
  23344940.5504   -2795540.92645  -2004084.88161
  20460695.7064   -6438772.71747  -4949682.15062
  22788101.2304     626158.28045    600400.95461
  20404775.8784   -5914159.97247  -4539736.29561
 90  7 24 19 18 29.9990000  0  5G 6G12G 9G18G13
  20583428.4644    -286456.31246    227965.12062
  23323674.0264   -2907305.52045  -2091174.04561
  20448853.2924   -6501017.73547  -4998184.70461
  22793023.1904     652038.91645    620567.60861
  20395188.2454   -5964541.18347  -4578994.31561
 90  7 24 19 18 59.9990000  0  5G 6G12G 9G18G13
  20586796.2454    -268759.63646    241754.70362
  23302412.0114   -3019042.30945  -2178241.54961
  20437090.5894   -6562834.80247  -5046353.80062
  22798026.7224     678312.94945    641040.79461
  20385693.9174   -6014429.56647  -4617868.31661
 90  7 24 19 19 29.9990000  0  5G 6G12G 9G18G13
  20590261.8394    -250551.68046    255942.68862
  23281152.8004   -3130760.28945  -2265294.37861
  20425404.9484   -6624232.00747  -5094195.72162
  22803100.6904     704972.79845    661814.63961
  20376293.5424   -6063836.31047  -4656367.00461
 90  7 24 19 19 59.9990000  0  5G 6G12G 9G18G13
  20593826.3474    -231814.16746    270543.31162
  23259898.5974   -3242439.18145  -2352316.76961
  20413805.8554   -6685189.25047  -5141694.82262
  22808252.2304     732036.16645    682902.90461
  20366989.1834   -6112743.55547  -4694476.48261
 90  7 24 19 20 29.9990000  0  5G 6G12G 9G18G13
  20597491.6204    -212557.86746    285548.18862
  23238655.0814   -3354088.09645  -2439315.79661
  20402288.2454   -6745714.87447  -5188857.59462
  22813472.6754     759481.81045    704289.02861
  20357772.2764   -6161162.41747  -4732205.40062
 90  7 24 19 20 59.9990000  0  5G 6G12G 9G18G13
  20601253.8944    -192781.71846    300958.13862
  23217413.2924   -3465703.09945  -2526288.40561
  20390853.7614   -6805805.23547  -5235681.20862
  22818763.4874     787299.42445    725965.01061
  20348650.3084   -6209092.20147  -4769553.23161
 90  7 24 19 21 29.9990000  0  5G 6G12G 9G18G13
  20605116.9174    -172476.90746    316780.03261
  23196184.4094   -3577272.96045  -2613225.83961
  20379503.8624   -6865449.34247  -5282157.09161
  22824128.7764     815491.55145    747932.82061
  20339625.1364   -6256524.70947  -4806513.57361
 90  7 24 19 21 59.9990000  0  5G 6G12G 9G18G13
  20609086.3554    -151619.33446    333032.66461
  23174965.8554   -3688771.71345  -2700107.85161
  20368244.1674   -6924620.61147  -5328264.53161
  22829573.9724     844081.06045    770210.28161
  20330697.4564   -6303436.03647  -4843067.79561
 90  7 24 19 22 29.9990000  0  5G 6G12G 9G18G13
  20613152.3084    -130257.04347    349678.57462
  23153752.7454   -3800244.97145  -2786970.00561
  20357065.0114   -6983364.81047  -5374039.19061
  22835083.0654     873023.40745    792762.65961
  20321861.2144   -6349874.28547  -4879253.38261
 90  7 24 19 22 59.9990000  0  5G 6G12G 9G18G13
  20617320.4724    -108357.57946    366743.05762
  23132555.3784   -3911657.82245  -2873785.08461
  20345975.3474   -7041647.00847  -5419453.84362
  22840662.4254     902356.45145    815619.49561
  20313119.7694   -6395808.05347  -4915045.86862
 90  7 24 19 23 29.9990000  0  5G 6G12G 9G18G13
  20621584.2924     -85950.28346    384203.25762
  23111360.2924   -4023037.53245  -2960574.32161
  20334965.0894   -7099493.83347  -5464529.25562
  22846310.5654     932052.38445    838759.09261
  20304470.1834   -6441267.12447  -4950468.45261
 90  7 24 19 23 59.9990000  0  5G 6G12G 9G18G13
  20625951.6054     -63000.70446    402086.01161
  23090174.8944   -4134347.21645  -3047308.98761
  20324047.8864   -7156868.75647  -5509236.93561
  22852036.8554     962140.40445    862204.26061
  20295916.4954   -6486216.96447  -4985494.25061
 90  7 24 19 24 29.9990000  0  5G 6G12G 9G18G13
  20630424.8004     -39490.58546    420405.54961
  23069014.3394   -4245566.16746  -3133972.99261
  20313222.1124   -7213750.92247  -5553560.65661
  22857835.9254     992629.30845    885961.75861
  20287463.8084   -6530640.12047  -5020109.63061
 90  7 24 19 24 59.9990000  0  5G 6G12G 9G18G13
  20635002.7224     -15429.68446    439154.26661
  23047862.4254   -4356701.48946  -3220571.81161
  20302489.8624   -7270147.59247  -5597506.07161
  22863712.5424    1023499.49546    910016.35961
  20279107.8704   -6574546.36947  -5054322.23961
 90  7 24 19 25 29.9990000  0  5G 6G12G 9G18G13
  20639673.1904       9116.41946    458281.07861
  23026718.4484   -4467816.67446  -3307154.94761
  20291839.4644   -7326121.90347  -5641122.37661
  22869647.4254    1054683.24446    934315.30661
  20270840.1514   -6618001.54947  -5088183.36061
 90  7 24 19 25 59.9990000  0  5G 6G12G 9G18G13
  20644451.0424      34211.95946    477836.00061
  23005589.6834   -4578844.67946  -3393670.14861
  20281281.5264   -7381607.10847  -5684357.56161
  22875651.9644    1086242.90746    958907.20361
  20262669.8234   -6660942.17747  -5121643.53761
 90  7 24 19 26 29.9990000  0  5G 6G12G 9G18G13
  20649321.1444      59801.34146    497775.74261
  22984468.1284   -4689838.94846  -3480159.06061
  20270807.6204   -7436656.32147  -5727253.01061
  22881717.8704    1118123.84446    983749.41861
  20254584.2224   -6703423.89647  -5154746.11761
 90  7 24 19 26 59.9990000  0  5G 6G12G 9G18G13
  20654294.7304      85936.63447    518140.87061
  22963362.8554   -4800744.64346  -3566578.95161
  20260425.9014   -7491215.00947  -5769766.22661
  22887856.6204    1150381.72345   1008885.34761
  20246595.3704   -6745395.23747  -5187451.00461
 90  7 24 19 27 29.9990000  0  5G 6G12G 9G18G13
  20659367.3314     112599.81546    538917.34562
  22942274.5814   -4911576.93446  -3652941.63061
  20250130.5504   -7545298.47847  -5811909.14961
  22894065.3864    1182995.54746   1034298.62661
  20238702.5654   -6786874.61047  -5219772.53361
 90  7 24 19 27 59.9990000  0  5G 6G12G 9G18G13
  20664543.7764     139806.27246    560117.13561
  22921202.0504   -5022318.02046  -3739233.23261
  20239931.4334   -7598888.97147  -5853667.93061
  22900342.0734    1215972.44246   1059994.81961
  20230907.5194   -6827846.73247  -5251698.80461
 90  7 24 19 28 29.9990000  0  5G 6G12G 9G18G13
  20669817.1904     167514.10146    581707.60461
  22900138.4174   -5133007.11745  -3825484.33661
  20229821.7924   -7652025.82947  -5895073.23961
  22906675.9954    1249269.27446   1085940.33661
  20223196.9874   -6868354.09847  -5283262.92761
 90  7 24 19 28 59.9990000  0  5G 6G12G 9G18G13
  20675195.1514     195778.32646    603731.63562
  22879090.7144   -5243586.48545  -3911649.93961
  20219810.1984   -7704651.27347  -5936080.02961
  22913082.6364    1282940.36145   1112177.46561
  20215587.2694   -6908341.46247  -5314421.85961
 90  7 24 19 29 29.9990000  0  5G 6G12G 9G18G13
  20680674.6754     224568.17647    626165.23662
  22858067.8394   -5354084.00945  -3997751.77361
  20209886.2374   -7756793.58347  -5976710.35761
  22919557.4334    1316950.54445   1138678.80961
  20208071.3624   -6947840.80047  -5345200.50261
 90  7 24 19 29 59.9990000  0  5G 6G12G 9G18G13
  20686249.6054     253868.02047    648996.23862
  22837053.3154   -5464512.52746  -4083799.83661
  20200053.7064   -7808466.06547  -6016974.58562
  22926085.9334    1351288.01545   1165435.19561
  20200645.4644   -6986867.44447  -5375610.81462
 90  7 24 19 30 29.9990000  0  5G 6G12G 9G18G13
  20691929.7614     283713.88347    672252.70962
  22816056.8784   -5574833.13546  -4169763.81561
  20190315.3704   -7859629.83447  -6056842.41662
  22932696.8704    1385993.33845   1192478.24061
  20193316.5894   -7025385.68747  -5405624.97762
 90  7 24 19 30 59.9990000  0  5G 6G12G 9G18G13
  20697707.5034     314084.66147    695918.21562
  22795081.9874   -5685064.10146  -4255657.94761
  20180672.7764   -7910303.43647  -6096328.29862
  22939364.6594    1421038.94445   1219786.41761
  20186077.9484   -7063417.46147  -5435260.06762
 90  7 24 19 31 29.9990000  0  5G 6G12G 9G18G13
  20703587.5344     344980.99646    719993.23662
  22774122.7454   -5795202.10146  -4341479.63761
  20171125.3474   -7960483.59647  -6135429.68662
  22946098.1754    1456423.80945   1247358.94361
  20178932.4954   -7100962.25847  -5464515.70862
 90  7 24 19 31 59.9990000  0  5G 6G12G 9G18G13
  20709571.1984     376421.23546    744492.07162
  22753188.3394   -5905225.81346  -4427212.28961
  20161674.1514   -8010149.36747  -6174130.24662
  22952897.8474    1492165.82045   1275209.79561
  20171885.2844   -7138001.93547  -5493377.74762
 90  7 24 19 32 29.9990000  0  5G 6G12G 9G18G13
  20715658.4874     408407.63146    769416.48762
  22732272.1444   -6015130.24346  -4512851.98061
  20152320.0504   -8059296.08447  -6212426.34862
  22959768.1904    1528261.57145   1303336.26561
  20164934.9954   -7174534.59147  -5521844.71062
 90  7 24 19 32 59.9990000  0  5G 6G12G 9G18G13
  20721842.9564     440915.33246    794747.11762
  22711377.6204   -6124937.06345  -4598415.60761
  20143061.6364   -8107945.60947  -6250335.02462
  22966695.4874    1564674.59745   1331709.97261
  20158075.1514   -7210585.30447  -5549936.13862
 90  7 24 19 33 29.9990000  0  5G 6G12G 9G18G13
  20728133.9954     473967.74546    820502.20362
  22690504.2844   -6234619.52745  -4683882.34861
  20133904.6204   -8156072.15647  -6287836.18662
  22973687.4954    1601424.40545   1360346.10461
  20151309.7454   -7246131.17447  -5577634.17862
 90  7 24 19 33 59.9990000  0  5G 6G12G 9G18G13
  20734530.6204     507586.60446    846698.67462
  22669663.6054   -6344153.09345  -4769233.04361
  20124852.3704   -8203651.26147  -6324910.76962
  22980751.4334    1638524.90245   1389255.50561
  20144643.9954   -7281150.49347  -5604921.92062
 90  7 24 19 34 29.9990000  0  5G 6G12G 9G18G13
  20741031.1674     541738.66447    873310.62962
  22648837.1984   -6453568.11445  -4854491.36861
  20115897.1834   -8250713.47447  -6361582.58262
  22987869.7454    1675935.45945   1418406.51461
  20138071.7374   -7315677.22847  -5631825.82762
 90  7 24 19 34 59.9990000  0  5G 6G12G 9G18G13
  20747626.4564     576400.90047    900320.11562
  22628038.1594   -6562884.20445  -4939672.61461
  20107036.5194   -8297279.03947  -6397867.40662
  22995041.4804    1713630.12045   1447778.89261
  20131591.8234   -7349734.85447  -5658364.19462
 90  7 24 19 35 29.9990000  0  5G 6G12G 9G18G13
  20754322.3154     611597.65846    927746.11762
  22607260.8944   -6672074.09745  -5024755.51161
  20098272.5654   -8343321.19447  -6433744.37162
  23002272.0114    1751641.19445   1477397.84361
  20125208.0894   -7383298.96247  -5684518.00661
 90  7 24 19 35 59.9990000  0  5G 6G12G 9G18G13
  20761123.4254     647328.90946    955588.58962
  22586509.2374   -6781134.75546  -5109737.69861
  20089609.1204   -8388837.22947  -6469211.37662
  23009570.7144    1789969.69945   1507264.13261
  20118914.4804   -7416369.68747  -5710287.35561
 90  7 24 19 36 29.9990000  0  5G 6G12G 9G18G13
  20768042.5814     683691.37946    983922.94562
  22565797.2694   -6889966.07945  -5194541.19761
  20081068.8474   -8433727.56947  -6504190.82861
  23016943.9334    1828717.07645   1537456.79661
  20112731.3004   -7448851.02047  -5735597.44161
 90  7 24 19 36 59.9990000  0  5G 6G12G 9G18G13
  20775078.2064     720662.71846   1012731.73662
  22545126.7844   -6998587.09245  -5279180.81361
  20072640.1754   -8478012.20547  -6538698.30061
  23024392.7764    1867864.03645   1567960.85861
  20106659.6514   -7480765.44347  -5760465.78061
 90  7 24 19 37 29.9990000  0  5G 6G12G 9G18G13
  20782224.8234     758214.53647   1041992.85562
  22524490.5584   -7107022.88446  -5363676.10261
  20064323.8864   -8521716.38347  -6572753.46661
  23031911.2454    1907382.74845   1598754.54161
  20100689.6124   -7512141.49147  -5784914.60762
 90  7 24 19 37 59.9990000  0  5G 6G12G 9G18G13
  20789483.8394     796366.50646   1071721.62762
  22503895.2304   -7215250.77645  -5448009.39861
  20056123.2304   -8564817.96247  -6606339.07661
  23039506.9564    1947284.14644   1629846.42961
  20094822.5264   -7542959.85547  -5808928.87161
 90  7 24 19 38 29.9990000  0  5G 6G12G 9G18G13
  20796848.6444     835065.52946   1101876.66462
  22483331.5504   -7323320.54645  -5532219.48561
  20048026.8084   -8607367.29947  -6639494.36861
  23047162.8314    1987511.48745   1661192.30061
  20089055.0504   -7573273.79547  -5832550.09061
 90  7 24 19 38 59.9990000  0  5G 6G12G 9G18G13
  20804319.1984     874331.46346   1132473.45562
  22462797.9014   -7431208.99945  -5616288.27761
  20040039.0894   -8649341.73047  -6672201.68761
  23054878.8314    2028075.37745   1692800.40861
  20083386.3944   -7603063.99747  -5855763.18861
 90  7 24 19 39 29.9990000  0  5G 6G12G 9G18G13
  20811897.5344     914146.09746   1163497.81262
  22442302.2144   -7538930.40246  -5700226.90361
  20032160.6674   -8690756.70347  -6704473.06761
  23062664.5584    2068958.47545   1724657.30361
  20077814.6364   -7632348.73647  -5878582.41761
 90  7 24 19 39 59.9990000  0  5G 6G12G 9G18G13
  20819580.1514     954518.33446   1194956.66062
  22421834.0194   -7646472.56945  -5784025.84261
  20024387.6284   -8731600.83147  -6736299.62862
  23070501.3314    2110166.28645   1756767.23461
  20072338.5504   -7661119.61647  -5901001.24562
 90  7 24 19 40 29.9990000  0  5G 6G12G 9G18G13
  20827379.1124     995502.37346   1226892.22662
  22401414.9484   -7753778.15346  -5867640.45261
  20016731.7144   -8771816.91447  -6767636.80561
  23078417.3394    2151753.30044   1789172.57061
  20066972.4564   -7689322.72747  -5922977.65862
 90  7 24 19 40 59.9990000  0  5G 6G12G 9G18G13
  20835291.5034    1037097.93446   1259304.30662
  22381043.2924   -7860843.79446  -5951068.09361
  20009198.5344   -8811402.64647  -6798482.80561
  23086395.1054    2193720.87844   1821874.43661
  20061714.9404   -7716958.12347  -5944511.69161
 90  7 24 19 41 29.9990000  0  5G 6G12G 9G18G13
  20843334.7534    1079358.04646
  22360728.5264   -7967612.79546  -6034264.57361
  20001797.6444   -8850302.19047  -6828794.11061
  23094467.0344    2236120.85245
  20056573.3864   -7743973.23747  -5965562.39561
 90  7 24 19 41 59.9990000  0  5G 6G12G 9G18G13
  20851479.2374    1122153.47546   1325581.24561
  22340441.2924   -8074211.01846  -6117327.99861
  19994502.3554   -8888642.01747  -6858669.27461
  23102588.8704    2278813.67845   1888180.33161
  20051523.7224   -7770497.71447  -5986230.78061
 90  7 24 19 42 29.9990000  0  5G 6G12G 9G18G13
  20859690.9174    1165305.72846   1359206.33362
  22320153.1904   -8180813.47146  -6200394.70061
  19987277.2924   -8926597.86047  -6888245.22861
  23110739.0974    2321614.20845   1921531.25861
  20046538.1834   -7796709.57247  -6006655.56661
 90  7 24 19 42 59.9990000  0  5G 6G12G 9G18G13
  20868002.2534    1208976.87646   1393235.74461
  22299899.1594   -8287254.58846  -6283335.68761
  19980162.9334   -8964005.13247  -6917393.73361
  23118933.7144    2364681.08844   1955089.80261
  20041637.7224   -7822447.40947  -6026710.97961
 90  7 24 19 43 29.9990000  0  5G 6G12G 9G18G13
  20876411.0264    1253160.40746   1427664.40861
  22279674.1444   -8393537.19346  -6366153.18561
  19973145.7304   -9000867.30447  -6946117.48061
  23127183.2924    2408004.99444   1988848.56661
  20036830.5974   -7847718.16547  -6046402.44161
 90  7 24 19 43 59.9990000  0  5G 6G12G 9G18G13
  20884915.5974    1297852.74546   1462489.56562
  22259479.2614   -8499661.18646  -6448847.06661
  19966235.2844   -9037185.23047  -6974417.13561
  23135471.4404    2451585.75944   2022807.51261
  20032108.8004   -7872525.68647  -6065732.92462
 90  7 24 19 44 29.9980000  0  5G 6G12G 9G18G13
  20893519.3344    1343068.35446   1497722.45062
  22239321.3814   -8605602.99946  -6531399.00861
  19959427.2484   -9072938.98747  -7002277.18362
  23143814.8034    2495443.73645   2056982.46461
  20027481.2014   -7896853.06047  -6084689.28662
 90  7 24 19 44 59.9980000  0  5G 6G12G 9G18G13
  20902222.2564    1388801.29646   1533358.45362
  22219192.5614   -8711375.22946  -6613818.79461
  19952732.8184   -9108137.52247  -7029704.59661
  23152217.5534    2539581.19745   2091375.16061
  20022939.3574   -7920711.74447  -6103280.42962
 90  7 24 19 45 29.9980000  0  5G 6G12G 9G18G13
  20911022.2954    1435050.95246   1569397.08862
  22199096.7564   -8816969.80046  -6696100.16961
  19946142.4284   -9142775.24847  -7056695.02061
  23160670.1154    2583992.18645   2125981.00161
  20018489.2954   -7944099.63347  -6121504.72162
 90  7 24 19 45 59.9980000  0  5G 6G12G 9G18G13
  20919915.5294    1481784.29746   1605812.62462
  22179032.6864   -8922415.47346  -6778265.49861
  19939650.9594   -9176883.02947  -7083272.48461
  23169167.8814    2628634.48845   2160767.09861
  20014121.2174   -7967050.11347  -6139388.17261
 90  7 24 19 46 29.9980000  0  5G 6G12G 9G18G13
  20928911.5064    1529060.60446   1642651.23762
  22159006.1314   -9027649.31546  -6860265.77061
  19933271.4364   -9210398.68947  -7109388.55461
  23177710.3034    2673563.23044   2195776.35861
  20009850.5064   -7989504.09647  -6156884.74562
 90  7 24 19 46 59.9980000  0  5G 6G12G 9G18G13
  20938006.4284    1576855.47846   1679893.93762
  22139018.3574   -9132691.90746  -6942117.02961
  19927003.0294   -9243343.84247  -7135060.08161
  23186309.8734    2718746.16544   2230983.75361
  20005667.1394   -8011485.91947  -6174013.41361
 90  7 24 19 47 29.9980000  0  5G 6G12G 9G18G13
  20947199.7404    1625164.49346   1717537.25462
  22119065.3814   -9237543.70346  -7023819.59061
  19920842.0534   -9275719.86347  -7160288.12561
  23194951.7174    2764174.28144   2266382.16861
  20001572.6864   -8033000.20547  -6190777.76861
 90  7 24 19 47 59.9980000  0  5G 6G12G 9G18G13
  20956492.9364    1673996.02546   1755587.73962
  22099148.7094   -9342192.72146  -7105364.16861
  19914791.6934   -9307515.96447  -7185064.28661
  23203649.4594    2809865.52245   2301985.58861
  19997568.7404   -8054039.35447  -6207171.88561
 90  7 24 19 48 29.9980000  0  5G 6G12G 9G18G13
  20965880.8504    1723327.70546   1794027.94762
  22079271.9434   -9446657.42446  -7186765.11461
  19908847.7014   -9338751.50647  -7209403.64461
  23212387.5534    2855803.58444   2337781.40061
  19993651.2094   -8074625.71447  -6223213.18162
 90  7 24 19 48 59.9980000  0  5G 6G12G 9G18G13
  20975362.3894    1773151.97746   1832851.98862
  22059425.9044   -9550941.30346  -7268025.15461
  19903007.9674   -9369431.45547  -7233310.07261
  23221178.0614    2901978.37944   2373761.58061
  19989820.2404   -8094767.04247  -6238907.69461
 90  7 24 19 49 29.9980000  0  5G 6G12G 9G18G13
  20984938.2644    1823483.43546   1872071.23462
  22039620.3574   -9655025.45446  -7349129.56461
  19897279.8114   -9399538.35547  -7256769.97661
  23230009.7094    2948405.55943   2409938.45861
  19986073.7874   -8114448.51847  -6254243.88861
 90  7 24 19 49 59.9980000  0  5G 6G12G 9G18G13
  20994614.1784    1874319.65346   1911683.80462
  22019852.6314   -9758908.43446  -7430077.21661
  19891661.6074   -9429071.94947  -7279783.14461
  23238895.5144    2995075.98543   2446304.86861
  19982414.0224   -8133672.83547  -6269223.85061
 90  7 24 19 50 29.9980000  0  5G 6G12G 9G18G13
  21004383.7564    1925662.49846   1951691.14062
  22000123.6784   -9862584.30446  -7510863.48661
  19886148.9044   -9458027.26347  -7302345.71561
  23247821.2404    3041982.24643   2482855.07761
  19978844.7484   -8152438.17947  -6283846.16162
 90  7 24 19 50 59.9980000  0  5G 6G12G 9G18G13
  21014251.5064    1977521.42946   1992100.62662
  21980436.1314   -9966039.82346  -7591478.05361
  19880754.2484   -9486392.58147  -7324448.54161
  23256797.9984    3089128.37343   2519592.21361
  19975361.0224   -8170735.39247  -6298103.69761
 90  7 24 19 51 29.9980000  0  5G 6G12G 9G18G13
  21024214.4204    2029881.62046   2032900.70962
  21960790.5064  -10069285.67646  -7671929.24861
  19875463.3264   -9514179.55847  -7346100.71861
  23265807.3034    3136490.95343   2556498.00161
  19971968.0924   -8188579.46547  -6312008.14361
 90  7 24 19 51 59.9980000  0  5G 6G12G 9G18G13
  21034275.0924    2082745.68546   2074093.41862
  21941184.6474  -10172315.35446  -7752211.99561
  19870289.2954   -9541383.08147  -7367298.24361
  23274861.5064    3184066.63543   2593569.87661
  19968656.3504   -8205967.18547  -6325556.98362
 90  7 24 19 52 29.9980000  0  5G 6G12G 9G18G13
  21044433.1624    2136125.19146   2115687.76362
  21921621.7644  -10275112.79346  -7832313.77661
  19865226.2874   -9567988.51647  -7388029.74161
  23283955.5924    3231867.44243   2630817.10461
  19965438.4984   -8222887.89147  -6338741.91861
 90  7 24 19 52 59.9980000  0  5G 6G12G 9G18G13
  21054685.4284    2189999.59546   2157667.73662
  21902100.6474  -10377694.37346  -7912247.35161
  19860270.8424   -9594013.84647  -7408309.20361
  23293085.1864    3279865.90443   2668218.39561
  19962304.4984   -8239362.35147  -6351579.13162
 90  7 24 19 53 29.9980000  0  5G 6G12G 9G18G13
  21065036.2644    2244388.67346   2200048.75962
  21882624.8894  -10480035.97246  -7991993.92561
  19855434.5684   -9619436.61247  -7428119.14161
  23302269.6784    3328085.22445   2705791.71961
  19959256.9824   -8255370.78447  -6364053.20562
 90  7 24 19 53 59.9980000  0  5G 6G12G 9G18G13
  21075480.1864    2299283.90846   2242824.17962
  21863194.2094  -10582142.12246  -8071557.05061
  19850709.4434   -9644262.62147  -7447464.07261
  23311483.5294    3376529.31744   2743540.21861
  19956297.8344   -8270921.68847  -6376170.76662
 90  7 24 19 54 29.9980000  0  5G 6G12G 9G18G13
  21086023.3114    2354685.31646   2285994.03362
  21843812.5374  -10684008.28646  -8150933.16461
  19846100.7874   -9668488.57647  -7466341.42661
  23320743.2724    3425205.42843   2781469.51161
  19953425.7254   -8286014.76447  -6387931.57562
 90  7 24 19 54 59.9980000  0  5G 6G12G 9G18G13
  21096661.1394    2410585.30546   2329552.38562
  21824468.6234  -10785638.06546  -8230125.08361
  19841602.4674   -9692119.78247  -7484755.33161
  23330053.7094    3474108.74844   2819575.85861
  19950639.6474   -8300658.46747  -6399342.22262
 90  7 24 19 55 29.9980000  0  5G 6G12G 9G18G13
  21107391.9824    2466966.58946   2373485.77462
  21805173.7724  -10887044.48946  -8309142.98261
  19837220.9124   -9715170.73047  -7502717.10261
  23339402.9284    3523229.80845   2857851.83961
  19947932.5844   -8314870.14347  -6410416.23062
 90  7 24 19 55 59.9980000  0  5G 6G12G 9G18G13
  21118213.0294    2523835.62246   2417799.22462
  21785924.0224  -10988216.65146  -8387978.32661
  19832942.6544   -9737632.20147  -7520219.53161
  23348789.9364    3572566.76245   2896296.07161
  19945314.6314   -8328643.10447  -6421148.37761
 90  7 24 19 56 29.9980000  0  5G 6G12G 9G18G13
  21129131.7724    2581218.39646   2462512.99962
  21766718.6314  -11089124.47146  -8466607.68061
  19828787.4204   -9759475.43747  -7537240.22261
  23358224.6544    3622133.20445   2934919.10961
  19942778.4044   -8341951.52247  -6431518.55161
 90  7 24 19 56 59.9980000  0  5G 6G12G 9G18G13
  21140144.8114    2639100.67046   2507615.98362
  21747565.8034  -11189777.44046  -8545038.45861
  19824743.6864   -9780711.83647  -7553788.04861
  23367693.7254    3671902.95045   2973700.56161
  19940334.3814   -8354809.21147  -6441537.50462
 90  7 24 19 57 29.9980000  0  5G 6G12G 9G18G13
  21151254.2564    2697470.77946   2553099.10562
  21728458.5614  -11290182.78046  -8623276.28061
  19820820.4364   -9801350.46647  -7569870.08261
  23377198.3734    3721856.78545   3012625.48961
  19937969.3184   -8367228.17347  -6451214.59461
 90  7 24 19 57 59.9980000  0  5G 6G12G 9G18G13
  21162455.4984    2756331.46646   2598964.50261
  21709400.8814  -11390333.44346  -8701315.66161
  19817005.2094   -9821385.90247  -7585482.09761
  23386738.4284    3771992.81945   3051692.36261
  19935689.3654   -8379206.11347  -6460548.02261
 90  7 24 19 58 29.9980000  0  5G 6G12G 9G18G13
  21173749.9434    2815686.60546   2645215.18262
  21690391.6864  -11490221.42246  -8779150.35261
  19813307.4044   -9840811.55147  -7600618.94861
  23396317.6154    3822318.75645   3090907.24261
  19933497.9674   -8390738.46747  -6469534.23961
 90  7 24 19 58 59.9980000  0  5G 6G12G 9G18G13
  21185136.5924    2875532.37946   2691848.16762
  21671434.5844  -11589845.76346  -8856779.60561
  19809726.5064   -9859628.37347  -7615281.38461
  23405928.8344    3872834.01045   3130269.59061
  19931387.3344   -8401829.18747  -6478176.33861
 90  7 24 19 59 29.9980000  0  5G 6G12G 9G18G13
  21196620.3734    2935871.58446   2738865.64662
  21652529.0374  -11689199.27646  -8934197.82861
  19806262.5684   -9877830.79947  -7629465.07661
  23415582.2724    3923547.04345   3169786.06261
  19929359.7094   -8412476.05647  -6486472.57761
 90  7 24 19 59 59.9980000  0  5G 6G12G 9G18G13
  21208192.3184    2996686.58646   2786253.87862
  21633670.3654  -11788295.01846  -9011415.18661
  19802916.2404   -9895433.96447  -7643181.81561
  23425264.3344    3974443.29945   3209445.28761
  19927412.4904   -8422696.68647  -6494436.67861
 90  7 24 20  0 29.9980000  0  5G 6G12G 9G18G13
  21219853.8424    3057967.15946   2834004.88862
  21614858.9594  -11887139.05446  -9088436.42461
  19799676.7014   -9912445.40547  -7656437.46461
  23434982.0844    4025509.56045   3249236.97361
  19925549.9204   -8432501.07047  -6502076.43161
 90  7 24 20  0 59.9980000  0  5G 6G12G 9G18G13
  21231611.1314    3119747.77946   2882145.53962
  21596108.1704  -11985692.30446  -9165231.07161
  19796558.0144   -9928827.57547  -7669202.77761
  23444740.2484    4076778.76345   3289186.84061
  19923772.1394   -8441854.71347  -6509364.95961
 90  7 24 20  1 29.9980000  0  5G 6G12G 9G18G13
  21243456.6704    3181995.15546   2930649.88761
  21577402.4434  -12083983.26346  -9241821.32861
  19793558.3034   -9944611.49847  -7681501.93461
  23454529.4594    4128217.47545   3329268.82261
  19922068.1004   -8450790.86147  -6516328.16961
 90  7 24 20  1 59.9980000  0  5G 6G12G 9G18G13
  21255395.6074    3244734.21746   2979537.37661
  21558753.8114  -12181982.60846  -9318184.36761
  19790673.1864   -9959769.68847  -7693313.49561
  23464349.8734    4179849.21845   3369501.20561
  19920451.2644   -8459284.66047  -6522946.69261
 90  7 24 20  2 29.9980000  0  5G 6G12G 9G18G13
  21267426.6004    3307950.74946   3028796.90461
  21540158.8974  -12279699.62546  -9394327.39561
  19787901.9674   -9974313.22847  -7704646.10161
  23474206.7954    4231655.43145   3409869.51861
  19918918.0454   -8467350.27147  -6529231.54861
 90  7 24 20  2 59.9980000  0  5G 6G12G 9G18G13
  21279545.5144    3371635.17446   3078421.03361
  21521615.7484  -12377139.17946  -9470254.23161
  19785250.5374   -9988249.24047  -7715505.33161
  23484102.7564    4283624.24245   3450364.50361
  19917464.0294   -8474996.80647  -6535189.86261
 90  7 24 20  3 29.9980000  0  5G 6G12G 9G18G13
  21291753.4674    3435795.58446   3128416.05761
  21503130.3504  -12474288.82446  -9545955.16961
  19782716.4044  -10001567.07047  -7725882.85961
  23494021.9594    4335758.94045   3490988.75061
  19916090.5454   -8482216.82847  -6540815.83261
 90  7 24 20  3 59.9980000  0  5G 6G12G 9G18G13
  21304052.1074    3500421.83646   3178774.08161
  21484695.5764  -12571153.81646  -9621434.28761
  19780300.0294  -10014274.07647  -7735784.40861
  23503971.6784    4388044.04245   3531730.23061
  19914793.8504   -8489019.88747  -6546116.90761
 90  7 24 20  4 29.9980000  0  5G 6G12G 9G18G13
  21316438.0294    3565512.34146   3229493.85061
  21466318.3734  -12667731.15946  -9696689.27561
  19778001.0454  -10026369.48447  -7745209.39161
  23513948.6784    4440473.81845   3572584.47361
  19913578.1004   -8495408.23547  -6551094.82061
 90  7 24 20  4 59.9980000  0  5G 6G12G 9G18G13
  21328911.6394    3631064.94946   3280573.70661
  21447997.1154  -12764018.18946  -9771718.03961
  19775810.0614  -10037852.29947  -7754157.02761
  23523955.0294    4493049.11544   3613552.04061
  19912443.3504   -8501383.43247  -6555750.80561
 90  7 24 20  5 29.9980000  0  5G 6G12G 9G18G13
  21341473.8574    3697075.87846   3332010.69261
  21429728.1624  -12860014.00746  -9846519.89261
  19773747.2324  -10048724.13647  -7762628.58261
  23533983.3264    4545765.76343   3654629.80461
  19911380.5924   -8506949.34947  -6560087.86861
 90  7 24 20  5 59.9980000  0  5G 6G12G 9G18G13
  21354124.7954    3763552.93946   3383810.89861
  21411518.5614  -12955705.91346  -9921084.92761
  19771795.3344  -10058974.34747  -7770615.74861
  23544042.8574    4598632.57342   3695824.54361
  19910400.9204   -8512098.13347  -6564099.89461
 90  7 24 20  6 29.9980000  0  4G 6G12G 9G13
  21366861.3814    3830488.65846   3435968.49361
  21393366.1234  -13051096.63246  -9995415.27762
  19769958.4284  -10068608.02547  -7778122.50661
  19909501.4674   -8516837.33047  -6567792.76561
 90  7 24 20  6 59.9980000  0  4G 6G12G 9G13
  21379686.3574    3897879.87746   3488481.02962
  21375271.9594  -13146184.80146 -10069509.85662
  19768240.7874  -10077625.71447  -7785149.26261
  19908677.4984   -8521170.05947  -6571168.91061
 90  7 24 20  7 29.9980000  0  5G 6G12G 9G18G13
  21392601.1784    3965745.75146   3541363.41561
  21357239.0144  -13240946.31046 -10143349.91762
  19766644.8974  -10086005.41246  -7791678.88961
  23574396.7484         -0.99254
  19907934.0294   -8525077.30947  -6574213.50461
 90  7 24 20  7 59.9980000  0  5G 6G12G 9G18G13
  21405600.6314    4034066.97846   3594600.62261
  21339264.4284  -13335395.76746 -10216946.82961
  19765174.9364  -10093764.04047  -7797724.56361
  23584565.4514      53458.44944        -0.36171
  19907264.8574   -8528577.50247  -6576940.92361
 90  7 24 20  8 29.9980000  0  5G 6G12G 9G18G13
  21418688.1074    4102840.61546   3648190.36061
  21321350.8264  -13429530.91046 -10290298.81261
  19763817.7404  -10100901.83647  -7803286.47961
  23594766.4284     107056.97143     41764.51361
  19906676.9364   -8531673.66447  -6579353.50761
 90  7 24 20  8 59.9980000  0  5G 6G12G 9G18G13
  21431862.7404    4172070.35946   3702135.50561
  21303501.0684  -13523343.25646 -10363399.26561
  19762575.2094  -10107412.73047  -7808359.90561
  23604991.9594     160792.93043     83636.47561
  19906164.7874   -8534362.33947  -6581448.56761
 90  7 24 20  9 29.9980000  0  5G 6G12G 9G18G13
  21445122.7724    4241753.20346   3756433.71061
  21285710.0684  -13616831.07346 -10436246.83661
  19761453.0224  -10113297.02747  -7812945.06261
  23615243.7254     214659.75244    125610.43561
  19905731.5764   -8536646.51147  -6583228.42861
 90  7 24 20  9 59.9980000  0  5G 6G12G 9G18G13
  21458466.9514    4311877.65246   3811076.02761
  21267981.1624  -13710001.14146 -10508846.80961
  19760455.5374  -10118563.77247  -7817049.01461
  23625512.2174     268639.63144
  19905370.4364   -8538537.43347  -6584701.85961
 90  7 24 20 10 29.9980000  0  5G 6G12G 9G18G13
  21471897.9904    4382450.61146   3866067.83161
  21250313.8974  -13802841.49646 -10581189.85762
  19759573.8734  -10123203.63747  -7820664.49961
  23635809.3574     322730.38945        -0.09571
  19905087.7254   -8540028.03147  -6585863.35761
 90  7 24 20 10 59.9980000  0  5G 6G12G 9G18G13
  21485412.3184    4453473.47046   3921410.20861
  21232711.0764  -13895345.58446 -10653270.90162
  19758808.4514  -10127212.56246  -7823788.34761
  23646125.2564     376942.28345     42242.72861
  19904882.4984   -8541116.66247  -6586711.63662
 90  7 24 20 11 29.9980000  0  5G 6G12G 9G18G13
  21499013.1624    4524945.20946   3977102.36261
  21215173.2874  -13987509.72846 -10725087.02362
  19758163.5534  -10130589.20346  -7826419.50261
  23656465.7484     431276.54845     84580.86361
  19904748.6704   -8541804.04647  -6587247.24462
 90  7 24 20 11 59.9980000  0  5G 6G12G 9G18G13
  21512697.7564    4596858.39046   4033138.49161
  21197697.6704  -14079336.77746 -10796640.50762
  19757645.7094  -10133338.38146  -7828561.73261
  23666829.1784     485728.49745    127010.72661
  19904694.7794   -8542097.42147
 90  7 24 20 12 29.9980000  0  5G 6G12G 9G18G13
  21526467.7954    4669224.38146   4089527.45061
  21180292.2794  -14170810.13846 -10867918.37262
  19757238.9904  -10135446.22946  -7830204.22061
  23677218.9204     540312.16145    169543.22461
  19904715.7484   -8541985.35247
 90  7 24 20 12 59.9980000  0  5G 6G12G 9G18G13
  21540319.4124    4742011.01346   4146244.19461
  21162946.0224  -14261956.82446 -10938941.69162
  19756957.0924  -10136942.59046  -7831370.22861
  23687618.9124     595000.23145    212157.04861
  19904809.4754   -8541499.72347
 90  7 24 20 13 29.9980000  0  5G 6G12G 9G18G13
  21554253.9824    4815233.59046   4203300.62761
  21145670.0614  -14352756.43546 -11009694.54962
  19756792.6314  -10137809.71946  -7832045.92361
  23698050.5144     649798.01545    254856.42561
  19904971.0924   -8540625.49847        -0.35871
 90  7 24 20 13 59.9980000  0  5G 6G12G 9G18G13
  21568269.3734    4888883.73346   4260690.23261
  21128454.8574  -14443212.45146 -11080179.68762
  19756747.7174  -10138053.42047
  23708501.7404     704694.02845    297632.32461
  19905212.8894   -8539370.87847       977.28461
 90  7 24 20 14 29.9980000  0  5G 6G12G 9G18G13
  21582366.6784    4962974.61646   4318423.27861
  21111312.0844  -14533306.57547 -11150382.83462
  19756821.4594  -10137658.24247
  23718958.4594     759694.33244    340489.49361
  19905526.3114   -8537722.43147      2261.80661
 90  7 24 20 14 59.9980000  0  5G 6G12G 9G18G13
  21596549.0064    5037492.29746   4376488.87961
  21094235.1624  -14623047.62847 -11220310.87461
  19757012.6864  -10136635.64847        -0.09671
  23729443.8424     814779.51244    383412.78161
  19905912.2794   -8535693.31247      3842.94961
 90  7 24 20 15 29.9980000  0  5G 6G12G 9G18G13
  21610808.8344    5112431.26146   4434882.75161
  21077222.1474  -14712436.27247 -11289964.29361
  19757330.4204  -10134988.81247      1283.13761
  23739936.7484     869940.43343    426395.09061
  19906369.2874   -8533289.10847      5716.37061
 90  7 24 20 15 59.9980000  0  4G 6G12G 9G13
  21625151.6154    5187796.26946   4493608.61561
  21060282.2644  -14801462.78746 -11359335.54861
  19757764.1934  -10132710.65847      3058.31461
  19906898.2874   -8530505.27247      7885.60461
 90  7 24 20 16 29.9980000  0  4G 6G12G 9G13
  21639568.3734    5263565.14246   4552649.17361
  21043406.6624  -14890144.13047 -11428437.83361
  19758311.3734  -10129820.86547
  19907497.0844   -8527363.37347
 90  7 24 20 16 59.9980000  0  4G 6G12G 9G13
  21654066.6934    5339751.47846   4612015.01761
  21026600.2954  -14978461.41346 -11497256.43661
  19758980.7174  -10126303.29147
  19908165.6234   -8523849.59547
 90  7 24 20 17 29.9980000  0  4G 6G12G 9G13
  21668648.8654    5416371.76046   4671719.02061
  21009865.7874  -15066393.59346 -11565774.95562
  19759775.1234  -10122139.48747     11295.55861
  19908906.0294   -8519947.04947     16112.82561
 90  7 24 20 17 59.9980000  0  4G 6G12G 9G13
  21683307.5844    5493406.43746   4731745.89761
  20993205.2324  -15153954.95246 -11634004.52561
  19760687.4044  -10117346.46947     15030.36561
  19909720.3344   -8515675.21647     19441.52561
 90  7 24 20 18 29.9980000  0  4G 6G12G 9G13
  21698044.6934    5570856.46446   4792096.43161
  20976614.2324  -15241139.70447 -11701940.63061
  19761716.6394  -10111921.04047     19257.96361
  19910604.4044   -8511032.89147     23058.92261
 90  7 24 20 18 59.9980000  0  4G 6G12G 9G13
  21712858.6864    5648717.77046   4852767.43361
  20960095.8034  -15327946.19847 -11769581.98861
  19762869.9674  -10105864.94947     23976.98361
  19911558.8344   -8506023.39247     26962.43561
 90  7 24 20 19 29.9980000  0  4G 6G12G 9G13
  21727754.0374    5726979.88846   4913750.77361
  20943648.4674  -15414379.80247 -11836932.78161
  19764142.0294  -10099186.39347     29181.03561
  19912579.8814   -8500657.77347     31143.44061
 90  7 24 20 19 59.9980000  0  4G 6G12G 9G13
  21742724.7254    5805649.26946   4975051.44661
  20927272.1154  -15500429.77447 -11903984.64062
  19765533.6314  -10091876.89047     34876.74161
  19913669.2174   -8494928.90647     35607.49961
 90  7 24 20 20 29.9980000  0  4G 6G12G 9G13
  21757768.8504    5884719.82345   5036664.72061
  20910970.0764  -15586096.56847 -11970737.91062
  19767040.6934  -10083939.71047     41061.54161
  19914829.7484   -8488842.33347     40350.28961
 90  7 24 20 20 59.9980000  0  4G 6G12G 9G13
  21772890.7794    5964189.26845   5098588.82761
  20894741.7644  -15671376.85147 -12037190.01662
  19768674.4824  -10075375.10847     47735.24061
  19916052.8734   -8482399.79847     45370.45061
 90  7 24 20 21 29.9980000  0  4G 6G12G 9G13
  21788090.7794    6044060.56445   5160826.05961
  20878590.0684  -15756262.57347 -12103334.66362
  19770421.8114  -10066178.03947     54901.77861
  19917349.1074   -8475598.74147     50669.98061
 90  7 24 20 21 59.9980000  0  4G 6G12G 9G13
  21803370.8424    6124329.78746   5223373.35661
  20862509.9124  -15840752.53747 -12169170.93361
  19772295.6234  -10056350.24847     62559.78161
  19918707.8654   -8468442.35147     56246.38961
 90  7 24 20 22 29.9980000  0  4G 6G12G 9G13
  21818715.0454    6204983.04046   5286219.90761
  20846506.3974  -15924855.40547 -12234705.56462
  19774283.0064  -10045903.30547     70700.24361
  19920134.3504   -8460944.28447     62089.04361
 90  7 24 20 22 59.9980000  0  4G 6G12G 9G13
  21834136.9434    6286027.82146   5349371.54861
  20830578.4824  -16008558.89347 -12299929.00262
  19776391.3034  -10034827.72847     79330.55261
  19921629.9434   -8453096.96447     68203.84761
 90  7 24 20 23 29.9980000  0  4G 6G12G 9G13
  21849636.1154    6367468.04046   5412831.32561
  20814727.5684  -16091853.58447 -12364833.89662
  19778615.2564  -10023117.40246     88455.46561
  19923192.9674   -8444895.86947     74594.31262
 90  7 24 20 23 59.9980000  0  4G 6G12G 9G13
  21865209.6784    6449293.08046   5476590.96061
  20798954.6074  -16174745.03047 -12429424.56662
  19780965.3504  -10010780.80546     98068.38261
  19924815.6864   -8436351.62147     81252.17262
 90  7 24 20 24 29.9980000  0  4G 6G12G 9G13
  21880851.3974    6531506.44446   5540653.17261
  20783259.7564  -16257224.34847 -12493694.10262
  19783431.2794   -9997812.13347    108173.82761
  19926508.8574   -8427459.68347     88180.96162
 90  7 24 20 24 59.9980000  0  4G 6G12G 9G13
  21896568.8574    6614094.81546   5605007.60061
  20767640.0144  -16339299.87947 -12557649.01562
  19786017.9044   -9984222.62847    118763.03561
  19928265.4824   -8418233.85347     95369.92362
 90  7 24 20 25 29.9980000  0  4G 6G12G 9G13
  21912356.6934    6697064.93146   5669659.48161
  20752100.3344  -16420959.29847 -12621279.67162
  19788724.6544   -9970003.58447    129842.78361
  19930085.2724   -8408666.41147    102825.07761
 90  7 24 20 25 59.9980000  0  4G 6G12G 9G13
  21928217.8894    6780419.89146   5734611.24761
  20736643.5374  -16502194.58547 -12684579.84862
  19791549.7724   -9955149.67547    141417.23861
  19931971.9674   -8398754.11647    110548.94561
 90  7 24 20 26 29.9980000  0  4G 6G12G 9G13
  21944151.0684    6864150.18946   5799855.48461
  20721264.3184  -16583009.90847 -12747552.77962
  19794498.7404   -9939668.41446    153480.52561
  19933918.0064   -8388505.33547    118535.00962
 90  7 24 20 26 59.9980000  0  4G 6G12G 9G13
  21960157.9824    6948255.47046   5865391.91161
  20705967.6864  -16663400.47147 -12810194.72162
  19797560.5454   -9923558.26346    166033.86861
  19935936.9594   -8377920.89147    126782.63562
 90  7 24 20 27 29.9980000  0  4G 6G12G 9G13
  21976231.6934    7032734.93046   5931219.90261
  20690751.0454  -16743361.97547 -12872502.34862
  19800746.8504   -9906818.02747    179078.18961
  19938013.8574   -8367001.47747    135291.26961
 90  7 24 20 27 59.9980000  0  4G 6G12G 9G13
  21992381.8184    7117593.02246   5997342.93361
  20675616.7174  -16822884.43647 -12934467.85462
  19804055.7404   -9889441.01347    192618.69161
  19940157.5534   -8355741.23947    144065.48461
 90  7 24 20 28 29.9980000  0  4G 6G12G 9G13
  22008593.8424    7202794.20946   6063733.30461
  20660563.8504  -16901998.49047 -12996115.12262
  19807475.2954   -9871460.86047    206629.16761
  19942357.6234   -8344175.60947    153077.67161
 90  7 24 20 28 59.9980000  0  4G 6G12G 9G13
  22024877.4124    7288361.95946   6130409.30361
  20645590.1234  -16980675.30647 -13057421.67562
  19811017.7094   -9852852.17247    221129.42461
  19944618.9284   -8332280.76647    162346.38062
 90  7 24 20 29 29.9980000  0  4G 6G12G 9G13
  22041230.4754    7374295.87846   6197370.62961
  20630702.6234  -17058909.97947 -13118383.71162
  19814678.1074   -9833613.30447    236120.73061
  19946948.1234   -8320056.95147    171871.42862
 90  7 24 20 29 59.9980000  0  4G 6G12G 9G13
  22057652.5764    7460599.13446   6264619.76361
  20615902.2014  -17136693.95647 -13178994.55662
  19818463.0224   -9813739.08247    251607.10762
  19949335.4284   -8307499.64147    181656.34261
 90  7 24 20 30 29.9980000  0  4G 6G12G 9G13
  22074141.9984    7547253.43146   6332142.41861
  20601182.6154  -17214040.41147 -13239264.47162
  19822362.3184   -9793246.05747    267575.66662
  19951783.8974   -8294627.47347    191686.60962
 90  7 24 20 30 59.9980000  0  4G 6G12G 9G13
  22090701.4754    7634256.87646   6399937.13961
  20586548.0294  -17290946.15747 -13299190.97462
  19826378.4514   -9772133.98847    284026.60461
  19954294.8114   -8281441.96047    201961.02561
 90  7 24 20 31 29.9980000  0  4G 6G12G 9G13
  22107322.8504    7721617.54946   6468010.20961
  20571999.6154  -17367397.86247 -13358763.69062
  19830515.1154   -9750393.15647    300967.47861
  19956864.8264   -8267934.03247    212486.68361
 90  7 24 20 31 59.9980000  0  4G 6G12G 9G13
  22124013.4044    7809328.96246   6536356.58861
  20557538.6704  -17443396.23147 -13417983.14162
  19834772.4204   -9728028.13447    318394.74861
  19959494.6154   -8254109.82047    223258.79761
 90  7 24 20 32 29.9970000  0  4G 6G12G 9G13
  22140772.9074    7897387.70046   6604973.60161
  20543160.1424  -17518934.09547 -13476843.76462
  19839147.8684   -9705038.20447    336308.94261
  19962185.9314   -8239969.89447    234276.92361
 90  7 24 20 32 59.9970000  0  4G 6G12G 9G13
  22157596.5324    7985798.63946   6673865.06861
  20528876.5564  -17594012.61347 -13535346.45762
  19843641.1734   -9681421.14747    354711.81261
  19964935.9544   -8225513.68347    245541.49861
 90  7 24 20 33 29.9970000  0  4G 6G12G 9G13
  22174487.8144    8074554.35346   6743025.17761
  20514676.8844  -17668628.49447 -13593488.64762
  19848255.1894   -9657180.25847    373600.78362
  19967745.3684   -8210745.61047    257049.09462
 90  7 24 20 33 59.9970000  0  4G 6G12G 9G13
  22191440.9854    8163648.37146   6812448.88861
  20500566.1424  -17742782.80047 -13651271.18362
  19852983.8764   -9632320.28146    392972.15161
  19970617.2284   -8195672.06447    268794.70961
 90  7 24 20 34 29.9970000  0  4G 6G12G 9G13
  22208459.7434    8253080.44746   6882136.04561
  20486543.3144  -17816470.32147 -13708689.99762
  19857834.5324   -9606839.54347    412827.23661
  19973542.3844   -8180292.26747    280778.96961
 90  7 24 20 34 59.9970000  0  4G 6G12G 9G13
  22225540.6424    8342845.63346   6952082.75161
  20472609.4934  -17889691.05647 -13765745.05462
  19862798.6574   -9580741.35647    433163.46061
  19976526.6104   -8164610.68547    292998.37861
 90  7 24 20 35 29.9970000  0  4G 6G12G 9G13
  22242682.6574    8432927.65346   7022276.34861
  20458763.5404  -17962455.79747 -13822444.81362
  19867879.3764   -9554040.37447    453969.38361
  19979565.2674   -8148643.21947    305440.56161
 90  7 24 20 35 59.9970000  0  4G 6G12G 9G13
  22259888.2984    8523339.89146   7092727.25061
  20445005.4314  -18034746.13247 -13878774.89562
  19873079.3144   -9526721.52847    475256.75962
  19982658.7824   -8132375.76747    318116.49561
 90  7 24 20 36 29.9970000  0  4G 6G12G 9G13
  22277156.4704    8614076.14946   7163430.62961
  20431341.1184  -18106562.92747 -13934735.99162
  19878395.0174   -9498789.17447    497022.19962
  19985812.7594   -8115813.80647    331021.92362
 90  7 24 20 36 59.9970000  0  4G 6G12G 9G13
  22294484.5094    8705142.09246   7234390.91361
  20417767.0874  -18177895.61147 -13990319.85362
  19883828.5564   -9470235.95847    519271.41461
  19989021.4234   -8098951.10647    344161.69761
 90  7 24 20 37 29.9970000  0  4G 6G12G 9G13
  22311875.8994    8796528.76646   7305601.09261
  20404284.3994  -18248747.44747 -14045529.02762
  19889376.3374   -9441069.16047    541998.75062
  19992286.5014   -8081796.56047    357528.87762
 90  7 24 20 37 59.9970000  0  4G 6G12G 9G13
  22329323.7674    8888225.29445   7377052.72261
  20390892.4314  -18319124.18047 -14100368.00862
  19895043.2354   -9411298.07347    565196.95762
  19995603.9934   -8064360.32747    371115.55161
 90  7 24 20 38 29.9970000  0  4G 6G12G 9G13
  22346834.2744    8980237.74945   7448750.54361
  20377591.6814  -18389014.62347 -14154828.04862
  19900825.0484   -9380914.81947    588872.17862
  19998975.3454   -8046635.69147    384926.96261
 90  7 24 20 38 59.9970000  0  4G 6G12G 9G13
  22364404.0794    9072567.38545   7520695.47861
  20364386.1034  -18458412.47747 -14208904.25162
  19906724.5564   -9349916.87847    613026.37862
  20002405.6964   -8028621.05647    398964.34962
 90  7 24 20 39 29.9970000  0  4G 6G12G 9G13
  22382036.9704    9165220.00945   7592892.12061
  20351276.8604  -18527306.49047 -14262587.85862
  19912741.6494   -9318296.62647    637665.49062
  20005888.4854   -8010309.17747    413233.35462
 90  7 24 20 39 59.9970000  0  4G 6G12G 9G13
  22399724.5644    9258188.87045   7665335.16661
  20338260.4854  -18595698.33547 -14315880.16262
  19918874.9464   -9286059.36947    662785.37961
  20009429.5714   -7991706.33047    427729.08961
 90  7 24 20 40 29.9970000  0  4G 6G12G 9G13
  22417476.3374    9351463.07445   7738016.16661
  20325340.3604  -18663593.65747 -14368785.56262
  19925125.1814   -9253214.23547    688378.94161
  20013021.4314   -7972823.04647    442443.33861
 90  7 24 20 40 59.9970000  0  4G 6G12G 9G13
  22435284.8454    9445046.58045   7810938.14261
  20312517.4544  -18730983.14847 -14421296.81362
  19931493.1344   -9219755.93947    714450.29361
  20016670.6574   -7953654.99747    457379.48661
 90  7 24 20 41 29.9970000  0  4G 6G12G 9G13
  22453151.6894    9538939.17145   7884100.97461
  20299789.9854  -18797861.70947 -14473409.93162
  19937975.3994   -9185683.03647    741000.56461
  20020373.1034   -7934201.44547    472538.10462
 90  7 24 20 41 59.9970000  0  4G 6G12G 9G13
  22471074.6814    9633118.04845   7957486.87361
  20287158.7824  -18864247.01547 -14525138.69462
  19944572.6344   -9151016.75747    768013.20261
  20024124.4394   -7914483.68947    487902.58961
 90  7 24 20 42 29.9970000  0  4G 6G12G 9G13
  22489052.6814    9727600.94145   8031109.67261
  20274622.9234  -18930116.53447 -14576465.54762
  19951287.8294   -9115738.18247    795502.95261
  20027931.0714   -7894484.23747    503486.57761
 90  7 24 20 42 59.9970000  0  4G 6G12G 9G13
  22507083.9704    9822366.12245   8104952.45261
  20262182.8064  -18995486.68347 -14627403.29262
  19958114.3064   -9079867.46747    823454.11761
  20031785.8924   -7874224.61247    519273.29961
 90  7 24 20 43 29.9970000  0  4G 6G12G 9G13
  22525175.5874    9917424.88645   8179023.97461
  20249843.9704  -19060340.97947 -14677939.06162
  19965052.9074   -9043391.86246    851876.62361
  20035693.1104   -7853692.47747    535272.36161
 90  7 24 20 43 59.9970000  0  4G 6G12G 9G13
  22543318.8534   10012768.46345   8253317.42761
  20237597.4464  -19124683.42847 -14728075.98162
  19972108.3684   -9006318.72346    880764.73861
  20039650.3764   -7832895.44547    551477.83162
 90  7 24 20 44 29.9970000  0  4G 6G12G 9G13
  22561515.7514   10108400.84245   8327835.92261
  20225454.5014  -19188504.48947 -14777806.64762
  19979279.9314   -8968642.56946    910122.72361
  20043658.1814   -7811829.07647    567893.17961
 90  7 24 20 44 59.9970000  0  4G 6G12G 9G13
  22579768.0714   10204308.86945   8402569.19961
  20213406.5874  -19251812.36547 -14827137.41962
  19986561.8994   -8930375.55447    939941.13361
  20047715.3994   -7790505.79447    584508.71961
 90  7 24 20 45 29.9970000  0  4G 6G12G 9G13
  22598073.3924   10300498.44745   8477521.87261
  20201458.1264  -19314595.90847 -14876059.61462
  19993955.5014   -8891509.90346    970226.01761
  20051825.0244   -7768919.01747    601329.57662
 90  7 24 20 45 59.9970000  0  4G 6G12G 9G13
  22616430.8604   10396971.73045   8552695.62661
  20189613.3764  -19376848.14147 -14924567.81262
  20001465.9234   -8852042.67846   1000979.65061
  20055983.4934   -7747065.81247    618358.03062
 90  7 24 20 46 29.9970000  0  4G 6G12G 9G13
  22634846.1814   10493730.14745   8628091.49061
  20177870.2044  -19438562.29047 -14972656.71762
  20009091.8214   -8811970.74346   1032204.48261
  20060192.5644   -7724944.16547    635595.66462
 90  7 24 20 46 59.9970000  0  4G 6G12G 9G13
  22653305.5564   10590749.48045   8703690.72761
  20166224.7514  -19499757.23847 -15020341.05662
  20016827.9544   -8771317.14546   1063882.56361
  20064448.7044   -7702577.19847    653024.46362
 90  7 24 20 47 29.9970000  0  4G 6G12G 9G13
  22671817.4074   10688042.34244   8779503.06461
  20154681.7354  -19560415.57447 -15067607.26262
  20024678.7434   -8730067.82346   1096024.83761
  20068754.8374   -7679951.71147    670654.70262
 90  7 24 20 47 59.9970000  0  4G 6G12G 9G13
  22690380.0794   10785585.52445   8855510.49961
  20143238.3214  -19620555.42947 -15114469.44862
  20032635.2594   -8688244.99646   1128614.00161
  20073105.5564   -7657090.37147    688468.72662
 90  7 24 20 48 29.9970000  0  4G 6G12G 9G13
  22708993.5954   10883385.60445   8931718.05961
  20131895.1034  -19680164.84647 -15160918.31462
  20040705.3144   -8645840.57046   1161656.35761
  20077501.2354   -7633985.14047    706472.78862
 90  7 24 20 48 59.9970000  0  4G 6G12G 9G13
  22727658.7284   10981453.32945   9008134.18361
  20120654.0484  -19739228.40347 -15206941.83662
  20048888.6964   -8602842.71646   1195161.12861
  20081946.6104   -7610625.63347    724674.99061
 90  7 24 20 49 29.9970000  0  4G 6G12G 9G13
  22746369.3844   11079776.66645   9084749.47861
  20109517.1034  -19797753.15447 -15252545.50562
  20057181.7044   -8559262.22246   1229119.89761
  20086438.3214   -7587022.28247    743067.19662
 90  7 24 20 49 59.9970000  0  4G 6G12G 9G13
  22765132.0794   11178353.61545   9161562.38261
  20098483.3684  -19855736.06147 -15297726.95662
  20065586.0954   -8515100.10346   1263531.88761
  20090975.5244   -7563176.30547    761648.46662
 90  7 24 20 50 29.9970000  0  4G 6G12G 9G13
  22783931.1184   11277172.74245   9238563.99961
  20087551.4854  -19913183.52247 -15342491.18562
  20074097.5174   -8470366.38746   1298389.26361
  20095558.4544   -7539098.75647    780410.18362
 90  7 24 20 50 59.9970000  0  4G 6G12G 9G13
  22802776.9784   11376231.18144   9315752.10861
  20076720.9934  -19970093.35647 -15386836.48362
  20082719.2044   -8425062.98247   1333690.56261
  20100183.2594   -7514791.09347    799351.20961
 90  7 24 20 51 29.9970000  0  4G 6G12G 9G13
  22821680.7124   11475542.01544   9393136.87461
  20065997.1654  -20026447.43547 -15430748.72761
  20091451.3764   -8379175.40647   1369447.05261
  20104855.3294   -7490239.83747    818482.04761
 90  7 24 20 51 59.9970000  0  4G 6G12G 9G13
  22840629.1104   11575109.32344   9470721.49061
  20055381.1034  -20082236.79647 -15474220.92962
  20100296.8534   -8332698.82647   1405662.52161
  20109574.8144   -7465440.47847    837806.20861
 90  7 24 20 52 29.9970000  0  4G 6G12G 9G13
  22859620.0094   11674918.06244   9548494.20761
  20044870.8454  -20137471.46547 -15517260.90862
  20109249.7284   -8285646.97047   1442326.23861
  20114338.2044   -7440406.64347    857313.07261
 90  7 24 20 52 59.9970000  0  4G 6G12G 9G13
  22878659.1264   11774960.17144   9626448.77761
  20034463.6654  -20192154.93547 -15559871.38361
  20118312.2044   -8238027.08547   1479432.58461
  20119144.9544   -7415145.32647    876997.20161
 90  7 24 20 53 29.9970000  0  4G 6G12G 9G13
  22897737.5874   11875231.79843   9704582.15761
  20024164.0014  -20246286.28747 -15602051.63662
  20127480.3144   -8189841.69947   1516979.58061
  20123995.0404   -7389659.67447    896856.13861
 90  7 24 20 53 59.9970000  0  4G 6G12G 9G13
  22916860.3064   11975744.30643   9782903.24561
  20013971.0954  -20299849.02747 -15643788.83162
  20136759.4624   -8141078.61047   1554976.74261
  20128890.2594   -7363937.67647    916899.24061
 90  7 24 20 54 29.9970000  0  4G 6G12G 9G13
  22936026.7514   12076493.85143   9861409.07661
  20003887.7594  -20352841.80147 -15685081.88362
  20146148.0954   -8091740.49847   1593421.96261
  20133829.8374   -7337982.38747    937124.11761
 90  7 24 20 54 59.9970000  0  4G 6G12G 9G13
  22955251.1104   12177464.41843   9940087.08861
  19993908.7984  -20405275.97547 -15725939.66562
  20155643.0174   -8041842.40047   1632303.53461
  20138809.6104   -7311808.63547    957519.22861
 90  7 24 20 55 29.9970000  0  4G 6G12G 9G13
  22974503.9624   12278646.64043  10018930.01361
  19984036.7674  -20457155.98947 -15766365.63962
  20165243.5874   -7991392.71647   1671614.93062
  20143830.5954   -7285425.02347    978077.87861
 90  7 24 20 55 59.9970000  0  4G 6G12G 9G13
  22993799.4314   12380036.97243  10097935.13061
  19974268.4854  -20508480.61947 -15806358.83662
  20174948.8684   -7940394.12747   1711354.03162
  20148889.7284   -7258834.10147    998798.06261
 90  7 24 20 56 29.9970000  0  4G 6G12G 9G13
  23013132.1184   12481642.08643  10177107.59361
  19964612.5954  -20559238.18847 -15845910.16962
  20184758.8534   -7888839.05747   1751526.75262
  20153991.7124   -7232028.36247   1019685.63562
 90  7 24 20 56 59.9970000  0  4G 6G12G 9G13
  23032509.5564   12583455.80943  10256442.61061
  19955060.9154  -20609430.47347 -15885021.02962
  20194675.3924   -7836732.55347   1792129.16661
  20159133.1184   -7205013.54547   1040736.12361
 90  7 24 20 57 29.9970000  0  4G 6G12G 9G13
  23051928.9234   12685481.98343  10335943.12961
  19945618.6034  -20659048.86647 -15923684.68862
  20204695.8844   -7784070.21147   1833164.69661
  20164314.5484   -7177784.20247   1061953.77761
 90  7 24 20 57 59.9970000  0  4G 6G12G 9G13
  23071378.1104   12787708.81543  10415600.05761
  19936283.4854  -20708100.27547 -15961906.54162
  20214821.2824   -7730862.67647   1874625.05962
  20169535.2744   -7150351.20847   1083330.12961
 90  7 24 20 58 29.9970000  0  4G 6G12G 9G13
  23090874.2984   12890135.22443  10495412.48161
  19927057.8604  -20756580.73547 -15999683.50162
  20225050.1734   -7677110.26047   1916510.00262
  20174793.3534   -7122715.19847   1104864.66661
 90  7 24 20 58 59.9970000  0  4G 6G12G 9G13
  23110400.9464   12992760.98144  10575380.23161
  19917941.8064  -20804485.97047 -16037012.23262
  20235382.7824   -7622812.43746   1958819.93962
  20180091.0094   -7094875.17947   1126558.16962
 90  7 24 20 59 29.9970000  0  4G 6G12G 9G13
  23129970.3994   13095576.11444  10655495.53461
  19908932.8144  -20851821.55647 -16073897.09162
  20245815.8294   -7567978.37547   2001547.71962
  20185425.5094   -7066840.41247   1148403.43362
 90  7 24 20 59 59.9970000  0  4G 6G12G 9G13
  23149567.9234   13198586.01143  10735762.61861
  19900036.2984  -20898577.03747 -16110329.91062
  20256354.9314   -7512601.66946   2044698.32162
  20190798.7124   -7038603.76147   1170405.99761
 90  7 24 21  0 29.9970000  0  4G 6G12G 9G13
  23169201.6894   13301759.89743  10816157.44661
  19891244.7204  -20944778.85647 -16146331.30662
  20266989.0404   -7456712.47546   2088248.28261
  20196205.4154   -7010195.77647   1192542.07961
 90  7 24 21  0 59.9970000  0  4G 6G12G 9G13
  23188867.3994   13405115.80143  10896694.12761
  19882563.9704  -20990404.19847 -16181883.49862
  20277727.9624   -7400291.91746   2132212.28761
  20201646.7904   -6981597.01747   1214826.80861
 90  7 24 21  1 29.9970000  0  4G 6G12G 9G13
  23208570.3924   13508651.06643  10977370.52661
  19873991.8924  -21035451.16947 -16216985.01562
  20288565.4934   -7343341.93746   2176588.84161
  20207125.6344   -6952809.04347   1237258.97961
 90  7 24 21  1 59.9970000  0  4G 6G12G 9G13
  23228310.2044   13612371.22443  11058191.06461
  19865529.4394  -21079909.76947 -16251628.06662
  20299502.6654   -7285856.21646   2221382.84161
  20212640.4854   -6923826.45747   1259842.79161
 90  7 24 21  2 29.9970000  0  4G 6G12G 9G13
  23248076.6894   13716264.09243  11139146.12561
  19857179.8844  -21123787.25047 -16285818.29962
  20310542.6894   -7227846.37846   2266585.24461
  20218190.1494   -6894659.59547   1282570.21761
 90  7 24 21  2 59.9970000  0  4G 6G12G 9G13
  23267881.8534   13820319.94843  11220228.19261
  19848941.1964  -21167089.11647 -16319560.00562
  20321680.4704   -7169321.47346   2312188.99761
  20223775.5484   -6865316.86347   1305434.65761
 90  7 24 21  3 29.9970000  0  4G 6G12G 9G13
  23287715.3534   13924551.45043  11301447.11561
  19840814.0644  -21209798.10847 -16352839.73462
  20332916.5714   -7110268.21146   2358204.45761
  20229395.3294   -6835784.93947   1328446.53061
 90  7 24 21  3 59.9970000  0  4G 6G12G 9G13
  23307581.9784   14028953.43243  11382798.88361
  19832799.2354  -21251914.68447 -16385657.83862
  20344256.6184   -7050690.83146   2404628.32361
  20235049.8214   -6806067.89147   1351602.64561
 90  7 24 21  4 29.9970000  0  4G 6G12G 9G13
  23327485.2514   14133527.24243  11464284.50761
  19824897.9464  -21293433.06147 -16418009.80562
  20355691.8844   -6990587.48747   2451462.02661
  20240739.6424   -6776163.10347   1374905.06761
 90  7 24 21  4 59.9970000  0  4G 6G12G 9G13
  23347416.2514   14238265.00843  11545897.93961
  19817110.6424  -21334356.91647 -16449898.51062
  20367227.4314   -6929965.44846   2498699.90161
  20246464.8604   -6746077.96147   1398348.01461
 90  7 24 21  5 29.9970000  0  4G 6G12G 9G13
  23367379.0094   14343168.82443  11627640.74161
  19809437.0014  -21374679.82347 -16481318.95762
  20378862.3924   -6868822.08046   2546344.00561
  20252226.2354   -6715809.08047   1421934.13061
 90  7 24 21  5 59.9970000  0  4G 6G12G 9G13
  23387365.8764   14448230.40642  11709506.42361
  19801877.5874  -21414405.42247 -16512273.96162
  20390596.0404   -6807164.97246   2594388.44461
  20258017.8454   -6685363.59847   1445657.87861
 90  7 24 21  6 29.9970000  0  4G 6G12G 9G13
  23407398.7354   14553470.59543  11791511.32561
  19794437.3214  -21453508.73547 -16542744.06962
  20402431.1734   -6744972.82246   2642849.79361
  20263849.6494   -6654719.52647   1469536.36561
 90  7 24 21  6 59.9970000  0  4G 6G12G 9G13
  23427451.3534   14658867.12143  11873638.05061
  19787113.0244  -21492007.35347 -16572742.98762
  20414363.9234   -6682267.08247   2691711.32961
  20269713.5404   -6623898.03147   1493553.10061
 90  7 24 21  7 29.9970000  0  4G 6G12G 9G13
  23447541.0484   14764415.71144  11955883.25361
  19779900.0174  -21529901.58147 -16602270.95262
  20426393.0564   -6619051.82447   2740969.89361
  20275613.9154   -6592902.64247   1517705.34061
 90  7 24 21  7 59.9970000  0  4G 6G12G 9G13
  23467658.1034   14870112.63444  12038244.03061
  19772804.6654  -21567190.53547 -16631327.27362
  20438518.7204   -6555330.15146   2790623.06561
  20281543.8374   -6561735.51547   1541991.37861
 90  7 24 21  8 29.9970000  0  4G 6G12G 9G13
  23487796.0404   14975956.90444  12120719.61661
  19765823.7124  -21603870.88547 -16659909.35862
  20450741.5644   -6491102.50847   2840670.50361
  20287507.3374   -6530396.72947   1566411.18361
 90  7 24 21  8 59.9970000  0  4G 6G12G 9G13
  23507967.2984   15081943.01843  12203305.69561
  19758959.3764  -21639943.81047 -16688018.12962
  20463058.5484   -6426374.04647   2891108.18761
  20293502.1894   -6498890.50547   1590961.47161
 90  7 24 21  9 29.9970000  0  4G 6G12G 9G13
  23528160.2824   15188073.08743  12286003.98361
  19752212.7674  -21675403.06447 -16715648.71862
  20475471.5564   -6361142.17347   2941938.14061
  20299530.1894   -6467214.12247   1615644.35161
 90  7 24 21  9 59.9970000  0  4G 6G12G 9G13
  23548382.3764   15294336.97344  12368806.55761
  19745581.1184  -21710254.52647 -16742805.69762
  20487977.8294   -6295416.46747   2993152.89461
  20305589.4154   -6435376.09247   1640453.17961
 90  7 24 21 10 29.9970000  0  4G 6G12G 9G13
  23568627.1184   15400721.61144  12451703.19361
  19739061.5244  -21744507.12947 -16769496.03062
  20500578.5874   -6229209.56547   3044742.60161
  20311677.2124   -6403388.72547   1665378.36861
 90  7 24 21 10 59.9970000  0  4G 6G12G 9G13
  23588903.3764   15507244.19844  12534707.30061
  19732663.1574  -21778139.60847 -16795703.15162
  20513271.1814   -6162503.85646   3096721.00061
  20317796.2594   -6371233.97347   1690433.99661
 90  7 24 21 11 29.9970000  0  3G12G 9G13
  19726376.7284  -21811163.69047 -16821436.20562
  20526056.9704   -6095315.09746   3149075.79661
  20323943.6034   -6338926.43447   1715608.67561
 90  7 24 21 11 59.9970000  0  3G12G 9G13
  19720209.5874  -21843574.37347 -16846691.27562
  20538934.0564   -6027641.58846   3201808.32061
  20330121.5714   -6306463.23147   1740904.65661
 90  7 24 21 12 29.9970000  0  3G12G 9G13
  19714157.3064  -21875368.20147 -16871465.68862
  20551903.0404   -5959483.99346   3254918.03861
  20336325.8844   -6273844.06447   1766322.16161
 90  7 24 21 12 59.9970000  0  3G12G 9G13
  19708227.0714  -21906538.45147 -16895754.20062
  20564969.3684   -5890839.07946   3308407.50861
  20342564.9394   -6241065.30447   1791864.03061
 90  7 24 21 13 29.9970000  0  3G12G 9G13
  19702414.7434  -21937087.90247 -16919558.96362
  20578123.3844   -5821713.37547   3362271.61262
  20348832.7904   -6208133.28347   1817525.32061
 90  7 24 21 13 59.9970000  0  3G12G 9G13
  19696719.3294  -21967020.87747 -16942883.37062
  20591365.7354   -5752114.73446   3416504.22461
  20355127.6734   -6175054.05447   1843301.31961
 90  7 24 21 14 29.9970000  0  3G12G 9G13
  19691141.7124  -21996326.57747 -16965718.97962
  20604700.3144   -5682035.98346   3471110.96062
  20361453.3214   -6141819.83347   1869198.09461
 90  7 24 21 14 59.9970000  0  3G12G 9G13
  19685683.5644  -22025015.00147 -16988073.60362
  20618125.6424   -5611491.25346   3526080.78961
  20367803.8454   -6108444.01547   1895205.19361
 90  7 24 21 15 29.9970000  0  3G12G 9G13
  19680343.0244  -22053079.32447 -17009941.91662
  20631639.0094   -5540476.86846   3581416.59261
  20374180.2284   -6074921.77547   1921326.40761
 90  7 24 21 15 59.9970000  0  3G12G 9G13
  19675121.4704  -22080506.85247 -17031314.02162
  20645244.3604   -5468983.98446   3637125.24761
  20380591.7284   -6041243.29447   1947569.36361
 90  7 24 21 16 29.9970000  0  3G12G 9G13
  19670023.1424  -22107307.35647 -17052197.54862
  20658938.0014   -5397026.20346   3693196.14561
  20387026.8604   -6007420.90547   1973924.44361
 90  7 24 21 16 59.9970000  0  3G12G 9G13
  19665043.1104  -22133478.65947 -17072590.77561
  20672721.8294   -5324604.31647   3749628.69061
  20393490.3294   -5973455.00347   2000391.37061
 90  7 24 21 17 29.9970000  0  3G12G 9G13
  19660181.0014  -22159028.36147 -17092499.65462
  20686586.5244   -5251730.02546   3806413.75061
  20399979.0644   -5939355.95247   2026962.03261
 90  7 24 21 17 59.9970000  0  3G12G 9G13
  19655437.2904  -22183959.15047 -17111926.24362
  20700538.5564   -5178409.48146   3863546.55161
  20406492.7514   -5905128.75547   2053632.55461
 90  7 24 21 18 29.9960000  0  3G12G 9G13
  19650812.3714  -22208263.17147 -17130864.45262
  20714577.5744   -5104641.88546   3921027.69961
  20413031.1524   -5870769.97847   2080405.61661
 90  7 24 21 18 59.9960000  0  3G12G 9G13
  19646305.8874  -22231953.64847 -17149324.57361
  20728697.9184   -5030437.30346   3978849.35261
  20419591.5664   -5836291.69447   2107271.78061
 90  7 24 21 19 29.9960000  0  3G12G 9G13
  19641914.3324  -22255023.46447 -17167301.05662
  20742901.4264   -4955795.27846   4037011.88761
  20426176.0434   -5801690.94347   2134233.38861
 90  7 24 21 19 59.9960000  0  3G12G 9G13
  19637645.4884  -22277460.42447 -17184784.40962
  20757190.2624   -4880707.28446   4095521.91761
  20432786.3324   -5766957.72647   2161298.22361
 90  7 24 21 20 29.9960000  0  3G12G 9G13
  19633493.0744  -22299266.64347 -17201776.28362
  20771563.0044   -4805178.90946   4154375.09661
  20439420.2464   -5732096.33247   2188462.92761
 90  7 24 21 20 59.9960000  0  3G12G 9G13
  19629466.8484  -22320434.48547 -17218270.71262
  20786020.0204   -4729205.48546   4213575.06961
  20446078.9884   -5697101.48847   2215731.60361
 90  7 24 21 21 29.9960000  0  3G12G 9G13
  19625558.7934  -22340971.57147 -17234273.64362
  20800560.8954   -4652798.85846   4273112.59961
  20452762.7234   -5661983.46447   2243096.27161
 90  7 24 21 21 59.9960000  0  3G12G 9G13
  19621770.5354  -22360875.08947 -17249782.89462
  20815183.8244   -4575959.30046   4332987.48261
  20459468.3634   -5626741.43847   2270557.56961
 90  7 24 21 22 29.9960000  0  3G12G 9G13
  19618104.0744  -22380146.12547 -17264799.29862
  20829886.3484   -4498691.70146   4393195.90562
  20466198.2624   -5591378.97747   2298112.70661
 90  7 24 21 22 59.9960000  0  3G12G 9G13
  19614556.8164  -22398781.64647 -17279320.49962
  20844671.2234   -4420996.18146   4453737.77262
  20472951.0354   -5555894.94447   2325762.58361
 90  7 24 21 23 29.9960000  0  3G12G 9G13
  19611131.8794  -22416788.18247 -17293351.58163
  20859537.0594   -4342882.84846   4514605.19461
  20479723.5354   -5520298.12047   2353500.34361
 90  7 24 21 23 59.9960000  0  3G12G 9G13
  19607825.5274  -22434154.92747 -17306884.12763
  20874480.7074   -4264344.18646   4575804.05161
  20486522.3404   -5484579.58547   2381332.95061
 90  7 24 21 24 29.9960000  0  3G12G 9G13
  19604645.6764  -22450874.55547 -17319912.42262
  20889508.1294   -4185376.28346   4637337.37461
  20493341.1064   -5448734.10147   2409264.46261
 90  7 24 21 24 59.9960000  0  3G12G 9G13
  19601580.6454  -22466977.73947 -17332460.37762
  20904610.5744   -4106013.16746   4699178.65661
  20500181.8794   -5412794.37747   2437269.42461
 90  7 24 21 25 29.9960000  0  3G12G 9G13
  19598636.7934  -22482447.77847 -17344514.97361
  20919791.7314   -4026241.11846   4761338.57261
  20507041.2854   -5376745.24247   2465359.62161
 90  7 24 21 25 59.9960000  0  4G20G12G 9G13
  23117780.1914         -0.60753
  19595812.2774  -22497293.30447 -17356082.93162
  20935047.5984   -3946072.69646   4823807.37761
  20513918.9184   -5340598.06847   2493526.24361
 90  7 24 21 26 29.9960000  0  4G20G12G 9G13
  23096489.7154    -111857.77942
  19593105.1914  -22511515.79547 -17367165.41262
  20950375.9184   -3865512.22946   4886581.65761
  20520817.0744   -5304355.64047   2521767.07861
 90  7 24 21 26 59.9960000  0  4G20G12G 9G13
  23075202.2774    -223722.08143
  19590520.5204  -22525100.85747 -17377751.19262
  20965784.2384   -3784548.54146   4949670.14361
  20527732.4734   -5268005.19447   2550092.07261
 90  7 24 21 27 29.9960000  0  4G20G12G 9G13
  23053916.8714    -335602.10844
  19588055.9494  -22538053.59147 -17387844.25062
  20981267.1214   -3703189.97446   5013066.30261
  20534670.2704   -5231553.75047   2578495.75261
 90  7 24 21 27 59.9960000  0  4G20G12G 9G13
  23032629.0124    -447470.58844        -0.19971
  19585715.6604  -22550350.31047 -17397426.12762
  20996826.1374   -3621416.21646   5076785.99561
  20541628.7854   -5194979.60247   2606995.07061
 90  7 24 21 28 29.9960000  0  4G20G12G 9G13
  23011335.0274    -559356.60543    -87183.93561
  19583493.6454  -22562021.29847 -17406520.41762
  21012458.9884   -3539260.77246   5140803.10961
  20548605.7774   -5158314.48647   2635565.26761
 90  7 24 21 28 59.9960000  0  4G20G12G 9G13
  22990043.9574    -671249.65243   -174373.18161
  19581393.4734  -22573061.72147 -17415123.37161
  21028168.0904   -3456722.10446   5205118.82761
  20555601.6524   -5121555.34747   2664208.73061
 90  7 24 21 29 29.9960000  0  4G20G12G 9G13
  22968750.0044    -783134.08543   -261555.71661
  19579414.6374  -22583460.89047 -17423226.63962
  21043949.4494   -3373792.56246   5269739.11961
  20562616.2704   -5084693.10347   2692932.52361
 90  7 24 21 29 59.9960000  0  4G20G12G 9G13
  22947464.0824    -895010.39344   -348731.95061
  19577557.7154  -22593223.02347 -17430833.50962
  21059802.8404   -3290479.50246   5334658.25461
  20569649.4814   -5047733.67147   2721732.06561
 90  7 24 21 30 29.9960000  0  4G20G12G 9G13
  22926172.5824   -1006889.32843   -435910.17261
  19575819.8794  -22602359.02647 -17437952.48262
  21075726.7384   -3206796.88946   5399865.35961
  20576699.3954   -5010689.28747   2750597.78261
 90  7 24 21 30 59.9960000  0  4G20G12G 9G13
  22904886.6134   -1118756.22443   -523079.10861
  19574201.5824  -22610855.94147 -17444573.46862
  21091721.0984   -3122734.88846   5465368.09661
  20583767.0274   -4973548.82347   2779538.37661
 90  7 24 21 31 29.9960000  0  4G20G12G 9G13
  22883601.7934   -1230605.18642   -610233.98361
  19572708.5594  -22618707.81347 -17450691.82462
  21107791.3954   -3038290.94846   5531168.43161
  20590854.0514   -4936307.51947   2808557.54961
 90  7 24 21 31 59.9960000  0  4G20G12G 9G13
  22862315.9654   -1342441.75742   -697379.21461
  19571334.3484  -22625921.93447 -17456313.23462
  21123933.0124   -2953475.23946   5597258.46161
  20597957.3714   -4898973.57747   2837648.91161
 90  7 24 21 32 29.9960000  0  4G20G12G 9G13
  22841030.4494   -1454297.92543   -784539.71561
  19570077.9574  -22632528.02847 -17461460.85362
  21140135.6214   -2868320.52346   5663612.66361
  20605076.3094   -4861578.78347   2866787.69761
 90  7 24 21 32 59.9960000  0  4G20G12G 9G13
  22819751.7074   -1566130.22243   -871681.60861
  19568944.4494  -22638480.31947 -17466099.02962
  21156414.3634   -2782784.29646   5730264.12661
  20612209.9414   -4824078.84047   2896008.39661
 90  7 24 21 33 29.9960000  0  4G20G12G 9G13
  22798467.0984   -1677944.68243   -958809.63361
  19567935.6134  -22643784.40147 -17470232.10062
  21172762.7544   -2696874.89446   5797206.37261
  20619365.2314   -4786480.72347   2925305.61461
 90  7 24 21 33 59.9960000  0  4G20G12G 9G13
  22777198.5354   -1789758.47544  -1045937.10761
  19567048.0664  -22648455.36247 -17473871.82662
  21189177.4574   -2610610.00446   5864425.63061
  20626534.6214   -4748800.31547   2954666.95161
 90  7 24 21 34 29.9960000  0  4G20G12G 9G13
  22755914.9104   -1901567.20844  -1133060.66161
  19566277.6524  -22652490.87247 -17477016.40462
  21205662.0744   -2523990.68146   5931921.06561
  20633721.7464   -4711036.57147   2984093.21961
 90  7 24 21 34 59.9960000  0  4G20G12G 9G13
  22734642.6524   -2013369.23845  -1220178.97761
  19565630.2934  -22655896.35047 -17479670.04262
  21222210.4344   -2437025.15646   5999686.27161
  20640921.4414   -4673196.25947   3013579.15661
 90  7 24 21 35 29.9960000  0  4G20G12G 9G13
  22713374.1684   -2125147.72445  -1307278.93061
  19565103.4184  -22658661.10747 -17481824.41862
  21238826.3244   -2349705.78146   6067727.20061
  20648140.0434   -4635269.52347   3043132.44261
 90  7 24 21 35 59.9960000  0  4G20G12G 9G13
  22692109.7234   -2236902.78445  -1394360.65261
  19564698.4024  -22660789.19047 -17483482.68062
  21255508.3484   -2262039.59646   6136038.36761
  20655371.8564   -4597261.73947   3072748.85761
 90  7 24 21 36 29.9960000  0  5G20G12G 9G 3G13
  22670845.3634   -2348623.58745  -1481415.67161
  19564416.4884  -22662274.15347 -17484639.81762
  21272258.0984   -2174023.16646   6204622.44661
  23618614.6994         -0.42355
  20662621.5664   -4559167.94647   3102432.31361
 90  7 24 21 36 59.9960000  0  5G20G12G 9G 3G13
  22649594.0204   -2460315.53545  -1568448.20961
  19564253.6604  -22663129.98547 -17485306.72262
  21289070.1064   -2085673.11146   6273466.49261
  23602538.4964     -84471.88144
  20669885.5664   -4521002.51847   3132171.58561
 90  7 24 21 37 29.9960000  0  5G20G12G 9G 3G13
  22628344.0514   -2571982.17045  -1655461.04561
  19564211.3094  -22663361.17847
  21305947.2934   -1996996.95846   6342564.64061
  23586486.1134    -168793.55043
  20677158.6604   -4482771.32047   3161962.10861
 90  7 24 21 37 59.9960000  0  5G20G12G 9G 3G13
  22607098.4264   -2683626.11245  -1742456.16561
  19564285.0824  -22662973.43647
  21322883.7384   -1908002.98746   6411910.44161
  23570472.9884    -252971.57144
  20684446.1214   -4444480.95847   3191798.74661
 90  7 24 21 38 29.9960000  0  5G20G12G 9G 3G13
  22585861.1604   -2795236.91445  -1829425.48661
  19564476.3324  -22661955.95347        -0.48672
  21339877.2314   -1818683.39046   6481509.97261
  23554483.1684    -336994.65544        -0.15171
  20691746.2854   -4406121.66847   3221689.07461
 90  7 24 21 38 59.9960000  0  5G20G12G 9G 3G13
  22564629.4964   -2906809.65045  -1916365.15161
  19564792.7934  -22660303.45647      1287.15162
  21356934.8484   -1729035.25146   6551365.51161
  23538518.6764    -420857.44144    -65347.60161
  20699057.5824   -4367688.24547   3251637.18561
 90  7 24 21 39 29.9960000  0  5G20G12G 9G 3G13
  22543400.8564   -3018352.75945  -2003281.72961
  19565226.7384  -22658017.89747      3068.08162
  21374059.4344   -1639063.24946   6621473.41061
  23522598.5664    -504561.30943   -130571.21261
  20706385.8244   -4329184.16647   3281640.34461
 90  7 24 21 39 59.9960000  0  5G20G12G 9G 3G13
  22522178.6454   -3129889.26345  -2090193.16661
  19565779.5354  -22655118.16647      5327.58362
  21391236.1684   -1548789.03446   6691816.80561
  23506693.1134    -588125.33642   -195685.83361
  20713720.5824   -4290628.87147   3311683.41261
 90  7 24 21 40 29.9960000  0  5G20G12G 9G 3G13
  22500958.1524   -3241410.67545  -2177092.80461
  19566449.1764  -22651597.84547      8070.66462
  21408472.2934   -1458209.09346   6762398.41661
  23490820.7234    -671542.42143   -260685.93361
  20721071.1374   -4252016.70547   3341770.78861
 90  7 24 21 40 59.9960000  0  5G20G12G 9G 3G13
  22479738.4024   -3352898.61745  -2263966.39461
  19567240.4734  -22647440.05347     11310.47862
  21425771.8244   -1367308.82846   6833229.63661
  23474976.1374    -754795.95942   -325558.65561
  20728430.9574   -4213331.38347   3371915.15861
 90  7 24 21 41 29.9960000  0  5G20G12G 9G 3G13
  22458528.9884   -3464362.48345  -2350821.22661
  19568150.5664  -22642656.85847     15037.60962
  21443127.0904   -1276103.16846   6904298.83261
  23459159.8164    -837897.47043   -390312.86061
  20735805.8244   -4174586.17947   3402106.20661
 90  7 24 21 41 59.9960000  0  5G20G12G 9G 3G13
  22437319.7854   -3575806.61145  -2437660.67761
  19569177.6604  -22637260.57247     19242.47462
  21460539.0744   -1184607.39146   6975594.09161
  23443377.3564    -920859.33442   -454958.35561
  20743186.8484   -4135793.21547   3432334.46561
 90  7 24 21 42 29.9960000  0  5G20G12G 9G 3G13
  22416121.7854   -3687214.02445  -2524471.48861
  19570321.8794  -22631242.21247     23932.07162
  21478005.3324   -1092814.75546   7047120.65461
  23427618.1374   -1003671.90342   -519487.43461
  20750580.0354   -4096944.54647   3462606.11461
 90  7 24 21 42 59.9960000  0  4G20G12G 9G13
  22394933.1294   -3798560.21545  -2611234.63161
  19571589.0434  -22624583.06047     29120.98962
  21495533.8794   -1000709.07446   7118891.14361
  20757985.7704   -4058021.90247   3492935.41761
 90  7 24 21 43 29.9960000  0  4G20G12G 9G13
  22373755.8794   -3909853.98445  -2697956.88961
  19572976.1914  -22617299.59847     34796.38162
  21513115.4734    -908309.50546   7190890.64461
  20765403.0824   -4019042.05247   3523309.30161
 90  7 24 21 43 59.9960000  0  5G20G12G 9G 3G13
  22352586.2854   -4021089.86345  -2784634.04561
  19574480.2544  -22609393.26847     40957.12762
  21530756.3484    -815619.73646   7263116.27261
  23380522.1454         -0.52454
  20772831.8404   -3980007.32847   3553725.94661
 90  7 24 21 44 29.9960000  0  5G20G12G 9G 3G13
  22331432.3014   -4132280.05545  -2871275.59861
  19576102.4024  -22600873.81247     47595.62562
  21548447.4814    -722652.39846   7335558.17361
  23364881.8874     -82199.16244
  20780268.4024   -3940928.15347   3584177.22261
 90  7 24 21 44 59.9960000  0  5G20G12G 9G 3G13
  22310281.9574   -4243404.27645  -2957865.73961
  19577843.0124  -22591722.56947     54726.43962
  21566193.7624    -629390.60946   7408229.50961
  23349275.3484    -164236.59445
  20787716.4654   -3901785.55747   3614677.92861
 90  7 24 21 45 29.9960000  0  5G20G12G 9G 3G13
  22289142.4814   -4354482.47545  -3044420.03061
  19579702.0904  -22581954.26247     62338.07862
  21583993.2854    -535851.95946   7481116.59661
  23333682.9104    -246127.14943
  20795175.1374   -3862594.45947   3645216.42161
 90  7 24 21 45 59.9960000  0  5G20G12G 9G 3G13
  22268010.8874   -4465520.40045  -3130942.92861
  19581678.3484  -22571566.82147     70432.15163
  21601846.4184    -442036.80446   7554219.14261
  23318133.4814    -327868.30844
  20802641.5904   -3823353.46447   3675793.78361
 90  7 24 21 46 29.9960000  0  5G20G12G 9G 3G13
  22246890.6684   -4576525.63745  -3217440.37161
  19583772.6134  -22560563.00247     79006.52362
  21619748.6064    -347950.26846   7627533.14161
  23302606.4814    -409462.41145        -0.29271
  20810117.9494   -3784065.47247   3706407.78861
 90  7 24 21 46 59.9960000  0  5G20G12G 9G 3G13
  22225771.6134   -4687484.96045  -3303902.05461
  19585984.8164  -22548936.29247     88066.26563
  21637706.8094    -253587.92046   7701062.05761
  23287110.8404    -490902.18245    -63459.68361
  20817606.5204   -3744723.92847   3737063.50961
 90  7 24 21 47 29.9960000  0  5G20G12G 9G 3G13
  22204668.1294   -4798396.20245  -3390326.25961
  19588315.1684  -22536690.99447     97608.01563
  21655713.5044    -158956.49546   7774800.63761
  23271638.4654    -572191.51345   -126801.85961
  20825100.3164   -3705333.55547   3767757.27461
 90  7 24 21 47 59.9960000  0  5G20G12G 9G 3G13
  22183576.2624   -4909236.89645  -3476695.49661
  19590765.3324  -22523818.19947    107638.72563
  21673778.0354     -64049.66346   7848753.81461
  23256198.5824    -653320.99844   -190019.49561
  20832606.1454   -3665885.74447   3798495.80961
 90  7 24 21 48 29.9960000  0  5G20G12G 9G 3G13
  22162496.6134   -5020011.13445  -3563012.95061
  19593330.7934  -22510336.35547    118144.01863
  21691884.5984      31111.97846   7922905.56261
  23240783.3324    -734308.55144   -253126.51661
  20840122.8634   -3626399.19247   3829264.52861
 90  7 24 21 48 59.9960000  0  5G20G12G 9G 3G13
  22141432.2074   -5130704.13845  -3649267.09861
  19596011.9184  -22496240.20347    129128.00263
  21710043.5594     126531.43846   7997258.17861
  23225405.9814    -815147.96244   -316118.08861
  20847644.0664   -3586868.40347   3860067.70061
 90  7 24 21 49 29.9960000  0  5G20G12G 9G 3G13
  22120382.6684   -5241321.99346  -3735462.69761
  19598810.3244  -22481530.81247    140589.83763
  21728246.7704     222205.48946   8071809.18761
  23210048.4814    -895839.85545   -378994.68561
  20855176.2314   -3547294.70447   3890904.32961
 90  7 24 21 49 59.9960000  0  5G20G12G 9G 3G13
  22099344.8634   -5351873.70445  -3821606.74461
  19601726.5984  -22466214.14547    152524.85463
  21746500.9494     318126.00146   8146552.24261
  23194728.3954    -976389.33844   -441760.35261
  20862714.2384   -3507683.43547   3921770.22561
 90  7 24 21 50 29.9960000  0  5G20G12G 9G 3G13
  22078318.5514   -5462356.63445  -3907697.19061
  19604758.5044  -22450284.08047    164937.85363
  21764802.5434     414296.55646   8221490.12561
  23179422.8564   -1056789.91044   -504409.97961
  20870259.5744   -3468029.01347   3952669.74461
 90  7 24 21 50 59.9960000  0  5G20G12G 9G 3G13
  22057306.7544   -5572777.12346  -3993739.00761
  19607903.9414  -22433746.99047    177823.85962
  21783149.4344     510708.96046   8296616.47761
  23164150.0514   -1137047.02444   -566947.83961
  20877811.0044   -3428337.12847   3983598.45761
 90  7 24 21 51 29.9960000  0  5G20G12G 9G 3G13
  22036309.7854   -5683124.76146  -4079724.03261
  19611167.8244  -22416597.21647    191187.27563
  21801542.8564     607366.55146   8371933.86861
  23148910.1454   -1217154.61044   -629369.14861
  20885373.4574   -3388602.64047   4014560.37361
 90  7 24 21 51 59.9960000  0  5G20G12G 9G 3G13
  22015323.7314   -5793389.64045  -4165644.58561
  19614547.8714  -22398835.06647    205027.86363
  21819981.0204     704266.88246   8447440.40361
  23133683.9964   -1297111.69143   -691673.19461
  20892943.1684   -3348825.73247   4045555.33861
 90  7 24 21 52 29.9960000  0  5G20G12G 9G 3G13
  21994360.4494   -5903565.04046  -4251495.41561
  19618046.1844  -22380458.27747    219347.40063
  21838469.1524     801410.29446   8523136.34261
  23118504.6604   -1376915.29645   -753857.67661
  20900521.1064   -3309003.71447   4076585.47861
 90  7 24 21 52 59.9960000  0  5G20G12G 9G 3G13
  21973410.6914   -6013655.31446  -4337279.90361
  19621658.5904  -22361475.17847    234139.38463
  21856998.1994     898786.55046   8599013.70961
  23103348.0354   -1456573.07945   -815928.56861
  20908105.1914   -3269144.13947   4107644.85761
 90  7 24 21 53 29.9960000  0  5G20G12G 9G 3G13
  21952481.8634   -6123660.27646  -4422997.91261
  19625387.0514  -22341881.59447    249407.06563
  21875571.8714     996397.45246   8675073.91561
  23088213.6454   -1536080.21945   -877882.04661
  20915697.4344   -3229242.77647   4138736.80061
 90  7 24 21 53 59.9960000  0  5G20G12G 9G 3G13
  21931558.0744   -6233589.23846  -4508656.71161
  19629229.3324  -22321685.78747    265144.00363
  21894190.4964    1094233.10946   8751309.26661
  23073112.9104   -1615443.60945   -939723.44261
  20923297.0124   -3189307.77847   4169854.97061
 90  7 24 21 54 29.9960000  0  5G20G12G 9G 3G13
  21910658.2624   -6343430.99246  -4594247.55061
  19633188.6064  -22300876.69247    281358.83762
  21912852.4964    1192302.95846   8827727.10161
  23058041.9104   -1694651.46545  -1001443.62961
  20930906.6524   -3149327.91347   4201008.09361
 90  7 24 21 54 59.9960000  0  5G20G12G 9G 3G13
  21889771.6294   -6453195.87246  -4679778.49061
  19637263.2384  -22279472.00247    298037.76262
  21931555.7934    1290586.93746   8904311.78761
  23042994.5124   -1773720.53945  -1063055.72661
  20938519.8404   -3109320.08147   4232183.00461
 90  7 24 21 55 29.9960000  0  5G20G12G 9G 3G13
  21868896.1844   -6562894.31846  -4765257.66261
  19641446.5044  -22257486.94047    315168.91962
  21950296.4734    1389068.42746   8981050.38261
  23027967.8094   -1852664.97844  -1124570.78061
  20946134.6214   -3069298.28647   4263368.78261
 90  7 24 21 55 59.9960000  0  5G20G12G 9G 3G13
  21848037.9814   -6672509.42746  -4850671.88161
  19645742.5354  -22234914.71547    332757.61462
  21969076.1524    1487751.71046   9057946.19761
  23012972.6374   -1931477.31945  -1185982.83361
  20953755.6454   -3029256.02747   4294570.52261
 90  7 24 21 56 29.9960000  0  5G20G12G 9G 3G13
  21827195.2854   -6782028.64346  -4936011.37961
  19650150.0044  -22211750.25947    350807.78562
  21987895.4024    1586640.10846   9135001.85161
  22998003.6604   -2010151.47045  -1247287.16361
  20961378.1524   -2989187.93346   4325792.39861
 90  7 24 21 56 59.9960000  0  5G20G12G 9G 3G13
  21806378.9184   -6891414.53746  -5021247.00661
  19654677.8094  -22187962.25147    369343.84262
  22006759.2934    1685762.95246   9212240.17461
  22983058.8014   -2088655.11245  -1308458.60261
  20969014.9734   -2949061.81647   4357059.46961
 90  7 24 21 57 29.9960000  0  5G20G12G 9G 3G13
  21785582.1374   -7000704.88846  -5106408.19061
  19659314.7544  -22163583.08747    388340.55362
  22025659.2934    1785086.03146   9289634.52561
  22968152.0594   -2167020.12344  -1369522.03861
  20976656.2154   -2908910.02747   4388346.56861
 90  7 24 21 57 59.9960000  0  5G20G12G 9G 3G13
  21764804.5984   -7109897.58746  -5191493.26961
  19664066.9184  -22138609.21946    407800.65662
  22044597.5204    1884611.31946   9367186.42761
  22953268.2544   -2245241.18245  -1430473.34761
  20984301.7464   -2868728.19546   4419657.06261
 90  7 24 21 58 29.9960000  0  5G20G12G 9G 3G13
  21744045.2234   -7218985.49346  -5276496.69761
  19668935.9494  -22113033.57746    427729.67662
  22063574.9814    1984344.43146   9444900.27861
  22938405.2774   -2323310.46145  -1491306.32461
  20991956.1684   -2828507.69247   4450997.67161
 90  7 24 21 58 59.9960000  0  5G20G12G 9G 3G13
  21723305.4494   -7327974.28946  -5361422.90961
  19673918.1914  -22086858.21546    448126.00562
  22082594.4184    2084280.90246   9522772.58861
  22923583.8324   -2401229.03345  -1552021.93061
  20999615.2774   -2788250.12446   4482367.18161
 90  7 24 21 59 29.9960000  0  5G20G12G 9G 3G13
  21702577.2854   -7436895.39946  -5446296.38761
  19679005.8794  -22060113.59546    468965.91362
  22101643.8714    2184389.26746   9600778.82761
  22908779.4884   -2479026.16045  -1612642.85661
  21007278.6764   -2747985.96247   4513741.82461
 90  7 24 21 59 59.9960000  0  5G20G12G 9G 3G13
  21681869.8244   -7545727.03546  -5531100.14261
  19684205.3164  -22032790.47047    490256.61662
  22120728.2934    2284676.59846   9678924.52461
  22893996.3014   -2556691.57145  -1673161.18161
  21014943.3874   -2707705.01547   4545129.53361
 90  7 24 22  0 29.9960000  0  5G20G12G 9G 3G13
  21661178.7234   -7654443.83446  -5615814.40361
  19689516.9104  -22004873.61246    512009.95462
  22139849.9264    2385156.53546   9757220.31161
  22879247.1064   -2634208.83445  -1733564.05561
  21022617.3714   -2667391.00747   4576543.02161
 90  7 24 22  0 59.9960000  0  5G20G12G 9G 3G13
  21640508.9734   -7763053.12846  -5700444.89961
  19694940.8244  -21976381.05647    534211.89862
  22159001.4184    2485809.79946   9835651.15361
  22864520.5434   -2711594.57845  -1793864.46561
  21030288.3404   -2627060.80147   4607969.11961
 90  7 24 22  1 29.9960000  0  5G20G12G 9G 3G13
  21619872.1844   -7871513.17946  -5784959.13161
  19700475.1064  -21947286.68647    556882.78862
  22178192.7854    2586660.61446   9914235.91361
  22849825.1604   -2788821.59745  -1854041.24261
  21037973.6064   -2586687.58746   4639428.74661
 90  7 24 22  1 59.9960000  0  5G20G12G 9G 3G13
  21599259.7384   -7979824.47446  -5869357.43661
  19706125.9574  -21917603.30347    580012.64662
  22197419.5204    2687694.78846   9992963.55161
  22835160.7074   -2865901.49545  -1914103.36661
  21045661.7464   -2546283.29046   4670912.58061
 90  7 24 22  2 29.9960000  0  5G20G12G 9G 3G13
  21578677.4734   -8087995.67146  -5953646.57961
  19711883.3634  -21887340.07946    603594.33062
  22216681.5514    2788901.58546  10071825.69561
  22820515.8164   -2942842.02545  -1974056.88861
  21053353.5044   -2505855.92546   4702414.38861
 90  7 24 22  2 59.9960000  0  5G20G12G 9G 3G13
  21558120.6684   -8196021.53846  -6037822.47461
  19717753.2934  -21856495.14146    627629.29862
  22235974.1134    2890281.39146  10150822.66861
  22805904.3324   -3019640.29745  -2033899.53761
  21061051.8954   -2465402.62446   4733936.40561
 90  7 24 22  3 29.9960000  0  5G20G12G 9G 3G13
  21537589.3484   -8303913.90146  -6121894.33661
  19723733.6844  -21825075.74947    652111.87962
  22255294.3634    2991825.15546  10229947.36461
  22791308.3794   -3096302.42545  -2093636.07661
  21068753.7774   -2424929.60446   4765473.79961
 90  7 24 22  3 59.9960000  0  5G20G12G 9G 3G13
  21517079.2934   -8411684.46646  -6205871.30261
  19729818.5984  -21793083.39147    677040.93162
  22274650.0904    3093530.12946  10309197.69861
  22776748.3794   -3172828.45545  -2153266.59561
  21076462.0514   -2384436.96646   4797026.47161
 90  7 24 22  4 29.9950000  0  5G20G12G 9G 3G13
  21496591.6084   -8519342.02146  -6289759.71161
  19736015.0464  -21760529.35747    702408.15062
  22294031.6714    3195381.46746  10388562.55061
  22762212.2024   -3249224.51645  -2212795.35461
  21084168.6794   -2343935.65146   4828586.40561
 90  7 24 22  4 59.9950000  0  5G20G12G 9G 3G13
  21476123.0934   -8626906.28946  -6373576.42361
  19742313.5074  -21727422.65447    728205.02162
  22313440.2264    3297373.14546  10468035.79261
  22747695.4994   -3325505.85145  -2272235.72161
  21091875.7734   -2303433.24346   4860146.19461
 90  7 24 22  5 29.9950000  0  5G20G12G 9G 3G13
  21455677.5624   -8734344.94846  -6457294.74961
  19748727.4444  -21693734.42447    754455.53262
  22332881.6244    3399530.34546  10547638.48861
  22733205.7184   -3401638.81845  -2331559.96061
  21099587.2414   -2262900.06846   4891730.45361
 90  7 24 22  5 59.9950000  0  5G20G12G 9G 3G13
  21435257.6794   -8841652.15146  -6540910.64061
  19755247.9214  -21659471.35447    781153.97162
  22352346.8434    3501845.02946  10627363.88361
  22718748.3044   -3477628.26745  -2390772.34261
  21107303.2104   -2222340.71446   4923335.11361
 90  7 24 22  6 29.9950000  0  5G20G12G 9G 3G13
  21414863.7964   -8948836.91946  -6624431.13061
  19761871.1324  -21624656.14447    808282.64362
  22371844.9054    3604293.21546  10707193.32261
  22704310.7734   -3553495.51745  -2449889.56161
  21115025.9134   -2181776.79146   4954943.34061
 90  7 24 22  6 59.9950000  0  5G20G12G 9G 3G13
  21394494.6794   -9055877.43646  -6707839.20761
  19768604.4994  -21589272.62447    835854.14762
  22391366.6404    3706889.70246  10787138.30761
  22689903.0694   -3629223.33445  -2508898.08761
  21122746.7184   -2141191.39746   4986568.29061
 90  7 24 22  7 29.9950000  0  5G20G12G 9G 3G13
  21374150.2654   -9162781.07046  -6791140.63261
  19775444.3664  -21553342.06947    863851.92162
  22410918.5934    3809612.25546  10867181.54261
  22675513.5464   -3704830.99045  -2567813.02361
  21130470.3904   -2100603.38546   5018195.29261
 90  7 24 22  7 59.9950000  0  5G20G12G 9G 3G13
  21353834.1324   -9269533.30046  -6874324.07561
  19782384.9834  -21516859.03047    892280.19962
  22430488.3434    3912465.18446  10947326.34361
  22661154.6084   -3780311.77845  -2626629.10161
  21138197.9054   -2060006.19746   5049829.43161
 90  7 24 22  8 29.9950000  0  5G20G12G 9G 3G13
  21333552.1944   -9376123.60046  -6957381.32461
  19789434.7734  -21479812.49947    921147.56062
  22450085.6874    4015457.80246  11027579.98461
  22646812.8354   -3855653.10546  -2685336.47461
  21145923.0774   -2019388.26146   5081479.73261
 90  7 24 22  8 59.9950000  0  5G20G12G 9G 3G13
  21313297.6084   -9482560.56846  -7040319.10161
  19796591.8664  -21442212.96247    950445.83062
  22469712.1874    4118578.73546  11107933.60261
  22632501.7024   -3930864.04246  -2743942.26061
  21153654.9684   -1978758.13646   5113139.54361
 90  7 24 22  9 29.9950000  0  5G20G12G 9G 3G13
  21293074.4684   -9588840.50846  -7123134.53361
  19803848.9604  -21404061.18947    980174.43062
  22489360.7334    4221826.10946  11188385.73961
  22618210.0304   -4005943.75945  -2802445.80661
  21161393.8824   -1938114.57246   5144809.81561
 90  7 24 22  9 59.9950000  0  5G20G12G 9G 3G13
  21272878.5304   -9694965.92346  -7205829.53961
  19811215.4604  -21365356.41047   1010333.93162
  22509032.1874    4325199.03146  11268935.72261
  22603948.9604   -4080890.35045  -2860845.61061
  21169129.1404   -1897456.14646   5176491.67761
 90  7 24 22 10 29.9950000  0  5G20G12G 9G 3G13
  21252710.7804   -9800948.79346  -7288413.47461
  19818685.0934  -21326111.54047   1040914.27762
  22528724.8354    4428683.79746  11349572.83861
  22589709.8044   -4155714.92645  -2919150.31561
  21176866.2104   -1856793.97646   5208176.45261
 90  7 24 22 10 59.9950000  0  5G20G12G 9G 3G13
  21232568.8664   -9906779.65746  -7370878.95961
  19826253.0464  -21286323.45547   1071917.91262
  22548435.2024    4532282.27745  11430298.55261
  22575495.9294   -4230412.63745  -2977356.16861
  21184608.5544   -1816123.26246   5239867.88161
 90  7 24 22 11 29.9950000  0  5G20G12G 9G 3G13
  21212458.2414  -10012463.17446  -7453229.65261
  19833926.3124  -21246001.00647
  22568172.1014    4635984.69345  11511105.24261
  22561308.2264   -4304990.98445  -3035468.99661
  21192347.1164   -1775451.78346
 90  7 24 22 11 59.9950000  0  5G20G12G 9G 3G13
  21192379.2414  -10117991.01046  -7535459.02761
  19841701.4134  -21205139.50247   1135178.00162
  22587929.4444    4739794.60145  11591995.70361
  22547138.9054   -4379443.68345  -3093483.92761
  21200088.6164   -1734772.53346   5303257.99161
 90  7 24 22 12 29.9950000  0  5G20G12G 9G 3G13
  21172327.5544  -10223354.13946  -7617560.05861
  19849583.0234  -21163735.93347   1167440.45662
  22607697.8354    4843713.72245  11672971.23661
  22532995.8514   -4453765.96445  -3151397.23061
  21207828.7494   -1694081.23946   5334965.44961
 90  7 24 22 12 59.9950000  0  5G20G12G 9G 3G13
  21152305.8354  -10328575.16846  -7699550.36861
  19857559.5854  -21121818.97047   1200102.95362
  22627493.4214    4947712.93645  11754009.20461
  22518872.4764   -4527984.81045  -3209229.92461
  21215572.6874   -1653404.63646   5366661.47961
 90  7 24 22 13 29.9950000  0  5G20G12G 9G 3G13
  21132313.8274  -10433641.03146  -7781419.76261
  19865636.4684  -21079377.39747   1233174.23962
  22647302.8584    5051802.37545  11835117.46561
  22504765.7494   -4602087.19245  -3266971.89261
  21223310.6944   -1612729.78646   5398356.12761
 90  7 24 22 13 59.9950000  0  5G20G12G 9G 3G13
  21112351.4914  -10538533.32546  -7863153.89661
  19873813.1164  -21036398.46247   1266664.25062
  22667128.4214    5155993.60145  11916305.02161
  22490692.7264   -4676058.90346  -3324612.02561
  21231053.8514   -1572042.59546   5430060.40261
 90  7 24 22 14 29.9950000  0  5G20G12G 9G 3G13
  21092422.3584  -10643254.33446  -7944754.57561
  19882093.7804  -20992889.61347   1300567.18162
  22686972.1944    5260278.23545  11997565.37361
  22476639.8354   -4749905.53845  -3382154.69561
  21238797.6014   -1531347.92546   5461770.51461
 90  7 24 22 14 59.9950000  0  5G20G12G 9G 3G13
  21072529.0624  -10747807.12546  -8026224.17661
  19890472.3194  -20948860.44447   1334875.54962
  22706835.8124    5364646.11346  12078890.57161
  22462608.2804   -4823634.81045  -3439605.92261
  21246542.7734   -1490653.36746   5493480.53561
 90  7 24 22 15 29.9950000  0  5G20G12G 9G 3G13
  21052667.9374  -10852185.22746  -8107557.65761
  19898948.9134  -20904314.58247   1369586.53362
  22726707.1014    5469092.64345  12160277.08361
  22448602.1794   -4897248.76945  -3496967.26461
  21254284.5464   -1449961.69246   5525188.31461
 90  7 24 22 15 59.9950000  0  5G20G12G 9G 3G13
  21032837.8744  -10956375.95746  -8188745.12761
  19907524.9444  -20859244.80947   1404705.75662
  22746600.2334    5573624.07945  12241729.72161
  22434620.6324   -4970738.45545  -3554231.75861
  21262030.2804   -1409263.22646   5556901.37061
 90  7 24 22 16 29.9950000  0  5G20G12G 9G 3G13
  21013049.3124  -11060374.22746  -8269782.63061
  19916201.9214  -20813655.43247   1440229.85762
  22766507.6554    5678235.32345  12323244.53061
  22420657.8354   -5044106.33745  -3611401.34361
  21269773.2104   -1368560.29846   5588617.88961
 90  7 24 22 16 59.9950000  0  5G20G12G 9G 3G13
  20993293.6324  -11164185.54546  -8350674.45961
  19924972.4524  -20767556.69847   1476150.86862
  22786429.4374    5782915.34645  12404812.91561
  22406717.4684   -5117360.76845  -3668482.55461
  21277522.0304   -1327860.90746   5620331.66961
 90  7 24 22 17 29.9950000  0  5G20G12G 9G 3G13
  20973574.8584  -11267806.89646  -8431418.25961
  19933842.7804  -20720946.47547   1512470.43762
  22806361.9374    5887665.59645  12486436.04561
  22392799.9604   -5190497.69245  -3725472.21761
  21285266.2104   -1287161.63346   5652045.36061
 90  7 24 22 17 59.9950000  0  5G20G12G 9G 3G13
  20953890.2964  -11371246.03946  -8512020.09561
  19942809.7024  -20673832.39247   1549182.62062
  22826310.6324    5992477.28645  12568107.06861
  22378899.1014   -5263523.44145  -3782375.26661
  21293009.7414   -1246468.38446   5683754.36361
 90  7 24 22 18 29.9950000  0  5G20G12G 9G 3G13
  20934241.2494  -11474502.75346  -8592479.77061
  19951869.5624  -20626216.43247   1586285.89062
  22846263.7574    6097347.91645  12649823.98161
  22365023.2884   -5336438.04945  -3839191.71161
  21300750.6714   -1205781.19946   5715458.63961
 90  7 24 22 18 59.9950000  0  5G20G12G 9G 3G13
  20914629.4764  -11577569.33046  -8672791.27861
  19961027.6014  -20578084.87547   1623790.91262
  22866235.9604    6202290.87945  12731597.24961
  22351175.4914   -5409225.20945  -3895908.84061
  21308493.9054   -1165082.72646   5747171.68961
 90  7 24 22 19 29.9950000  0  5G20G12G 9G 3G13
  20895048.0234  -11680463.75246  -8752968.66061
  19970282.2104  -20529456.76247   1661682.85762
  22886216.9524    6307286.10245  12813411.22861
  22337344.5154   -5481902.60245  -3952540.44161
  21316238.4684   -1124390.95646   5778879.53661
 90  7 24 22 19 59.9950000  0  5G20G12G 9G 3G13
  20875503.0774  -11783176.41346  -8833004.39761
  19979631.0624  -20480330.23747   1699963.17562
  22906206.3744    6412334.65945  12895266.77861
  22323538.3904   -5554466.35846  -4009083.47161
  21323983.4764   -1083701.33046   5810585.72061
 90  7 24 22 20 29.9950000  0  5G20G12G 9G 3G13
  20855989.9524  -11885717.02746  -8912906.06661
  19989074.4994  -20430721.47347   1738619.25662
  22926205.3904    6517420.10845  12977151.06061
  22309747.6164   -5626930.64846  -4065548.98561
  21331721.8434   -1043028.02046   5842279.17661
 90  7 24 22 20 59.9950000  0  5G20G12G 9G 3G13
  20836518.4294  -11988048.52447  -8992644.79861
  19998607.8274  -20380601.30947   1777673.83862
  22946214.5234    6622570.71545  13059086.10461
  22295983.2884   -5699264.38446  -4121912.76061
  21339464.4134   -1002339.65646   5873984.36261
 90  7 24 22 21 29.9950000  0  5G20G12G 9G 3G13
  20817082.9374  -12090179.67147  -9072227.40561
  20008240.4134  -20329991.83747   1817109.69762
  22966232.9604    6727764.17145  13141054.52661
  22282239.5304   -5771487.41546  -4178190.27161
  21347207.1874    -961656.40046   5905685.58561
 90  7 24 22 21 59.9950000  0  5G20G12G 9G 3G13
  20797687.2334  -12192096.07047  -9151642.67461
  20017963.2654  -20278888.11947   1856930.68762
  22986258.3194    6833004.46145  13223059.44461
  22268512.8434   -5843593.27645  -4234376.48661
  21354951.0464    -920971.39046   5937388.16061
 90  7 24 22 22 29.9950000  0  5G20G12G 9G 3G13
  20778335.4294  -12293795.61047  -9230888.96361
  20027783.8984  -20227290.31347   1897136.67262
  23006292.3354    6938290.99845  13305100.36461
  22254817.9374   -5915579.85446  -4290469.75361
  21362692.2654    -880282.07146   5969094.11561
 90  7 24 22 22 59.9950000  0  5G20G12G 9G 3G13
  20759022.3274  -12395288.23847  -9309974.03262
  20037695.0934  -20175209.08947   1937719.35562
  23026338.5854    7043612.86145  13387168.81261
  22241142.6484   -5987455.73646  -4346476.80661
  21370431.7414    -839596.59246   6000797.04561
 90  7 24 22 23 29.9950000  0  5G20G12G 9G 3G13
  20739749.5154  -12496564.01147  -9388890.11461
  20047697.7264  -20122639.61647   1978682.49162
  23046385.9994    7148974.15445  13469268.00261
  22227484.4684   -6059214.01046  -4402392.17161
  21378177.9054    -798907.39646   6032502.90461
 90  7 24 22 23 59.9950000  0  5G20G12G 9G 3G13
  20720520.2024  -12597618.89147  -9467634.08261
  20057793.6944  -20069582.85247   2020025.33162
  23066445.5384    7254373.56345  13551396.87561
  22213856.6404   -6130853.92246  -4458215.32461
  21385920.3434    -758213.99346   6064212.02761
 90  7 24 22 24 29.9950000  0  5G20G12G 9G 3G13
  20701331.6874  -12698457.05747  -9546209.18661
  20067980.6324  -20016046.68447   2061741.73362
  23086511.1714    7359802.59445  13633548.80461
  22200239.9994   -6202381.05245  -4513950.60361
  21393661.6554    -717521.78546   6095920.23261
 90  7 24 22 24 59.9950000  0  5G20G12G 9G 3G13
  20682184.9994  -12799065.40547  -9624605.21262
  20078261.8824  -19962028.46347   2103833.75261
  23106577.7884    7465263.18345  13715725.33061
  22186648.6554   -6273790.90346  -4569594.48061
  21401408.0154    -676825.95546   6127631.24261
 90  7 24 22 25 29.9950000  0  5G20G12G 9G 3G13
  20663086.9994  -12899423.33347  -9702806.10762
  20088633.9054  -19907522.47447   2146305.84762
  23126653.8514    7570761.34645  13797931.15261
  22173092.3434   -6345075.15545  -4625140.47561
  21409154.7024    -636117.06546   6159352.41661
 90  7 24 22 25 59.9950000  0  5G20G12G 9G 3G13
  20644038.5304  -12999534.54047  -9780814.74862
  20099095.5694  -19852543.17646   2189146.76462
  23146734.5854    7676282.04045  13880154.49461
  22159540.5774   -6416246.48845  -4680598.47361
  21416900.7104    -595407.82546   6191073.88261
 90  7 24 22 26 29.9950000  0  5G20G12G 9G 3G13
  20625035.6324  -13099392.91647  -9858626.37462
  20109646.8434  -19797091.81047   2232355.52862
  23166815.5544    7781823.29045  13962393.87661
  22146021.7414   -6487304.25445  -4735967.99861
  21424653.0304    -554697.01546   6222796.55761
 90  7 24 22 26 59.9950000  0  5G20G12G 9G 3G13
  20606080.8124  -13198997.56647  -9936240.29562
  20120289.1554  -19741173.62547   2275928.04362
  23186908.9134    7887379.68345  14044645.03761
  22132521.9684   -6558251.17845  -4791251.18461
  21432397.3434    -513987.61046   6254518.11861
 90  7 24 22 27 29.9950000  0  5G20G12G 9G 3G13
  20587175.2734  -13298345.58847 -10013654.24362
  20131017.2024  -19684788.91847   2319864.08262
  23206994.0544    7992950.53544  14126907.48661
  22119042.6014   -6629085.59445  -4846446.71161
  21440140.4214    -473277.56246   6286240.20661
 90  7 24 22 27 59.9950000  0  5G20G12G 9G 3G13
  20568318.4914  -13397438.81447 -10090869.65062
  20141837.6794  -19627934.44547   2364166.15762
  23227087.0854    8098538.90644  14209183.55261
  22105583.5074   -6699802.13545  -4901550.36661
  21447888.1714    -432560.28546   6317967.92761
 90  7 24 22 28 29.9950000  0  5G20G12G 9G 3G13
  20549505.6794  -13496305.35947 -10167908.42062
  20152743.4604  -19570627.68646   2408820.67962
  23247180.2804    8204127.05243  14291459.46061
  22092147.4604   -6770415.58945  -4956573.72461
  21455636.3984    -391850.96946   6349689.42061
 90  7 24 22 28 59.9950000  0  5G20G12G 9G 3G13
  20530734.2414  -13594941.30347 -10244767.49962
  20163735.4604  -19512862.56147   2453832.35761
  23267267.3514    8309720.81643  14373739.77861
  22078727.4524   -6840918.40645  -5011510.84561
  21463383.5154    -351140.95946   6381411.46861
 90  7 24 22 29 29.9950000  0  5G20G12G 9G 3G13
  20512002.6404  -13693373.36347 -10321467.71962
  20174810.3434  -19454665.82147   2499180.35961
  23287367.9914    8415292.80643  14456003.09061
  22065333.0304   -6911334.87946  -5066380.66261
  21471127.3124    -310454.60546   6413115.07361
 90  7 24 22 29 59.9950000  0  5G20G12G 3G16G13
  20493316.9914  -13791576.04347 -10397989.19062
  20185968.0774  -19396016.80546   2544880.78761
  22051951.9834   -6981641.88246  -5121165.20061
  22884259.2104    -115617.69145
  21478869.1944    -269768.45546   6444818.53761
 90  7 24 22 30 29.9950000  0  5G20G12G 3G16G13
  20474673.9444  -13889531.41947 -10474317.95862
  20197216.9684  -19336913.43146   2590935.26462
  22038592.9994   -7051834.79446  -5175860.83761
  22862249.7024    -231270.66644
  21486611.0154    -229077.41946   6476525.79161
 90  7 24 22 30 59.9950000  0  5G20G12G 3G16G13
  20456087.5384  -13987223.20247 -10550441.33062
  20208551.2184  -19277358.09147   2637341.91962
  22025259.4134   -7121914.15046  -5230467.98161
  22840234.4764    -346954.28444        -0.35371
  21494355.6164    -188381.15846   6508237.13461
 90  7 24 22 31 29.9950000  0  5G20G12G 3G16G13
  20437549.6084  -14084635.89447 -10626347.22962
  20219970.4524  -19217349.40847   2684101.82062
  22011941.4914   -7191875.86246  -5284983.47461
  22818217.5774    -462660.30044    -90160.43961
  21502103.6794    -147675.06646   6539956.10561
 90  7 24 22 31 59.9950000  0  5G20G12G 3G16G13
  20419063.8904  -14181768.39847 -10702034.81162
  20231474.5384  -19156894.14347   2731209.71262
  21998651.3984   -7261724.64646  -5339410.96061
  22796199.3354    -578389.87245   -180338.86561
  21509848.6874    -106963.27346   6571679.56861
 90  7 24 22 32 29.9950000  0  5G20G12G 3G16G13
  20400635.1484  -14278618.51847 -10777502.34962
  20243063.1634  -19095992.76547   2778665.22162
  21985384.4834   -7331458.64246  -5393749.00261
  22774175.1944    -694134.23545   -270528.82661
  21517598.8044     -66243.88646   6603408.90761
 90  7 24 22 32 59.9950000  0  5G20G12G 3G16G13
  20382260.9604  -14375174.82847 -10852740.95362
  20254740.3744  -19034633.39547   2826477.61361
  21972135.9214   -7401063.86346  -5447986.69061
  22752153.0694    -809867.67545   -360710.26561
  21525349.5154     -25502.55346   6635155.34761
 90  7 24 22 33 29.9950000  0  5G20G12G 3G16G13
  20363939.5934  -14471463.60547 -10927771.08762
  20266498.5074  -18972840.61147   2874627.72661
  21958911.4294   -7470562.23346  -5502141.12761
  22730124.6164    -925609.79145   -450898.48061
  21533106.1554      15239.82146   6666902.62061
 90  7 24 22 33 59.9950000  0  5G20G12G 3G16G13
  20345667.0624  -14567483.49847 -11002591.69762
  20278338.7264  -18910616.14047   2923114.21961
  21945710.5234   -7539953.06746  -5556211.76661
  22708097.6944   -1041353.91745   -541088.26561
  21540857.4134      55983.98046   6698651.26761
 90  7 24 22 34 29.9950000  0  5G20G12G 3G16G13
  20327440.7334  -14663244.00847 -11077210.20462
  20290260.8044  -18847976.70547   2971924.06061
  21932519.9134   -7609250.82346  -5610209.87861
  22686067.0384   -1157108.02345   -631285.82961
  21548607.6084      96715.30246   6730389.91761
 90  7 24 22 34 59.9950000  0  5G20G12G 3G16G13
  20309274.3124  -14758725.07847 -11151610.95462
  20302261.5304  -18784910.77647   3021066.21861
  21919352.8274   -7678441.57845  -5664124.62961
  22664036.7494   -1272858.64145   -721480.67961
  21556361.8044     137449.38846   6762130.72661
 90  7 24 22 35 29.9950000  0  5G20G12G 3G16G13
  20291154.7574  -14853928.78147 -11225795.57562
  20314343.5544  -18721425.41847   3070535.19961
  21906207.8274   -7747529.99845  -5717959.62461
  22642017.1794   -1388607.77045   -811674.36361
  21564112.1014     178182.08146   6793870.47261
 90  7 24 22 35 59.9950000  0  5G20G12G 3G16G13
  20273098.4764  -14948830.43047 -11299744.84162
  20326505.3434  -18657503.42647   3120344.42461
  21893079.5544   -7816496.61545  -5771699.73461
  22619992.2264   -1504330.86844   -901847.76061
  21571867.3514     218933.30846   6825624.64461
 90  7 24 22 36 29.9950000  0  5G20G12G 3G16G13
  20255095.8194  -15043432.61047 -11373460.74362
  20338752.4684  -18593147.97546   3170491.40961
  21879979.7024   -7885342.26245  -5825345.57761
  22597973.7334   -1620025.94444   -991999.31261
  21579623.3274     259702.55746   6857392.84161
 90  7 24 22 36 59.9950000  0  5G20G12G 3G16G13
  20237148.9524  -15137742.10647 -11446948.58762
  20351079.5694  -18528367.39647   3220969.66561
  21866900.5694   -7954072.71645  -5878901.66361
  22575961.5074   -1735699.08045  -1082133.75661
  21587383.6634     300484.94846   6889171.29161
 90  7 24 22 37 29.9950000  0  5G20G12G 3G16G13
  20219252.6634  -15231784.36947 -11520228.20862
  20363481.5544  -18463191.98846   3271755.57461
  21853839.8824   -8022715.75645  -5932389.62061
  22553950.5624   -1851377.49045  -1172272.32061
  21595141.1874     341252.81346   6920938.43761
 90  7 24 22 37 59.9950000  0  5G20G12G 3G16G13
  20201411.5854  -15325543.87947 -11593287.49762
  20375962.1014  -18397618.89146   3322851.38461
  21840797.8044   -8091266.22445  -5985805.43461
  22531936.6164   -1967061.03945  -1262414.89761
  21602898.4684     382011.67946   6952698.57161
 90  7 24 22 38 29.9950000  0  5G20G12G 3G16G13
  20183627.0544  -15418996.31947 -11666107.49162
  20388517.3194  -18331634.90346   3374267.35361
  21827773.7734   -8159708.22445  -6039136.73361
  22509921.9994   -2082736.83245  -1352551.39561
  21610657.4524     422778.12946   6984464.59661
 90  7 24 22 38 59.9950000  0  5G20G12G 3G16G13
  20165899.4604  -15512157.52447 -11738700.56062
  20401146.4834  -18265269.49846   3425980.52961
  21814761.2574   -8228068.83945  -6092404.61061
  22487907.3984   -2198432.32345  -1442703.26661
  21618411.3514     463526.25946   7016216.37561
 90  7 24 22 39 29.9950000  0  5G20G12G 3G16G13
  20148234.7654  -15604995.77747 -11811041.99462
  20413851.2804  -18198502.27046   3478006.82761
  21801777.7184   -8296324.97845  -6145591.08661
  22465895.3274   -2314116.49545  -1532846.31061
  21626165.9994     504279.51246   7047972.11861
 90  7 24 22 39 59.9950000  0  5G20G12G 3G16G13
  20130628.4214  -15697508.10947 -11883129.44462
  20426631.9444  -18131335.91746   3530344.11561
  21788806.1634   -8364477.05346  -6198696.47461
  22443881.1634   -2429780.12645  -1622973.36261
  21633923.0854     545037.92746   7079731.88061
 90  7 24 22 40 29.9950000  0  5G20G12G 3G16G13
  20113082.0154  -15789718.50447 -11954981.63862
  20439489.1794  -18063785.26246   3582980.87261
  21775850.0934   -8432537.04345  -6251730.11261
  22421877.0934   -2545421.04645  -1713082.75561
  21641677.2334     585789.94746   7111486.67661
 90  7 24 22 40 59.9950000  0  5G20G12G 3G16G13
  20095592.2264  -15881622.95347 -12026595.41462
  20452417.2264  -17995843.13846   3635922.64561
  21762919.6244   -8500495.39245  -6304684.53361
  22399874.9604   -2661011.32144  -1803152.61461
  21649432.6714     626546.00046   7143244.59761
 90  7 24 22 41 29.9950000  0  5G20G12G 3G16G13
  20078159.1944  -15973233.00847 -12097979.80062
  20465417.7494  -17927521.55646   3689160.11661
  21750007.3664   -8568361.56945  -6357567.12861
  22377893.7334   -2776552.56045  -1893184.29861
  21657187.3984     667297.20346   7174998.71761
 90  7 24 22 41 59.9950000  0  5G20G12G 3G16G13
  20060783.7964  -16064544.16347 -12169131.28062
  20478491.7964  -17858817.07346   3742695.95061
  21737107.9684   -8636129.73245  -6410373.34561
  22355915.4374   -2892038.47145  -1983172.90461
  21664944.5154     708049.97746   7206754.09061
 90  7 24 22 42 29.9950000  0  5G20G12G 3G16G13
  20043463.5934  -16155561.42047 -12240053.75462
  20491638.4604  -17789739.67446   3796522.36861
  21724230.5384   -8703806.91046  -6463108.67661
  22333946.9134   -3007477.91544  -2073125.26861
  21672694.5774     748797.82946   7238505.60261
 90  7 24 22 42 59.9950000  0  5G20G12G 3G16G13
  20026202.8044  -16246266.58847 -12310733.03462
  20504853.2104  -17720295.04546   3850634.95161
  21711369.2884   -8771396.30746  -6515775.61161
  22311989.7654   -3122879.15245  -2163047.84961
  21680450.7334     789538.37746   7270251.45161
 90  7 24 22 43 29.9950000  0  5G20G12G 3G16G13
  20009003.2414  -16336639.94447 -12381153.76562
  20518137.7964  -17650473.57146   3905041.16661
  21698528.7804   -8838886.08246  -6568364.91161
  22290029.8434   -3238238.68044  -2252937.96461
  21688204.3744     830284.78546   7302001.88861
 90  7 24 22 43 59.9950000  0  5G20G12G 3G16G13
  19991869.5544  -16426690.04447 -12451322.59662
  20531493.9294  -17580291.71046   3959728.20661
  21685700.8434   -8906289.42546  -6620886.86961
  22268089.8434   -3353569.55445  -2342805.71561
  21695954.5234     871023.49646   7333746.28961
 90  7 24 22 44 29.9950000  0  5G20G12G 3G16G13
  19974791.3434  -16516421.88047 -12521243.43862
  20544913.6794  -17509762.86046   4014685.62361
  21672890.5774   -8973617.68446  -6673350.30661
  22246146.2184   -3468878.91045  -2432656.74561
  21703706.4134     911744.20646   7365476.67861
 90  7 24 22 44 59.9950000  0  5G20G12G 3G16G13
  19957781.3354  -16605819.26047 -12590903.67662
  20558404.6014  -17438871.57346   4069925.45561
  21660095.9524   -9040852.71746  -6725741.10661
  22224214.6634   -3584138.64845  -2522469.11561
  21711456.4214     952465.35346   7397207.41061
 90  7 24 22 45 29.9950000  0  5G20G12G 3G16G13
  19940831.1554  -16694890.85547 -12660310.04462
  20571963.6324  -17367619.26746   4125446.61561
  21647321.1944   -9107993.16146  -6778058.21661
  22202296.0234   -3699339.66445  -2612235.73761
  21719200.3044     993189.60346   7428940.55461
 90  7 24 22 45 59.9950000  0  5G20G12G 3G16G13
  19923945.8664  -16783633.48847 -12729460.08962
  20585592.5854  -17296008.95846   4181246.72361
  21634561.9764   -9175039.61146  -6830302.07961
  22180383.8044   -3814475.83445  -2701951.85561
  21726953.4374    1033917.09746   7460676.26061
 90  7 24 22 46 29.9950000  0  5G20G12G 3G16G13
  19907117.3824  -16872063.46147 -12798366.50062
  20599281.2494  -17224064.70146   4237307.05561
  21621814.2574   -9242013.11546  -6882489.11661
  22158483.8514   -3929559.44345  -2791627.00361
  21734701.6794    1074626.73746   7492398.03161
 90  7 24 22 46 59.9950000  0  5G20G12G 3G16G13
  19890351.8354  -16960167.87647 -12867019.22862
  20613037.7264  -17151777.58146   4293634.54161
  21609083.6554   -9308902.22746  -6934610.38861
  22136597.4604   -4044573.62145  -2881248.05861
  21742443.2334    1115331.37546   7524115.91861
 90  7 24 22 47 29.9950000  0  5G20G12G 3G16G13
  19873653.5544  -17047922.77047 -12935399.59162
  20626860.0154  -17079139.10046   4350235.82561
  21596375.3664   -9375695.80646  -6986657.20461
  22114722.1554   -4159511.20045  -2970809.39761
  21750189.3824    1156042.57046   7555838.87961
 90  7 24 22 47 59.9950000  0  5G20G12G 3G16G13
  19857016.4604  -17135327.82247 -13003507.36162
  20640745.7024  -17006161.06546   4407101.69761
  21583682.1554   -9442403.02746  -7038636.73961
  22092860.1244   -4274376.72845  -3060314.64761
  21757941.4764    1196751.72046   7587560.27361
 90  7 24 22 48 29.9950000  0  5G20G12G 3G16G13
  19840453.1164  -17222387.10947 -13071345.69862
  20654698.5154  -16932857.15646   4464221.49761
  21571003.5934   -9509034.49746  -7090557.24961
  22071012.9214   -4389176.78545  -3149768.87161
  21765685.0934    1237448.83245   7619272.27461
 90  7 24 22 48 59.9950000  0  5G20G12G 3G16G13
  19823952.1164  -17309095.12647 -13138910.33462
  20668710.1484  -16859222.92346   4521598.68161
  21558336.6244   -9575583.38746  -7142413.44461
  22049180.0464   -4503908.99445  -3239170.19761
  21773428.6404    1278142.06245   7650981.24861
 90  7 24 22 49 29.9950000  0  5G20G12G 3G16G13
  19807519.9604  -17395444.41347 -13206195.43062
  20682784.3514  -16785257.69346   4579233.77461
  21545691.4214   -9642046.46746  -7194202.76361
  22027364.9684   -4618569.45745  -3328515.61561
  21781171.8194    1318834.78145   7682689.84561
 90  7 24 22 49 59.9940000  0  5G20G12G 3G16G13
  19791158.0654  -17481435.39347 -13273201.33763
  20696921.5104  -16710967.59846   4637122.02861
  21533059.2524   -9708421.76046  -7245923.66661
  22005558.9324   -4733148.03645  -3417797.26061
  21788912.1904    1359526.00345   7714397.23461
 90  7 24 22 50 29.9940000  0  5G20G12G 3G16G13
  19774859.1504  -17567078.75447 -13339936.36263
  20711119.0104  -16636353.48346   4695262.75161
  21520443.1904   -9774716.93346  -7297582.13061
  21983771.4084   -4847653.71845  -3507022.09761
  21796654.3304    1400216.24945   7746103.85361
 90  7 24 22 50 59.9940000  0  5G20G12G 3G16G13
  19758629.2754  -17652366.76947 -13406394.50662
  20725382.8694  -16561413.62246   4753657.29461
  21507843.5654   -9840922.87446  -7349171.05461
  21961997.5494   -4962076.84045  -3596182.62661
  21804403.4714    1440911.83045   7777814.66161
 90  7 24 22 51 29.9940000  0  5G20G12G 3G16G13
  19742465.6044  -17737303.12047 -13472578.62362
  20739703.1974  -16486161.04346   4812295.52861
  21495258.8224   -9907049.74546  -7400698.36161
  21940233.8224   -5076416.27244  -3685277.92061
  21812147.7914    1481603.13746   7809522.15861
 90  7 24 22 51 59.9940000  0  5G20G12G 3G16G13
  19726373.1044  -17821876.16547 -13538479.64362
  20754083.4404  -16410587.54346   4871183.82561
  21482695.0024   -9973086.61146  -7452155.53861
  21918494.0024   -5190654.06945  -3774294.07061
  21819891.4714    1522301.63545   7841235.22261
 90  7 24 22 52 29.9940000  0  5G20G12G 3G16G13
  19710346.8694  -17906091.68847 -13604102.07262
  20768522.8304  -16334707.79946   4930310.77361
  21470142.0334  -10039045.27246  -7503551.79661
  21896775.7214   -5304801.30045  -3863239.59961
  21827633.2054    1562996.37545   7872945.35961
 90  7 24 22 52 59.9940000  0  5G20G12G 3G16G13
  19694394.8384  -17989924.12247 -13669426.01062
  20783024.3544  -16258502.14546   4989691.64761
  21457608.0104  -10104903.57246  -7554869.83961
  21875079.2134   -5418829.48545  -3952092.40061
  21835380.1744    1603710.64145   7904670.71361
 90  7 24 22 53 29.9940000  0  5G20G12G 3G16G13
  19678513.5494  -18073374.64947 -13734452.35262
  20797584.8774  -16181984.36046   5049315.73761
  21445097.1974  -10170672.17546  -7606117.99961
  21853400.9714   -5532740.11645  -4040853.60061
  21843130.0184    1644434.39045   7936403.45261
 90  7 24 22 53 59.9940000  0  5G20G12G 3G16G13
  19662705.3074  -18156454.61847 -13799189.94063
  20812201.1824  -16105170.26646   5109170.71761
  21432593.4084  -10236364.37846  -7657306.61961
  21831743.1744   -5646548.43545  -4129535.08261
  21850878.8774    1685154.91745   7968133.67161
 90  7 24 22 54 29.9940000  0  5G20G12G 3G16G13
  19646967.4004  -18239155.90647 -13863632.46463
  20826878.6904  -16028061.75346   5169255.10061
  21420109.3934  -10301979.14046  -7708434.90361
  21810106.5184   -5760251.46345  -4218134.53861
  21858630.6044    1725873.75545   7999862.60561
 90  7 24 22 54 59.9940000  0  5G20G12G 3G16G13
  19631302.9084  -18321480.38448 -13927781.36563
  20841603.7214  -15950667.67946   5229562.02561
  21407635.8074  -10367522.73046  -7759507.74561
  21788491.6744   -5873848.34545  -4306651.23561
  21866376.0724    1766585.90246   8031586.30361
 90  7 24 22 55 29.9940000  0  5G20G12G 3G16G13
  19615706.3384  -18403430.26147 -13991638.37063
  20856384.7524  -15872995.09846   5290085.93061
  21395175.7994  -10432998.98846  -7810528.08161
  21766892.0574   -5987340.98145  -4395086.74061
  21874125.2054    1807288.26646   8063302.36961
 90  7 24 22 55 59.9940000  0  5G20G12G 3G16G13
  19600186.9164  -18484988.84647 -14055190.47362
  20871221.9404  -15795022.70246   5350843.48061
  21382728.1744  -10498383.71946  -7861477.14361
  21745316.6744   -6100703.15245  -4483420.60761
  21881867.5024    1848006.16345   8095030.53861
 90  7 24 22 56 29.9940000  0  5G20G12G 3G16G13
  19584737.8774  -18566182.24047 -14118458.01062
  20886111.7994  -15716778.87746   5411812.51061
  21370301.8304  -10563702.63446  -7912374.88961
  21723769.6114   -6213954.52245  -4571668.11961
  21889615.9864    1888714.14245   8126750.98661
 90  7 24 22 56 59.9940000  0  5G20G12G 3G16G13
  19569354.6434  -18647016.91147 -14181446.02762
  20901051.9634  -15638270.31146   5472987.83061
  21357883.1194  -10628959.45046  -7963224.25061
  21702240.0494   -6327092.52245  -4659827.29861
  21897361.9404    1929409.23245   8158461.41661
 90  7 24 22 57 29.9940000  0  5G20G12G 3G16G13
  19554043.4324  -18727481.14147 -14244145.37562
  20916044.7914  -15559483.90746   5534379.66161
  21345482.5804  -10694138.45346  -8014012.98461
  21680731.5024   -6440102.44245  -4747886.66461
  21905103.9864    1970107.85245   8190174.58261
 90  7 24 22 57 59.9940000  0  5G20G12G 3G16G13
  19538805.5184  -18807559.80747 -14306544.29862
  20931090.5024  -15480416.14246   5595990.71661
  21333093.1044  -10759232.94546  -8064735.86261
  21659255.7994   -6552979.04945  -4835842.16261
  21912850.5414    2010817.76245   8221896.53161
 90  7 24 22 58 29.9940000  0  5G20G12G 3G16G13
  19523641.1974  -18887235.17447 -14368628.96262
  20946190.3774  -15401067.63546   5657820.54161
  21320725.7994  -10824240.56546  -8115391.03961
  21637797.3614   -6665718.14245  -4923690.52061
  21920598.9324    2051541.55045   8253629.32161
 90  7 24 22 58 59.9940000  0  5G20G12G 3G16G13
  19508559.3854  -18966500.84448 -14430394.36862
  20961339.4794  -15321442.93646   5719865.57161
  21308369.2134  -10889162.99446  -8165979.84461
  21616372.4324   -6778323.49945  -5011434.66761
  21928353.3074    2092278.55945   8285372.37561
 90  7 24 22 59 29.9940000  0  5G20G12G 3G16G13
  19493551.8854  -19045363.24048 -14491845.54762
  20976545.0494  -15241557.66246   5782113.63461
  21296027.8074  -10954012.99446  -8216512.20661
  21594966.2364   -6890809.46745  -5099085.74961
  21936104.2684    2133017.18745   8317116.72761
 90  7 24 22 59 59.9940000  0  5G20G12G 3G16G13
  19478622.1824  -19123810.67247 -14552973.36663
  20991795.0334  -15161414.71246   5844562.50161
  21283702.3544  -11018790.42646  -8266988.01461
  21573584.1744   -7003165.07245  -5186635.27361
  21943858.5184    2173758.05345   8348862.82261
 90  7 24 23  0 29.9940000  0  5G20G12G 3G16G13
  19463772.2754  -19201836.87247 -14613772.95063
  21007096.8694  -15081009.92246   5907215.37561
  21271392.7294  -11083488.24446  -8317401.78761
  21552231.2294   -7115377.54345  -5274073.29961
  21951612.6664    2214508.77045   8380616.59361
 90  7 24 23  0 59.9940000  0  5G20G12G 3G16G13
  19449007.0494  -19279446.09948 -14674247.62763
  21022448.4404  -15000343.67446   5970071.99361
  21259092.1434  -11148103.83246  -8367751.49761
  21530903.9474   -7227438.95845  -5361393.62461
  21959367.8154    2255273.16945   8412380.98561
 90  7 24 23  1 29.9940000  0  5G20G12G 3G16G13
  19434315.3224  -19356644.12747 -14734401.88363
  21037843.1824  -14919424.48146   6033125.70261
  21246811.3224  -11212642.71646  -8418041.42561
  21509611.2994   -7339343.87945  -5448592.00461
  21967130.5254    2296046.53546   8444152.40261
 90  7 24 23  1 59.9940000  0  5G20G12G 3G16G13
  19419703.9944  -19433430.75848 -14794235.57163
  21053289.3384  -14838257.23046   6096372.68661
  21234542.7994  -11277106.83946  -8468273.11661
  21488344.5254   -7451092.59145  -5535668.65561
  21974889.1824    2336827.08545   8475929.40061
 90  7 24 23  2 29.9940000  0  5G20G12G 3G16G13
  19405170.7994  -19509806.59948 -14853749.15963
  21068782.9084  -14756843.13546   6159812.03761
  21222292.2294  -11341494.96046  -8518445.56461
  21467112.3544   -7562683.86045  -5622622.65861
  21982650.1744    2377617.89245   8507714.40861
 90  7 24 23  2 59.9940000  0  5G20G12G 3G16G13
  19390712.9944  -19585776.17448 -14912946.18763
  21084321.7444  -14675192.31546   6223435.84261
  21210055.5414  -11405813.54646  -8568563.84361
  21445905.3694   -7674118.69745  -5709454.74561
  21990415.5414    2418412.33845   8539502.20561
 90  7 24 23  3 29.9940000  0  5G20G12G 3G16G13
  19376338.0414  -19661325.93048 -14971816.07363
  21099905.8074  -14593304.94746   6287243.95461
  21197825.8694  -11470060.01646  -8618625.93361
  21424728.5334   -7785388.44945  -5796158.20761
  21998175.9474    2459214.34345   8571295.92161
 90  7 24 23  3 59.9940000  0  5G20G12G 3G16G13
  19362041.4944  -19736452.03248 -15030355.85163
  21115533.8464  -14511178.52146   6351238.35261
  21185614.5414  -11534229.01846  -8668627.65161
  21403591.0494   -7896482.84945  -5882725.04861
  22005942.7684    2500030.19545   8603100.41661
 90  7 24 23  4 29.9940000  0  5G20G12G 3G16G13
  19347825.7364  -19811155.71048 -15088566.46863
  21131203.7754  -14428818.73246   6415414.58061
  21173419.5654  -11598323.08246  -8718570.99661
  21382488.5574   -8007394.14446  -5969149.20861
  22013717.0254    2540857.61145   8634913.93261
 90  7 24 23  4 59.9940000  0  5G20G12G 3G16G13
  19333688.5184  -19885433.49348 -15146445.21663
  21146921.9004  -14346230.97946   6479768.42561
  21161240.4944  -11662344.93646  -8768458.06061
  21361417.1434   -8118115.55146  -6055425.41061
  22021487.1664    2581695.10445   8666735.29761
 90  7 24 23  5 29.9940000  0  5G20G12G 3G16G13
  19319638.5334  -19959279.41148 -15203987.45963
  21162678.7914  -14263415.37346   6544299.84761
  21149068.2684  -11726291.39246  -8818286.36961
  21340384.5024   -8228642.74445  -6141550.28761
  22029259.6354    2622546.12945   8698567.21061
 90  7 24 23  5 59.9940000  0  5G20G12G 3G16G13
  19305669.8934  -20032684.29448 -15261186.04363
  21178484.0254  -14180368.71746   6609011.28661
  21136911.7444  -11790156.30546  -8868051.13861
  21319389.1584   -8338971.30745  -6227520.38061
  22037040.6434    2663418.36145   8730415.63161
 90  7 24 23  6 29.9940000  0  5G20G12G 3G16G13
  19291786.6044  -20105641.56348 -15318035.83363
  21194327.3464  -14097103.67846   6673892.88461
  21124771.3774  -11853949.52246  -8917760.03361
  21298428.0494   -8449113.88445  -6313345.55761
  22044818.1274    2704302.64945   8762273.47361
 90  7 24 23  6 59.9940000  0  5G20G12G 3G16G13
  19277990.8464  -20178138.58948 -15374526.99563
  21210213.6274  -14013614.49046   6738949.15861
  21112648.9164  -11917662.17146  -8967406.13161
  21277503.5334   -8559066.73245  -6399022.90361
  22052605.7684    2745208.21245   8794147.89161
 90  7 24 23  7 29.9940000  0  5G20G12G 3G16G13
  19264280.2834  -20250184.37548 -15430666.55063
  21226143.3614  -13929918.69946   6804166.41061
  21100540.3464  -11981308.82246  -9017000.81061
  21256612.8934   -8668850.23346  -6484568.30061
  22060386.8544    2786121.33345   8826028.15161
 90  7 24 23  7 59.9940000  0  5G20G12G 3G16G13
  19250657.5184  -20321767.36848 -15486445.47763
  21242109.9474  -13846013.00146   6869547.20461
  21088442.4404  -12044882.67046  -9066538.77461
  21235758.4944   -8778450.87846  -6569971.21761
  22068168.7134    2827049.30445   8857920.03061
 90  7 24 23  8 29.9940000  0  5G20G12G 3G16G13
  19237125.0884  -20392889.98448 -15541865.67263
  21258115.3074  -13761901.88446   6935088.07761
  21076357.4244  -12108385.59346  -9116021.44661
  21214937.3074   -8887864.96746  -6655228.75361
  22075966.6274    2867992.10445   8889823.44261
 90  7 24 23  8 59.9940000  0  5G20G12G 3G16G13
  19223678.2684  -20463558.69548 -15596932.18363
  21274162.2214  -13677583.57746   7000790.39961
  21064285.5494  -12171812.34646  -9165444.77661
  21194153.2444   -8997081.52146  -6740332.35861
  22083758.7214    2908955.03945   8921742.53261
 90  7 24 23  9 29.9940000  0  5G20G12G 3G16G13
  19210308.2914  -20533801.67748 -15651666.94763
  21290240.3464  -13593087.89846   7066630.90761
  21052229.5184  -12235189.41146  -9214829.37861
  21173406.6044   -9106114.77346  -6825293.14961
  22091557.2914    2949912.37045   8953657.29861
 90  7 24 23  9 59.9940000  0  5G20G12G 3G16G13
  19197027.9004  -20603603.23548 -15706057.74063
  21306357.9864  -13508395.75446   7132624.51161
  21040180.5414  -12298495.35846  -9264158.58461
  21152695.5884   -9214935.80146  -6910088.56261
  22099355.0184    2990886.48545   8985585.10561
 90  7 24 23 10 29.9940000  0  5G20G12G 3G16G13
  19183826.7684  -20672966.61748 -15760107.09563
  21322509.0414  -13423513.60946   7198766.15761
  21028148.3224  -12361733.57346  -9313435.00861
  21132023.3074   -9323555.13446  -6994726.82161
  22107152.7994    3031874.84445   9017524.01461
 90  7 24 23 10 59.9940000  0  5G20G12G 3G16G13
  19170712.4324  -20741880.86048 -15813806.47863
  21338702.5884  -13338432.41246   7265062.92361
  21016132.2294  -12424891.63546  -9362648.98361
  21111397.6744   -9431953.88846  -7079193.20461
  22114957.6744    3072890.43545   9049484.16861
 90  7 24 23 11 29.9940000  0  5G20G12G 3G16G13
  19157686.2294  -20810349.42448 -15867158.58163
  21354926.3074  -13253168.58246   7331501.96861
  21004118.9554  -12487982.64046  -9411810.68861
  21090808.2754   -9540141.67946  -7163495.18461
  22122769.1904    3113920.83145   9081455.83861
 90  7 24 23 11 59.9940000  0  5G20G12G 3G16G13
  19144734.8224  -20878402.07448 -15920186.59163
  21371177.6274  -13167764.24546   7398050.52061
  20992118.9554  -12551045.71246  -9460950.63361
  21070254.3304   -9648159.56546  -7247664.78261
  22130569.8464    3154928.22145   9113409.57261
 90  7 24 23 12 29.9940000  0  5G20G12G 3G16G13
  19131873.8544  -20945982.61847 -15972846.72363
  21387468.0494  -13082169.45746   7464747.45761
  20980135.6504  -12614027.83846  -9510027.52661
  21049743.0574   -9755949.71546  -7331656.91661
  22138379.6744    3195966.03845   9145387.03361
 90  7 24 23 12 59.9940000  0  5G20G12G 3G16G13
  19119101.2214  -21013114.63248 -16025157.34863
  21403787.6194  -12996407.82645   7531574.39961
  20968160.3934  -12676950.08946  -9559057.76661
  21029274.8464   -9863516.29946  -7415474.83261
  22146193.8854    3237014.81545   9177373.05161
 90  7 24 23 13 29.9940000  0  5G20G12G 3G16G13
  19106412.5334  -21079776.45648 -16077101.59663
  21420137.9324  -12910473.58445   7598535.85161
  20956202.8304  -12739803.11246  -9608034.05661
  21008851.2444   -9970848.36246  -7499110.02161
  22154002.4944    3278083.62245   9209374.67061
 90  7 24 23 13 59.9940000  0  5G20G12G 3G16G13
  19093815.9474  -21145980.71247 -16128689.29463
  21436518.9404  -12824382.72445   7665619.33761
  20944252.7294  -12802599.81746  -9656966.44161
  20988466.0804  -10077958.94746  -7582572.63961
  22161825.7364    3319160.38245   9241382.47661
 90  7 24 23 14 29.9940000  0  5G20G12G 3G16G13
  19081304.7524  -21211713.46647 -16179909.58963
  21452936.8304  -12738121.90746   7732835.24361
  20932317.8614  -12865324.12946  -9705842.41361
  20968130.7294  -10184826.55146  -7665845.91061
  22169644.7834    3360262.65745   9273410.15161
 90  7 24 23 14 59.9940000  0  5G20G12G 3G16G13
  19068887.8854  -21276979.87747 -16230766.50663
  21469381.6974  -12651708.15745   7800170.30261
  20920389.0414  -12927989.72646  -9754672.65861
  20947839.0104  -10291461.44946  -7748937.86561
  22177471.5254    3401377.02845   9305447.26261
 90  7 24 23 15 29.9940000  0  5G20G12G 3G16G13
  19056557.9944  -21341769.72348 -16281252.07963
  21485852.7364  -12565142.68145   7867623.56961
  20908479.3224  -12990594.69046  -9803455.65261
  20927590.2214  -10397865.69146  -7831850.09361
  22185295.2604    3442506.44645   9337496.10061
 90  7 24 23 15 59.9940000  0  5G20G12G 3G16G13
  19044323.0964  -21406066.94748 -16331353.77963
  21502358.6434  -12478411.69645   7935205.84461
  20896576.9474  -13053121.38646  -9852177.65861
  20907388.2914  -10504019.18246  -7914566.93161
  22193131.1904    3483669.14145   9369570.85961
 90  7 24 23 16 29.9940000  0  5G20G12G 3G16G13
  19032184.2364  -21469861.40548 -16381063.72163
  21518897.8154  -12391512.64545   8002919.05261
  20884696.7214  -13115564.61646  -9900834.61261
  20887238.0104  -10609904.80946  -7997075.04761
  22200970.7834    3524871.49145   9401676.54561
 90  7 24 23 16 59.9940000  0  5G20G12G 3G16G13
  19020137.0494  -21533166.49548 -16430392.34163
  21535458.2444  -12304470.55445   8070743.70261
  20872825.4244  -13177946.45246  -9949443.73661
  20867138.5184  -10715540.98046  -8079388.79861
  22208814.9404    3566092.17045   9433796.47961
 90  7 24 23 17 29.9940000  0  5G20G12G 3G16G13
  19008175.6584  -21596014.85748 -16479365.06463
  21552046.9164  -12217323.97945   8138649.77161
  20860961.0964  -13240301.94046  -9998032.34861
  20847077.9864  -10820961.79646  -8161534.73061
  22216653.5724    3607296.27045   9465903.51861
 90  7 24 23 17 59.9940000  0  5G20G12G 3G16G13
  18996315.4084  -21658346.57048
  21568659.0104  -12130021.18345   8206677.54961
  20849111.0334  -13302576.25146
  20827066.0884  -10926110.64646  -8243468.72862
  22224501.4474    3648539.82745   9498041.29061
 90  7 24 23 18 29.9940000  0  5G20G12G 3G16G13
  18984547.7684  -21720184.07848 -16576120.25963
  21585293.9794  -12042590.02445   8274805.38461
  20837272.4084  -13364794.12746 -10095039.09161
  20807105.3544  -11031012.51146  -8325210.28362
  22232354.4554    3689798.57045   9530190.87661
 90  7 24 23 18 59.9940000  0  5G20G12G 3G16G13
  18972878.5334  -21781515.60447 -16623911.03363
  21601958.1744  -11955020.56045   8343040.96361
  20825440.8774  -13426942.81246 -10143466.58261
  20787190.2994  -11135660.32646  -8406753.88662
  22240209.5414    3731086.54645   9562363.25161
 90  7 24 23 19 29.9940000  0  5G20G12G 3G16G13
  18961298.1974  -21842369.10247 -16671329.32163
  21618645.6824  -11867341.54845   8411361.88961
  20813620.4084  -13489047.80846 -10191860.02061
  20767321.8154  -11240082.48946  -8488121.65362
  22248070.6744    3772378.65345   9594538.88461
 90  7 24 23 19 59.9940000  0  5G20G12G 3G16G13
  18949812.8614  -21902729.46047 -16718363.34063
  21635357.1904  -11779540.01245   8479778.28661
  20801816.6504  -13551092.85546 -10240206.73761
  20747496.4324  -11344257.70046  -8569296.99162
  22255928.1504    3813692.19345   9626731.19061
 90  7 24 23 20 29.9940000  0  5G20G12G 3G16G13
  18938421.0724  -21962584.31447 -16765003.46263
  21652085.6824  -11691604.19845   8548299.32961
  20790028.2754  -13613062.90446 -10288494.99661
  20727726.4554  -11448158.62446  -8650258.58262
  22263799.2684    3855043.15145   9658952.61961
 90  7 24 23 20 59.9940000  0  5G20G12G 3G16G13
  18927125.9634  -22021949.35947 -16811261.91763
  21668841.4244  -11603551.33845   8616911.59761
  20778243.9714  -13674971.67746 -10336735.53561
  20708001.1974  -11551793.14847  -8731012.61162
  22271674.1354    3896417.59745   9691192.35961
 90  7 24 23 21 29.9940000  0  5G20G12G 3G16G13
  18915921.1974  -22080827.19347 -16857140.72663
  21685619.5254  -11515389.06845   8685609.09461
  20766472.2524  -13736823.72146 -10384931.87361
  20688333.4324  -11655155.03047  -8811554.18362
  22279548.5334    3937811.87945   9723447.53961
 90  7 24 23 21 59.9940000  0  5G20G12G 3G16G13
  18904808.8464  -22139214.20647 -16902637.07663
  21702419.7214  -11427117.42445   8754391.80161
  20754716.0024  -13798615.96446 -10433081.60061
  20668720.2524  -11758228.80747  -8891871.26262
  22287433.1044    3979230.32045   9755721.55761
 90  7 24 23 22 29.9940000  0  5G20G12G 3G16G13
  18893791.7524  -22197113.18547 -16947753.14363
  21719233.2134  -11338744.22845   8823253.64561
  20742967.9324  -13860353.03446 -10481188.33061
  20649159.7994  -11861019.79747  -8971967.99362
  22295314.1434    4020669.02144   9788011.35961
 90  7 24 23 22 59.9940000  0  5G20G12G 3G16G13
  18882867.6744  -22254513.47547 -16992480.61263
  21736070.4474  -11250270.18845   8892194.07261
  20731232.7604  -13922032.38746 -10529250.08961
  20629652.9324  -11963527.17947  -9051843.73462
  22303205.4864    4062131.38344   9820319.62061
 90  7 24 23 23 29.9940000  0  5G20G12G 3G16G13
  18872040.3464  -22311416.61947 -17036820.69863
  21752924.7364  -11161706.60145   8961204.25161
  20719505.2294  -13983662.34446 -10577273.36461
  20610202.1044  -12065749.34447  -9131497.22362
  22311098.4404    4103609.61244   9852640.26661
 90  7 24 23 23 59.9940000  0  5G20G12G 3G16G13
  18861313.4634  -22367790.11747 -17080748.07963
  21769799.7604  -11073027.20645   9030304.67861
  20707789.3614  -14045213.23046 -10625235.03061
  20590808.0654  -12167659.32747  -9210907.45762
  22318998.0184    4145134.03644   9884996.89261
 90  7 24 23 24 29.9940000  0  4G20G12G 3G16
  18850683.5804  -22423635.71647 -17124264.10263
  21786694.5574  -10984242.42245   9099487.21861
  20696094.5334  -14106692.49546 -10673140.87561
  20571472.8614  -12269267.18247  -9290082.25762
 90  7 24 23 24 59.9940000  0  4G20G12G 3G16
  18840154.5574  -22478967.90547 -17167380.06963
  21803610.2444  -10895370.11546   9168737.96261
  20684405.0654  -14168114.60446 -10721002.18061
  20552191.1744  -12370579.76546  -9369026.99462
 90  7 24 23 25 29.9940000  0  4G20G12G 3G16
  18829721.5724  -22533805.56847 -17210110.69763
  21820532.5414  -10806426.40145   9238044.32861
  20672720.2754  -14229492.57046 -10768829.09761
  20532966.2524  -12471615.78547  -9447756.22062
 90  7 24 23 25 59.9940000  0  4G20G12G 3G16
  18819383.2134  -22588128.11447 -17252439.92763
  21837476.7684  -10717395.44145   9307418.68961
  20661054.9634  -14290807.19046 -10816606.66361
  20513793.1664  -12572367.61947  -9526264.00262
 90  7 24 23 26 29.9940000  0  4G20G12G 3G16
  18809139.8694  -22641966.11947 -17294391.59563
  21854426.8384  -10628311.79045   9376834.09961
  20649390.8384  -14352089.74546 -10864359.23861
  20494672.4554  -12672859.46047  -9604569.19162
 90  7 24 23 26 59.9940000  0  4G20G12G 3G16
  18798993.6194  -22695278.15547 -17335933.42562
  21871397.5334  -10539143.93245   9446315.10361
  20637745.8694  -14413305.61746 -10912059.86461
  20475606.4474  -12773054.06847  -9682642.78761
 90  7 24 23 27 29.9940000  0  4G20G12G 3G16
  18788953.2444  -22748045.21547 -17377050.58762
  21888382.3774  -10449886.88745   9515865.58061
  20626107.7994  -14474446.50746 -10959702.05861
  20456594.4794  -12872944.89846  -9760479.65462
 90  7 24 23 27 59.9940000  0  4G20G12G 3G16
  18779011.3464  -22800284.13947 -17417756.22163
  21905379.9794  -10360569.71645   9585462.94161
  20614485.0104  -14535537.92046 -11007305.69061
  20437644.8544  -12972540.59746  -9838086.55662
 90  7 24 23 28 29.9940000  0  4G20G12G 3G16
  18769176.5024  -22851963.45147 -17458025.79962
  21922386.8934  -10271169.23544   9655125.26561
  20602874.1044  -14596553.71746 -11054850.40861
  20418756.8854  -13071798.98246  -9915430.61862
 90  7 24 23 28 59.9940000  0  4G20G12G 3G16
  18759452.7054  -22903079.04147 -17497856.11863
  21939422.5414  -10181685.73345   9724852.22961
  20591274.3774  -14657491.00146 -11102333.95361
  20399931.4324  -13170715.26446  -9992508.11262
 90  7 24 23 29 29.9940000  0  4G20G12G 3G16
  18749817.5884  -22953699.98047 -17537300.99363
  21956449.4554  -10092178.93345   9794597.37361
  20579687.3854  -14718405.98647 -11149800.12161
  20381163.8074  -13269335.86546 -10069355.17762
 90  7 24 23 29 59.9940000  0  4G20G12G 3G16
  18740288.4474  -23003775.45048 -17576320.82063
  21973500.3304  -10002593.32545   9864403.91561
  20568111.7054  -14779239.67046 -11197202.93761
  20362467.6824  -13367591.26546 -10145917.68262
 90  7 24 23 30 29.9940000  0  4G20G12G 3G16
  18730863.2994  -23053308.31048 -17614917.84163
  21990565.1504   -9912932.91145   9934268.70861
  20556545.1904  -14839993.03946 -11244543.15561
  20343838.8854  -13465484.57546 -10222198.02962
 90  7 24 23 30 59.9940000  0  4G20G12G 3G16
  18721536.5574  -23102314.26848 -17653104.29162
  22007637.4944   -9823212.49545  10004180.25461
  20545000.7834  -14900677.63346 -11291829.78661
  20325275.5574  -13563032.79246 -10298209.48661
 90  7 24 23 31 29.9940000  0  4G20G12G 3G16
  18712311.5574  -23150797.38847 -17690883.33262
  22024721.6274   -9733442.48845  10074130.43961
  20533463.3614  -14961300.68847 -11339068.47861
  20306776.2444  -13660244.42146 -10373958.65961
 90  7 24 23 31 59.9940000  0  4G20G12G 3G16
  18703184.9164  -23198762.96248 -17728259.09462
  22041806.3854   -9643650.64845  10144097.63461
  20521933.5414  -15021886.37846 -11386278.05461
  20288335.6744  -13757150.02646 -10449469.37161
 90  7 24 23 32 29.9940000  0  4G20G12G 3G16
  18694161.9164  -23246180.05648 -17765207.46263
  22058902.8074   -9553815.65345  10214098.45661
  20510414.3074  -15082410.78846 -11433439.88361
  20269955.6584  -13853732.68046 -10524728.44261
 90  7 24 23 32 59.9940000  0  4G20G12G 3G16
  18685236.6664  -23293074.02348 -17801748.20562
  22076004.7444   -9463965.31845  10284111.21761
  20498906.1044  -15142898.18346 -11480572.86361
  20251632.5104  -13950017.14946 -10599755.15961
 90  7 24 23 33 29.9940000  0  4G20G12G 3G16
  18676419.7754  -23339411.18048 -17837855.06063
  22093104.5184   -9374078.20545  10354152.66461
  20487405.2294  -15203323.37947 -11527657.37661
  20233375.5574  -14045969.14946 -10674522.81061
 90  7 24 23 33 59.9940000  0  4G20G12G 3G16
  18667706.1504  -23385190.35148 -17873527.12163
  22110214.7364   -9284157.84944  10424220.02761
  20475921.6434  -15263686.89446 -11574693.83161
  20215181.4944  -14141576.53246 -10749021.92562
 90  7 24 23 34 29.9940000  0  4G20G12G 3G16
  18659104.2994  -23430402.69448 -17908757.49363
  22127339.3224   -9194191.63644  10494323.09861
  20464447.6974  -15323972.45046 -11621669.53561
  20197057.6354  -14236818.76546 -10823236.53162
 90  7 24 23 34 59.9940000  0  4G20G12G 3G16
  18650610.0104  -23475040.14548 -17943539.90463
  22144465.5884   -9104180.22544  10564461.36261
  20452993.1584  -15384178.19447 -11668583.05361
  20179003.2994  -14331686.02346 -10897158.95662
 90  7 24 23 35 29.9940000  0  4G20G12G 3G16
  18642222.0724  -23519116.07447 -17977884.76163
  22161595.6434   -9014147.47544  10634616.31661
  20441545.6744  -15444324.21347 -11715450.03661
  20161020.5654  -14426196.91446 -10970803.68262
 90  7 24 23 35 59.9940000  0  4G20G12G 3G16
  18633938.9864  -23562641.13647 -18011800.37363
  22178734.3304   -8924103.15245  10704780.24161
  20430112.6354  -15504416.77947 -11762275.37361
  20143099.5024  -14520362.54047 -11044179.38062
 90  7 24 23 36 29.9940000  0  4G20G12G 3G16
  18625762.7834  -23605616.56147 -18045287.69963
  22195876.8464   -8834051.28945  10774950.02261
  20418686.7604  -15564456.63847 -11809059.62961
  20125248.2754  -14614183.80747 -11117286.73862
 90  7 24 23 36 59.9930000  0  4G20G12G 3G16
  18617692.9114  -23648024.03047 -18078332.45863
  22213010.7714   -8743983.55845  10845132.20861
  20407272.1144  -15624426.92547 -11855789.67961
  20107463.8414  -14707631.98547 -11190103.38862
 90  7 24 23 37 29.9930000  0  4G20G12G 3G16
  18609726.7394  -23689878.58547 -18110946.37363
  22230151.4504   -8653904.93845  10915322.82361
  20395872.6464  -15684339.83046 -11902475.01361
  20089751.8174  -14800712.56547 -11262633.59962
 90  7 24 23 37 59.9930000  0  4G20G12G 3G16
  18601869.8964  -23731168.93847 -18143120.65162
  22247301.4034   -8563813.01445  10985523.85261
  20384482.6074  -15744184.34246 -11949107.06061
  20072112.2634  -14893406.22347 -11334862.31961
 90  7 24 23 38 29.9930000  0  4G20G12G 3G16
  18594119.4744  -23771899.50047 -18174858.73763
  22264443.5604   -8473721.15345  11055724.86061
  20373107.7634  -15803970.76546 -11995693.83261
  20054546.8174  -14985714.54747 -11406790.78361
 90  7 24 23 38 59.9930000  0  3G20G 3G16
  18586471.9274  -23812093.79847 -18206178.95862
  20361736.0754  -15863718.33446 -12042250.32261
  20037049.4584  -15077663.79647 -11478439.44061
 90  7 24 23 39 29.9930000  0  3G20G 3G16
  18578932.5674  -23851715.75347 -18237053.19162
  20350382.6854  -15923390.01447 -12088747.68861
  20019625.4114  -15169224.07347 -11549785.00261
 90  7 24 23 39 59.9930000  0  3G20G 3G16
  18571497.6384  -23890772.61047 -18267487.09962
  20339039.3024  -15982997.19147 -12135194.78961
  20002275.3724  -15260408.94447 -11620838.04461
 90  7 24 23 40 29.9930000  0  3G20G 3G16
  18564171.6464  -23929270.87747 -18297485.73662
  20327709.4034  -16042541.31947 -12181592.76161
  19984993.0524  -15351218.84547 -11691598.90461
 90  7 24 23 40 59.9930000  0  3G20G 3G16
  18556949.2164  -23967235.75647 -18327068.75462
  20316386.8024  -16102046.59347 -12227960.44761
  19967780.8724  -15441677.54347 -11762086.10361
 90  7 24 23 41 29.9930000  0  3G20G 3G16
  18549829.7714  -24004641.54047 -18356216.11861
  20305072.0054  -16161499.48147 -12274287.30661
  19950640.0754  -15531753.96447 -11832275.41261
 90  7 24 23 41 59.9930000  0  3G20G 3G16
  18542824.4744  -24041459.45447 -18384905.39562
  20293774.3884  -16220874.32947 -12320553.38061
  19933576.9664  -15621412.10647 -11902138.79361
